<?xml version="1.0" encoding="UTF-8" standalone="no" ?>
<gpx xmlns="http://www.topografix.com/GPX/1/1" xmlns:xsi="http://www.w3.org/2001/XMLSchema-instance" xsi:schemaLocation="http://www.topografix.com/GPX/1/1 http://www.topografix.com/GPX/1/1/gpx.xsd" version="1.1" creator="VisuGPX - https://www.visugpx.com">
  <metadata>
    <name>gr70 etape4</name>
    <desc><![CDATA[4 première étape]]></desc>
  </metadata>
  <trk>
    <name><![CDATA[gr70 etape4_6]]></name>
    <trkseg>
      <trkpt lat="44.65149" lon="3.89073">
        <ele>1003.942</ele>
        <time>2016-06-08T01:08:53Z</time>
      </trkpt>
      <trkpt lat="44.65159" lon="3.89103">
        <ele>999.233</ele>
        <time>2016-06-08T01:09:13Z</time>
      </trkpt>
      <trkpt lat="44.65189" lon="3.89105">
        <ele>994.211</ele>
        <time>2016-06-08T01:09:33Z</time>
      </trkpt>
      <trkpt lat="44.65243" lon="3.89156">
        <ele>981.829</ele>
        <time>2016-06-08T01:09:53Z</time>
      </trkpt>
      <trkpt lat="44.65273" lon="3.8915">
        <ele>982.821</ele>
        <time>2016-06-08T01:10:13Z</time>
      </trkpt>
      <trkpt lat="44.65287" lon="3.89174">
        <ele>975.751</ele>
        <time>2016-06-08T01:10:33Z</time>
      </trkpt>
      <trkpt lat="44.65337" lon="3.89141">
        <ele>977.852</ele>
        <time>2016-06-08T01:10:53Z</time>
      </trkpt>
      <trkpt lat="44.65426" lon="3.89088">
        <ele>973.824</ele>
        <time>2016-06-08T01:11:13Z</time>
      </trkpt>
      <trkpt lat="44.65511" lon="3.88965">
        <ele>975.204</ele>
        <time>2016-06-08T01:11:33Z</time>
      </trkpt>
      <trkpt lat="44.65531" lon="3.88916">
        <ele>975.214</ele>
        <time>2016-06-08T01:11:53Z</time>
      </trkpt>
      <trkpt lat="44.65548" lon="3.88849">
        <ele>973.508</ele>
        <time>2016-06-08T01:12:13Z</time>
      </trkpt>
      <trkpt lat="44.65613" lon="3.88801">
        <ele>966.055</ele>
        <time>2016-06-08T01:12:33Z</time>
      </trkpt>
      <trkpt lat="44.65634" lon="3.88762">
        <ele>963.736</ele>
        <time>2016-06-08T01:12:53Z</time>
      </trkpt>
      <trkpt lat="44.65642" lon="3.88717">
        <ele>959.187</ele>
        <time>2016-06-08T01:13:13Z</time>
      </trkpt>
      <trkpt lat="44.65681" lon="3.88652">
        <ele>963.625</ele>
        <time>2016-06-08T01:13:33Z</time>
      </trkpt>
      <trkpt lat="44.65646" lon="3.8857">
        <ele>962.513</ele>
        <time>2016-06-08T01:13:53Z</time>
      </trkpt>
      <trkpt lat="44.65646" lon="3.88529">
        <ele>962.285</ele>
        <time>2016-06-08T01:14:13Z</time>
      </trkpt>
      <trkpt lat="44.65678" lon="3.88479">
        <ele>966.715</ele>
        <time>2016-06-08T01:14:33Z</time>
      </trkpt>
      <trkpt lat="44.65745" lon="3.88421">
        <ele>972.766</ele>
        <time>2016-06-08T01:14:53Z</time>
      </trkpt>
      <trkpt lat="44.65847" lon="3.88391">
        <ele>979.722</ele>
        <time>2016-06-08T01:15:13Z</time>
      </trkpt>
      <trkpt lat="44.65896" lon="3.88393">
        <ele>983.962</ele>
        <time>2016-06-08T01:15:33Z</time>
      </trkpt>
      <trkpt lat="44.65948" lon="3.88419">
        <ele>987.008</ele>
        <time>2016-06-08T01:15:53Z</time>
      </trkpt>
      <trkpt lat="44.65918" lon="3.88432">
        <ele>991.708</ele>
        <time>2016-06-08T01:16:13Z</time>
      </trkpt>
      <trkpt lat="44.65917" lon="3.88452">
        <ele>995.435</ele>
        <time>2016-06-08T01:16:33Z</time>
      </trkpt>
      <trkpt lat="44.65939" lon="3.88485">
        <ele>1000.136</ele>
        <time>2016-06-08T01:16:53Z</time>
      </trkpt>
      <trkpt lat="44.65948" lon="3.88519">
        <ele>1003.457</ele>
        <time>2016-06-08T01:17:13Z</time>
      </trkpt>
      <trkpt lat="44.65931" lon="3.88568">
        <ele>1010.355</ele>
        <time>2016-06-08T01:17:33Z</time>
      </trkpt>
      <trkpt lat="44.65881" lon="3.88635">
        <ele>1021.333</ele>
        <time>2016-06-08T01:17:53Z</time>
      </trkpt>
      <trkpt lat="44.65867" lon="3.88689">
        <ele>1019.195</ele>
        <time>2016-06-08T01:18:13Z</time>
      </trkpt>
      <trkpt lat="44.65879" lon="3.88742">
        <ele>1018.515</ele>
        <time>2016-06-08T01:18:33Z</time>
      </trkpt>
      <trkpt lat="44.65887" lon="3.88845">
        <ele>1024.766</ele>
        <time>2016-06-08T01:18:53Z</time>
      </trkpt>
      <trkpt lat="44.65881" lon="3.89005">
        <ele>1033.058</ele>
        <time>2016-06-08T01:19:13Z</time>
      </trkpt>
      <trkpt lat="44.65869" lon="3.89148">
        <ele>1034.952</ele>
        <time>2016-06-08T01:19:33Z</time>
      </trkpt>
      <trkpt lat="44.6588" lon="3.89214">
        <ele>1039.517</ele>
        <time>2016-06-08T01:19:53Z</time>
      </trkpt>
      <trkpt lat="44.65941" lon="3.89346">
        <ele>1045.708</ele>
        <time>2016-06-08T01:20:13Z</time>
      </trkpt>
      <trkpt lat="44.65952" lon="3.8942">
        <ele>1048.058</ele>
        <time>2016-06-08T01:20:33Z</time>
      </trkpt>
      <trkpt lat="44.6594" lon="3.89474">
        <ele>1051.559</ele>
        <time>2016-06-08T01:20:53Z</time>
      </trkpt>
      <trkpt lat="44.65952" lon="3.89532">
        <ele>1051.09</ele>
        <time>2016-06-08T01:21:13Z</time>
      </trkpt>
      <trkpt lat="44.65981" lon="3.89563">
        <ele>1054.098</ele>
        <time>2016-06-08T01:21:33Z</time>
      </trkpt>
      <trkpt lat="44.66031" lon="3.89609">
        <ele>1060.726</ele>
        <time>2016-06-08T01:21:53Z</time>
      </trkpt>
      <trkpt lat="44.66077" lon="3.89726">
        <ele>1069.878</ele>
        <time>2016-06-08T01:22:13Z</time>
      </trkpt>
      <trkpt lat="44.66112" lon="3.89832">
        <ele>1077.158</ele>
        <time>2016-06-08T01:22:33Z</time>
      </trkpt>
      <trkpt lat="44.66126" lon="3.89913">
        <ele>1084.369</ele>
        <time>2016-06-08T01:22:53Z</time>
      </trkpt>
      <trkpt lat="44.66123" lon="3.9">
        <ele>1096.688</ele>
        <time>2016-06-08T01:23:13Z</time>
      </trkpt>
      <trkpt lat="44.66094" lon="3.90117">
        <ele>1099.724</ele>
        <time>2016-06-08T01:23:33Z</time>
      </trkpt>
      <trkpt lat="44.66055" lon="3.90224">
        <ele>1095.826</ele>
        <time>2016-06-08T01:23:53Z</time>
      </trkpt>
      <trkpt lat="44.66031" lon="3.90297">
        <ele>1094.608</ele>
        <time>2016-06-08T01:24:13Z</time>
      </trkpt>
      <trkpt lat="44.66024" lon="3.90334">
        <ele>1093.991</ele>
        <time>2016-06-08T01:24:33Z</time>
      </trkpt>
      <trkpt lat="44.65989" lon="3.90341">
        <ele>1093.662</ele>
        <time>2016-06-08T01:24:53Z</time>
      </trkpt>
      <trkpt lat="44.6596" lon="3.9036">
        <ele>1091.683</ele>
        <time>2016-06-08T01:25:13Z</time>
      </trkpt>
      <trkpt lat="44.65932" lon="3.90392">
        <ele>1089.531</ele>
        <time>2016-06-08T01:25:33Z</time>
      </trkpt>
      <trkpt lat="44.65885" lon="3.90399">
        <ele>1087.039</ele>
        <time>2016-06-08T01:25:53Z</time>
      </trkpt>
      <trkpt lat="44.65841" lon="3.90385">
        <ele>1084.451</ele>
        <time>2016-06-08T01:26:13Z</time>
      </trkpt>
      <trkpt lat="44.65794" lon="3.90374">
        <ele>1083.891</ele>
        <time>2016-06-08T01:26:33Z</time>
      </trkpt>
      <trkpt lat="44.65741" lon="3.90321">
        <ele>1081.492</ele>
        <time>2016-06-08T01:26:53Z</time>
      </trkpt>
      <trkpt lat="44.65716" lon="3.90284">
        <ele>1080.231</ele>
        <time>2016-06-08T01:27:13Z</time>
      </trkpt>
      <trkpt lat="44.65675" lon="3.90256">
        <ele>1079.861</ele>
        <time>2016-06-08T01:27:33Z</time>
      </trkpt>
      <trkpt lat="44.65598" lon="3.90224">
        <ele>1076.507</ele>
        <time>2016-06-08T01:27:53Z</time>
      </trkpt>
      <trkpt lat="44.65516" lon="3.90216">
        <ele>1074.808</ele>
        <time>2016-06-08T01:28:13Z</time>
      </trkpt>
      <trkpt lat="44.65487" lon="3.90219">
        <ele>1071.126</ele>
        <time>2016-06-08T01:28:33Z</time>
      </trkpt>
      <trkpt lat="44.65408" lon="3.90198">
        <ele>1061.857</ele>
        <time>2016-06-08T01:28:53Z</time>
      </trkpt>
      <trkpt lat="44.65381" lon="3.90178">
        <ele>1055.368</ele>
        <time>2016-06-08T01:29:13Z</time>
      </trkpt>
      <trkpt lat="44.65339" lon="3.90189">
        <ele>1049.286</ele>
        <time>2016-06-08T01:29:33Z</time>
      </trkpt>
      <trkpt lat="44.65232" lon="3.90154">
        <ele>1035.464</ele>
        <time>2016-06-08T01:29:53Z</time>
      </trkpt>
      <trkpt lat="44.65201" lon="3.90162">
        <ele>1033.746</ele>
        <time>2016-06-08T01:30:13Z</time>
      </trkpt>
      <trkpt lat="44.65057" lon="3.90233">
        <ele>1006.986</ele>
        <time>2016-06-08T01:30:33Z</time>
      </trkpt>
      <trkpt lat="44.65035" lon="3.90274">
        <ele>1000.677</ele>
        <time>2016-06-08T01:30:53Z</time>
      </trkpt>
      <trkpt lat="44.65022" lon="3.9031">
        <ele>996.234</ele>
        <time>2016-06-08T01:31:13Z</time>
      </trkpt>
      <trkpt lat="44.64977" lon="3.90353">
        <ele>986.555</ele>
        <time>2016-06-08T01:31:33Z</time>
      </trkpt>
      <trkpt lat="44.64949" lon="3.90337">
        <ele>983.61</ele>
        <time>2016-06-08T01:31:53Z</time>
      </trkpt>
      <trkpt lat="44.64938" lon="3.90316">
        <ele>982.608</ele>
        <time>2016-06-08T01:32:13Z</time>
      </trkpt>
      <trkpt lat="44.64926" lon="3.90316">
        <ele>979.576</ele>
        <time>2016-06-08T01:32:33Z</time>
      </trkpt>
      <trkpt lat="44.64902" lon="3.90356">
        <ele>972.937</ele>
        <time>2016-06-08T01:32:53Z</time>
      </trkpt>
      <trkpt lat="44.64862" lon="3.90375">
        <ele>970.568</ele>
        <time>2016-06-08T01:33:13Z</time>
      </trkpt>
      <trkpt lat="44.64838" lon="3.90359">
        <ele>969.766</ele>
        <time>2016-06-08T01:33:33Z</time>
      </trkpt>
      <trkpt lat="44.64812" lon="3.90329">
        <ele>969.434</ele>
        <time>2016-06-08T01:33:53Z</time>
      </trkpt>
      <trkpt lat="44.64775" lon="3.90245">
        <ele>969.446</ele>
        <time>2016-06-08T01:34:13Z</time>
      </trkpt>
      <trkpt lat="44.64822" lon="3.9019">
        <ele>971.066</ele>
        <time>2016-06-08T01:34:33Z</time>
      </trkpt>
      <trkpt lat="44.6473" lon="3.90032">
        <ele>974.657</ele>
        <time>2016-06-08T01:34:53Z</time>
      </trkpt>
      <trkpt lat="44.64697" lon="3.90037">
        <ele>976.961</ele>
        <time>2016-06-08T01:35:13Z</time>
      </trkpt>
      <trkpt lat="44.64678" lon="3.89987">
        <ele>978.121</ele>
        <time>2016-06-08T01:35:33Z</time>
      </trkpt>
      <trkpt lat="44.64638" lon="3.89964">
        <ele>979.813</ele>
        <time>2016-06-08T01:35:53Z</time>
      </trkpt>
      <trkpt lat="44.64583" lon="3.9">
        <ele>983.008</ele>
        <time>2016-06-08T01:36:13Z</time>
      </trkpt>
      <trkpt lat="44.64544" lon="3.89989">
        <ele>984.639</ele>
        <time>2016-06-08T01:36:33Z</time>
      </trkpt>
      <trkpt lat="44.64499" lon="3.89953">
        <ele>982.69</ele>
        <time>2016-06-08T01:36:53Z</time>
      </trkpt>
      <trkpt lat="44.64382" lon="3.89896">
        <ele>978.781</ele>
        <time>2016-06-08T01:37:13Z</time>
      </trkpt>
      <trkpt lat="44.64357" lon="3.89839">
        <ele>973.989</ele>
        <time>2016-06-08T01:37:33Z</time>
      </trkpt>
      <trkpt lat="44.64309" lon="3.89733">
        <ele>970.637</ele>
        <time>2019-03-25T21:55:11Z</time>
      </trkpt>
      <trkpt lat="44.64252" lon="3.89659">
        <ele>968.719</ele>
        <time>2016-06-08T01:38:13Z</time>
      </trkpt>
      <trkpt lat="44.64232" lon="3.89648">
        <ele>968.339</ele>
        <time>2016-06-08T01:38:33Z</time>
      </trkpt>
      <trkpt lat="44.64212" lon="3.89641">
        <ele>968.86</ele>
        <time>2016-06-08T01:38:53Z</time>
      </trkpt>
      <trkpt lat="44.64055" lon="3.89741">
        <ele>992.847</ele>
        <time>2016-06-08T01:39:13Z</time>
      </trkpt>
      <trkpt lat="44.63824" lon="3.89874">
        <ele>1015.629</ele>
        <time>2016-06-08T01:39:33Z</time>
      </trkpt>
      <trkpt lat="44.63822" lon="3.89848">
        <ele>1014.321</ele>
        <time>2016-06-08T01:39:53Z</time>
      </trkpt>
      <trkpt lat="44.63798" lon="3.89749">
        <ele>1008.808</ele>
        <time>2016-06-08T01:40:13Z</time>
      </trkpt>
      <trkpt lat="44.63789" lon="3.89743">
        <ele>1008.267</ele>
        <time>2016-06-08T01:40:33Z</time>
      </trkpt>
      <trkpt lat="44.63755" lon="3.89757">
        <ele>1013.168</ele>
        <time>2016-06-08T01:40:53Z</time>
      </trkpt>
      <trkpt lat="44.63733" lon="3.8974">
        <ele>1016.439</ele>
        <time>2016-06-08T01:41:13Z</time>
      </trkpt>
      <trkpt lat="44.63721" lon="3.89686">
        <ele>1008.947</ele>
        <time>2016-06-08T01:41:33Z</time>
      </trkpt>
      <trkpt lat="44.63709" lon="3.89671">
        <ele>1004.125</ele>
        <time>2016-06-08T01:41:53Z</time>
      </trkpt>
      <trkpt lat="44.63654" lon="3.89659">
        <ele>1005.337</ele>
        <time>2016-06-08T01:42:13Z</time>
      </trkpt>
      <trkpt lat="44.63601" lon="3.89619">
        <ele>992.737</ele>
        <time>2016-06-08T01:42:33Z</time>
      </trkpt>
      <trkpt lat="44.63531" lon="3.89591">
        <ele>989.428</ele>
        <time>2016-06-08T01:42:53Z</time>
      </trkpt>
      <trkpt lat="44.63491" lon="3.8957">
        <ele>985.481</ele>
        <time>2016-06-08T01:43:13Z</time>
      </trkpt>
      <trkpt lat="44.63482" lon="3.89557">
        <ele>981.961</ele>
        <time>2016-06-08T01:43:33Z</time>
      </trkpt>
      <trkpt lat="44.63456" lon="3.89544">
        <ele>980.017</ele>
        <time>2016-06-08T01:43:53Z</time>
      </trkpt>
      <trkpt lat="44.63449" lon="3.89525">
        <ele>976.508</ele>
        <time>2016-06-08T01:44:13Z</time>
      </trkpt>
      <trkpt lat="44.63472" lon="3.89522">
        <ele>975.471</ele>
        <time>2016-06-08T01:44:33Z</time>
      </trkpt>
      <trkpt lat="44.63474" lon="3.89495">
        <ele>972.872</ele>
        <time>2016-06-08T01:44:53Z</time>
      </trkpt>
      <trkpt lat="44.63428" lon="3.89471">
        <ele>972.053</ele>
        <time>2016-06-08T01:45:13Z</time>
      </trkpt>
      <trkpt lat="44.63353" lon="3.89444">
        <ele>969.341</ele>
        <time>2016-06-08T01:45:33Z</time>
      </trkpt>
      <trkpt lat="44.63291" lon="3.89442">
        <ele>973.599</ele>
        <time>2016-06-08T01:45:53Z</time>
      </trkpt>
      <trkpt lat="44.63201" lon="3.89468">
        <ele>973.031</ele>
        <time>2016-06-08T01:46:13Z</time>
      </trkpt>
      <trkpt lat="44.63145" lon="3.89492">
        <ele>974.061</ele>
        <time>2016-06-08T01:46:33Z</time>
      </trkpt>
      <trkpt lat="44.63064" lon="3.89489">
        <ele>972.652</ele>
        <time>2019-03-25T22:04:11Z</time>
      </trkpt>
      <trkpt lat="44.63054" lon="3.89519">
        <ele>973.759</ele>
        <time>2019-03-25T22:04:31Z</time>
      </trkpt>
      <trkpt lat="44.63012" lon="3.8959">
        <ele>978.303</ele>
        <time>2019-03-25T22:04:51Z</time>
      </trkpt>
      <trkpt lat="44.63007" lon="3.89541">
        <ele>975.723</ele>
        <time>2019-03-25T22:05:11Z</time>
      </trkpt>
      <trkpt lat="44.62981" lon="3.89622">
        <ele>979.308</ele>
        <time>2016-06-08T01:47:53Z</time>
      </trkpt>
      <trkpt lat="44.62965" lon="3.89651">
        <ele>979.788</ele>
        <time>2016-06-08T01:48:13Z</time>
      </trkpt>
      <trkpt lat="44.6294" lon="3.89707">
        <ele>983.659</ele>
        <time>2016-06-08T01:48:33Z</time>
      </trkpt>
      <trkpt lat="44.62905" lon="3.89742">
        <ele>989.14</ele>
        <time>2016-06-08T01:48:53Z</time>
      </trkpt>
      <trkpt lat="44.62886" lon="3.89785">
        <ele>993.978</ele>
        <time>2016-06-08T01:49:13Z</time>
      </trkpt>
      <trkpt lat="44.62849" lon="3.89844">
        <ele>1002.226</ele>
        <time>2016-06-08T01:49:33Z</time>
      </trkpt>
      <trkpt lat="44.62809" lon="3.89885">
        <ele>1003.028</ele>
        <time>2016-06-08T01:49:53Z</time>
      </trkpt>
      <trkpt lat="44.62786" lon="3.89895">
        <ele>1002.618</ele>
        <time>2016-06-08T01:50:13Z</time>
      </trkpt>
      <trkpt lat="44.62752" lon="3.89904">
        <ele>1002.219</ele>
        <time>2016-06-08T01:50:33Z</time>
      </trkpt>
      <trkpt lat="44.62712" lon="3.89944">
        <ele>1002.581</ele>
        <time>2016-06-08T01:50:53Z</time>
      </trkpt>
      <trkpt lat="44.62679" lon="3.89987">
        <ele>1001.361</ele>
        <time>2016-06-08T01:51:13Z</time>
      </trkpt>
      <trkpt lat="44.62664" lon="3.90018">
        <ele>1001.717</ele>
        <time>2016-06-08T01:51:33Z</time>
      </trkpt>
      <trkpt lat="44.62612" lon="3.90077">
        <ele>996.908</ele>
        <time>2016-06-08T01:51:53Z</time>
      </trkpt>
      <trkpt lat="44.62599" lon="3.90099">
        <ele>995.731</ele>
        <time>2016-06-08T01:52:13Z</time>
      </trkpt>
      <trkpt lat="44.62597" lon="3.90139">
        <ele>997.482</ele>
        <time>2016-06-08T01:52:33Z</time>
      </trkpt>
      <trkpt lat="44.6258" lon="3.90198">
        <ele>996.753</ele>
        <time>2016-06-08T01:52:53Z</time>
      </trkpt>
      <trkpt lat="44.6257" lon="3.90295">
        <ele>996.491</ele>
        <time>2016-06-08T01:53:13Z</time>
      </trkpt>
      <trkpt lat="44.6256" lon="3.90509">
        <ele>1002.399</ele>
        <time>2016-06-08T01:53:33Z</time>
      </trkpt>
      <trkpt lat="44.62522" lon="3.90518">
        <ele>994.281</ele>
        <time>2016-06-08T01:53:53Z</time>
      </trkpt>
      <trkpt lat="44.62485" lon="3.9056">
        <ele>995.721</ele>
        <time>2016-06-08T01:54:13Z</time>
      </trkpt>
      <trkpt lat="44.62439" lon="3.90594">
        <ele>1000.782</ele>
        <time>2016-06-08T01:54:33Z</time>
      </trkpt>
      <trkpt lat="44.62336" lon="3.90651">
        <ele>1017.092</ele>
        <time>2016-06-08T01:54:53Z</time>
      </trkpt>
      <trkpt lat="44.62283" lon="3.90699">
        <ele>1024.973</ele>
        <time>2016-06-08T01:55:13Z</time>
      </trkpt>
      <trkpt lat="44.62259" lon="3.90738">
        <ele>1029.72</ele>
        <time>2016-06-08T01:55:33Z</time>
      </trkpt>
      <trkpt lat="44.62183" lon="3.90817">
        <ele>1042.208</ele>
        <time>2016-06-08T01:55:53Z</time>
      </trkpt>
      <trkpt lat="44.62147" lon="3.90861">
        <ele>1047.352</ele>
        <time>2016-06-08T01:56:13Z</time>
      </trkpt>
      <trkpt lat="44.62112" lon="3.90988">
        <ele>1063.363</ele>
        <time>2016-06-08T01:56:33Z</time>
      </trkpt>
      <trkpt lat="44.62087" lon="3.91053">
        <ele>1065.594</ele>
        <time>2016-06-08T01:56:53Z</time>
      </trkpt>
      <trkpt lat="44.62066" lon="3.91128">
        <ele>1071.132</ele>
        <time>2016-06-08T01:57:13Z</time>
      </trkpt>
      <trkpt lat="44.62046" lon="3.91154">
        <ele>1077.15</ele>
        <time>2016-06-08T01:57:33Z</time>
      </trkpt>
      <trkpt lat="44.62052" lon="3.91222">
        <ele>1078.982</ele>
        <time>2016-06-08T01:57:53Z</time>
      </trkpt>
      <trkpt lat="44.62062" lon="3.91299">
        <ele>1085.352</ele>
        <time>2016-06-08T01:58:13Z</time>
      </trkpt>
      <trkpt lat="44.6206" lon="3.91326">
        <ele>1086.813</ele>
        <time>2016-06-08T01:58:33Z</time>
      </trkpt>
      <trkpt lat="44.6205" lon="3.91365">
        <ele>1089.655</ele>
        <time>2016-06-08T01:58:53Z</time>
      </trkpt>
      <trkpt lat="44.62053" lon="3.91425">
        <ele>1087.207</ele>
        <time>2016-06-08T01:59:13Z</time>
      </trkpt>
      <trkpt lat="44.62042" lon="3.9145">
        <ele>1084.617</ele>
        <time>2016-06-08T01:59:33Z</time>
      </trkpt>
      <trkpt lat="44.6203" lon="3.9146">
        <ele>1082.708</ele>
        <time>2016-06-08T01:59:53Z</time>
      </trkpt>
      <trkpt lat="44.62035" lon="3.915">
        <ele>1077.788</ele>
        <time>2016-06-08T02:00:13Z</time>
      </trkpt>
      <trkpt lat="44.62024" lon="3.91588">
        <ele>1071.249</ele>
        <time>2016-06-08T02:00:33Z</time>
      </trkpt>
      <trkpt lat="44.61988" lon="3.91642">
        <ele>1062.31</ele>
        <time>2016-06-08T02:00:53Z</time>
      </trkpt>
      <trkpt lat="44.61977" lon="3.91743">
        <ele>1056.318</ele>
        <time>2016-06-08T02:01:13Z</time>
      </trkpt>
      <trkpt lat="44.61935" lon="3.91721">
        <ele>1050.896</ele>
        <time>2016-06-08T02:01:33Z</time>
      </trkpt>
      <trkpt lat="44.61927" lon="3.91706">
        <ele>1050.628</ele>
        <time>2016-06-08T02:01:53Z</time>
      </trkpt>
      <trkpt lat="44.61915" lon="3.91666">
        <ele>1048.848</ele>
        <time>2016-06-08T02:02:13Z</time>
      </trkpt>
      <trkpt lat="44.61896" lon="3.91632">
        <ele>1047.159</ele>
        <time>2016-06-08T02:02:33Z</time>
      </trkpt>
      <trkpt lat="44.61876" lon="3.9157">
        <ele>1048.721</ele>
        <time>2016-06-08T02:02:53Z</time>
      </trkpt>
      <trkpt lat="44.61851" lon="3.9153">
        <ele>1047.441</ele>
        <time>2016-06-08T02:03:13Z</time>
      </trkpt>
      <trkpt lat="44.61806" lon="3.91497">
        <ele>1041.705</ele>
        <time>2016-06-08T02:03:33Z</time>
      </trkpt>
      <trkpt lat="44.61768" lon="3.91452">
        <ele>1041.308</ele>
        <time>2016-06-08T02:03:53Z</time>
      </trkpt>
      <trkpt lat="44.61747" lon="3.91409">
        <ele>1039.245</ele>
        <time>2016-06-08T02:04:13Z</time>
      </trkpt>
      <trkpt lat="44.61729" lon="3.91382">
        <ele>1037.186</ele>
        <time>2016-06-08T02:04:33Z</time>
      </trkpt>
      <trkpt lat="44.61716" lon="3.91378">
        <ele>1033.767</ele>
        <time>2016-06-08T02:04:53Z</time>
      </trkpt>
      <trkpt lat="44.61707" lon="3.91321">
        <ele>1035.245</ele>
        <time>2016-06-08T02:05:13Z</time>
      </trkpt>
      <trkpt lat="44.61699" lon="3.91318">
        <ele>1032.243</ele>
        <time>2016-06-08T02:05:33Z</time>
      </trkpt>
      <trkpt lat="44.61697" lon="3.91361">
        <ele>1028.825</ele>
        <time>2016-06-08T02:05:53Z</time>
      </trkpt>
      <trkpt lat="44.61683" lon="3.91363">
        <ele>1027.585</ele>
        <time>2016-06-08T02:06:13Z</time>
      </trkpt>
      <trkpt lat="44.61674" lon="3.91355">
        <ele>1027.366</ele>
        <time>2016-06-08T02:06:33Z</time>
      </trkpt>
      <trkpt lat="44.61665" lon="3.91326">
        <ele>1027.622</ele>
        <time>2016-06-08T02:06:53Z</time>
      </trkpt>
      <trkpt lat="44.61637" lon="3.91281">
        <ele>1031.662</ele>
        <time>2016-06-08T02:07:13Z</time>
      </trkpt>
      <trkpt lat="44.61594" lon="3.91164">
        <ele>1029.908</ele>
        <time>2016-06-08T02:07:33Z</time>
      </trkpt>
      <trkpt lat="44.61573" lon="3.91088">
        <ele>1025.608</ele>
        <time>2016-06-08T02:07:53Z</time>
      </trkpt>
      <trkpt lat="44.61556" lon="3.91076">
        <ele>1031.575</ele>
        <time>2016-06-08T02:08:13Z</time>
      </trkpt>
      <trkpt lat="44.61554" lon="3.91061">
        <ele>1031.766</ele>
        <time>2016-06-08T02:08:33Z</time>
      </trkpt>
      <trkpt lat="44.61563" lon="3.91024">
        <ele>1028.597</ele>
        <time>2016-06-08T02:08:53Z</time>
      </trkpt>
      <trkpt lat="44.61549" lon="3.90947">
        <ele>1030.055</ele>
        <time>2016-06-08T02:09:13Z</time>
      </trkpt>
      <trkpt lat="44.61534" lon="3.90919">
        <ele>1033.663</ele>
        <time>2016-06-08T02:09:33Z</time>
      </trkpt>
      <trkpt lat="44.61536" lon="3.90901">
        <ele>1033.465</ele>
        <time>2016-06-08T02:09:53Z</time>
      </trkpt>
      <trkpt lat="44.61548" lon="3.90881">
        <ele>1031.915</ele>
        <time>2016-06-08T02:10:13Z</time>
      </trkpt>
      <trkpt lat="44.61578" lon="3.9073">
        <ele>1033.936</ele>
        <time>2016-06-08T02:10:33Z</time>
      </trkpt>
      <trkpt lat="44.61571" lon="3.90653">
        <ele>1028.626</ele>
        <time>2019-03-25T22:28:31Z</time>
      </trkpt>
      <trkpt lat="44.61541" lon="3.90587">
        <ele>1031.347</ele>
        <time>2019-03-25T22:28:51Z</time>
      </trkpt>
      <trkpt lat="44.61546" lon="3.9074">
        <ele>1043.911</ele>
        <time>2016-06-08T02:11:13Z</time>
      </trkpt>
      <trkpt lat="44.61523" lon="3.90796">
        <ele>1048.108</ele>
        <time>2016-06-08T02:11:33Z</time>
      </trkpt>
      <trkpt lat="44.61509" lon="3.9081">
        <ele>1050.045</ele>
        <time>2016-06-08T02:11:53Z</time>
      </trkpt>
      <trkpt lat="44.61474" lon="3.9082">
        <ele>1055.716</ele>
        <time>2016-06-08T02:12:13Z</time>
      </trkpt>
      <trkpt lat="44.6147" lon="3.90812">
        <ele>1057.547</ele>
        <time>2016-06-08T02:12:33Z</time>
      </trkpt>
      <trkpt lat="44.61482" lon="3.90775">
        <ele>1061.075</ele>
        <time>2016-06-08T02:12:53Z</time>
      </trkpt>
      <trkpt lat="44.61481" lon="3.90742">
        <ele>1064.773</ele>
        <time>2016-06-08T02:13:13Z</time>
      </trkpt>
      <trkpt lat="44.61465" lon="3.90677">
        <ele>1068.775</ele>
        <time>2016-06-08T02:13:33Z</time>
      </trkpt>
      <trkpt lat="44.61442" lon="3.90612">
        <ele>1067.945</ele>
        <time>2016-06-08T02:13:53Z</time>
      </trkpt>
      <trkpt lat="44.61434" lon="3.90613">
        <ele>1069.846</ele>
        <time>2016-06-08T02:14:13Z</time>
      </trkpt>
      <trkpt lat="44.61435" lon="3.9065">
        <ele>1073.319</ele>
        <time>2016-06-08T02:14:33Z</time>
      </trkpt>
      <trkpt lat="44.61427" lon="3.90711">
        <ele>1080.109</ele>
        <time>2016-06-08T02:14:53Z</time>
      </trkpt>
      <trkpt lat="44.61418" lon="3.90723">
        <ele>1081.819</ele>
        <time>2016-06-08T02:15:13Z</time>
      </trkpt>
      <trkpt lat="44.61387" lon="3.9075">
        <ele>1082.208</ele>
        <time>2016-06-08T02:15:33Z</time>
      </trkpt>
      <trkpt lat="44.6134" lon="3.9078">
        <ele>1083.264</ele>
        <time>2016-06-08T02:15:53Z</time>
      </trkpt>
      <trkpt lat="44.61324" lon="3.90809">
        <ele>1085.375</ele>
        <time>2016-06-08T02:16:13Z</time>
      </trkpt>
      <trkpt lat="44.61316" lon="3.90817">
        <ele>1087.266</ele>
        <time>2016-06-08T02:16:33Z</time>
      </trkpt>
      <trkpt lat="44.61307" lon="3.90862">
        <ele>1093.734</ele>
        <time>2016-06-08T02:16:53Z</time>
      </trkpt>
      <trkpt lat="44.61312" lon="3.90936">
        <ele>1101.242</ele>
        <time>2016-06-08T02:17:13Z</time>
      </trkpt>
      <trkpt lat="44.61304" lon="3.90993">
        <ele>1108.124</ele>
        <time>2016-06-08T02:17:33Z</time>
      </trkpt>
      <trkpt lat="44.61282" lon="3.91039">
        <ele>1113.624</ele>
        <time>2016-06-08T02:17:53Z</time>
      </trkpt>
      <trkpt lat="44.61212" lon="3.91128">
        <ele>1125.185</ele>
        <time>2016-06-08T02:18:13Z</time>
      </trkpt>
      <trkpt lat="44.6119" lon="3.91178">
        <ele>1127.325</ele>
        <time>2016-06-08T02:18:33Z</time>
      </trkpt>
      <trkpt lat="44.61168" lon="3.91275">
        <ele>1131.826</ele>
        <time>2016-06-08T02:18:53Z</time>
      </trkpt>
      <trkpt lat="44.6116" lon="3.91284">
        <ele>1131.508</ele>
        <time>2016-06-08T02:19:13Z</time>
      </trkpt>
      <trkpt lat="44.61157" lon="3.91324">
        <ele>1132.808</ele>
        <time>2016-06-08T02:19:33Z</time>
      </trkpt>
      <trkpt lat="44.61159" lon="3.91409">
        <ele>1141.065</ele>
        <time>2016-06-08T02:19:53Z</time>
      </trkpt>
      <trkpt lat="44.61146" lon="3.91445">
        <ele>1144.266</ele>
        <time>2016-06-08T02:20:13Z</time>
      </trkpt>
      <trkpt lat="44.61093" lon="3.91496">
        <ele>1151.137</ele>
        <time>2016-06-08T02:20:33Z</time>
      </trkpt>
      <trkpt lat="44.61021" lon="3.91596">
        <ele>1164.115</ele>
        <time>2016-06-08T02:20:53Z</time>
      </trkpt>
      <trkpt lat="44.60983" lon="3.91687">
        <ele>1171.963</ele>
        <time>2016-06-08T02:21:13Z</time>
      </trkpt>
      <trkpt lat="44.60961" lon="3.91752">
        <ele>1178.735</ele>
        <time>2016-06-08T02:21:33Z</time>
      </trkpt>
      <trkpt lat="44.60934" lon="3.91907">
        <ele>1192.665</ele>
        <time>2016-06-08T02:21:53Z</time>
      </trkpt>
      <trkpt lat="44.60929" lon="3.91935">
        <ele>1195.496</ele>
        <time>2016-06-08T02:22:13Z</time>
      </trkpt>
      <trkpt lat="44.60878" lon="3.92035">
        <ele>1211.773</ele>
        <time>2016-06-08T02:22:33Z</time>
      </trkpt>
      <trkpt lat="44.60855" lon="3.92107">
        <ele>1222.785</ele>
        <time>2016-06-08T02:22:53Z</time>
      </trkpt>
      <trkpt lat="44.60875" lon="3.92323">
        <ele>1214.513</ele>
        <time>2016-06-08T02:23:13Z</time>
      </trkpt>
      <trkpt lat="44.60866" lon="3.92397">
        <ele>1216.808</ele>
        <time>2016-06-08T02:23:33Z</time>
      </trkpt>
      <trkpt lat="44.6081" lon="3.92569">
        <ele>1219.27</ele>
        <time>2016-06-08T02:23:53Z</time>
      </trkpt>
      <trkpt lat="44.60811" lon="3.92602">
        <ele>1221.181</ele>
        <time>2016-06-08T02:24:13Z</time>
      </trkpt>
      <trkpt lat="44.60802" lon="3.92643">
        <ele>1223.342</ele>
        <time>2016-06-08T02:24:33Z</time>
      </trkpt>
      <trkpt lat="44.6078" lon="3.92704">
        <ele>1227.72</ele>
        <time>2016-06-08T02:24:53Z</time>
      </trkpt>
      <trkpt lat="44.60765" lon="3.92783">
        <ele>1229.258</ele>
        <time>2016-06-08T02:25:13Z</time>
      </trkpt>
      <trkpt lat="44.6076" lon="3.92887">
        <ele>1228.33</ele>
        <time>2016-06-08T02:25:33Z</time>
      </trkpt>
      <trkpt lat="44.60766" lon="3.93002">
        <ele>1227.42</ele>
        <time>2016-06-08T02:25:53Z</time>
      </trkpt>
      <trkpt lat="44.60794" lon="3.93048">
        <ele>1225.881</ele>
        <time>2016-06-08T02:26:13Z</time>
      </trkpt>
      <trkpt lat="44.60823" lon="3.93113">
        <ele>1223.441</ele>
        <time>2016-06-08T02:26:33Z</time>
      </trkpt>
      <trkpt lat="44.60831" lon="3.93151">
        <ele>1224.281</ele>
        <time>2016-06-08T02:26:53Z</time>
      </trkpt>
      <trkpt lat="44.60823" lon="3.93207">
        <ele>1225.809</ele>
        <time>2016-06-08T02:27:13Z</time>
      </trkpt>
      <trkpt lat="44.60819" lon="3.93262">
        <ele>1225.708</ele>
        <time>2016-06-08T02:27:33Z</time>
      </trkpt>
      <trkpt lat="44.60801" lon="3.93304">
        <ele>1224.897</ele>
        <time>2016-06-08T02:27:53Z</time>
      </trkpt>
      <trkpt lat="44.60748" lon="3.93403">
        <ele>1221.068</ele>
        <time>2016-06-08T02:28:13Z</time>
      </trkpt>
      <trkpt lat="44.60731" lon="3.93459">
        <ele>1221.459</ele>
        <time>2016-06-08T02:28:33Z</time>
      </trkpt>
      <trkpt lat="44.60731" lon="3.93512">
        <ele>1218.037</ele>
        <time>2016-06-08T02:28:53Z</time>
      </trkpt>
      <trkpt lat="44.60741" lon="3.93552">
        <ele>1213.835</ele>
        <time>2016-06-08T02:29:13Z</time>
      </trkpt>
      <trkpt lat="44.60787" lon="3.93665">
        <ele>1207.797</ele>
        <time>2016-06-08T02:29:33Z</time>
      </trkpt>
      <trkpt lat="44.60799" lon="3.93745">
        <ele>1203.497</ele>
        <time>2016-06-08T02:29:53Z</time>
      </trkpt>
      <trkpt lat="44.60803" lon="3.93825">
        <ele>1198.678</ele>
        <time>2016-06-08T02:30:13Z</time>
      </trkpt>
      <trkpt lat="44.60806" lon="3.93861">
        <ele>1197.294</ele>
        <time>2016-06-08T02:30:33Z</time>
      </trkpt>
      <trkpt lat="44.60848" lon="3.93921">
        <ele>1204.257</ele>
        <time>2016-06-08T02:30:53Z</time>
      </trkpt>
      <trkpt lat="44.60886" lon="3.93967">
        <ele>1204.522</ele>
        <time>2016-06-08T02:31:13Z</time>
      </trkpt>
      <trkpt lat="44.60919" lon="3.94004">
        <ele>1206.308</ele>
        <time>2016-06-08T02:31:33Z</time>
      </trkpt>
      <trkpt lat="44.6094" lon="3.94021">
        <ele>1209.722</ele>
        <time>2016-06-08T02:31:53Z</time>
      </trkpt>
      <trkpt lat="44.60941" lon="3.94048">
        <ele>1209.213</ele>
        <time>2016-06-08T02:32:13Z</time>
      </trkpt>
      <trkpt lat="44.60935" lon="3.94069">
        <ele>1208.014</ele>
        <time>2016-06-08T02:32:33Z</time>
      </trkpt>
      <trkpt lat="44.60925" lon="3.94067">
        <ele>1205.882</ele>
        <time>2016-06-08T02:32:53Z</time>
      </trkpt>
      <trkpt lat="44.60902" lon="3.94088">
        <ele>1200.78</ele>
        <time>2016-06-08T02:33:13Z</time>
      </trkpt>
      <trkpt lat="44.60878" lon="3.94079">
        <ele>1195.452</ele>
        <time>2016-06-08T02:33:33Z</time>
      </trkpt>
      <trkpt lat="44.60839" lon="3.94035">
        <ele>1187.742</ele>
        <time>2016-06-08T02:33:53Z</time>
      </trkpt>
      <trkpt lat="44.6083" lon="3.94122">
        <ele>1182.143</ele>
        <time>2016-06-08T02:34:13Z</time>
      </trkpt>
      <trkpt lat="44.60806" lon="3.94233">
        <ele>1176.216</ele>
        <time>2016-06-08T02:34:33Z</time>
      </trkpt>
      <trkpt lat="44.60809" lon="3.94276">
        <ele>1176.176</ele>
        <time>2016-06-08T02:34:53Z</time>
      </trkpt>
      <trkpt lat="44.60778" lon="3.94348">
        <ele>1169.613</ele>
        <time>2016-06-08T02:35:13Z</time>
      </trkpt>
      <trkpt lat="44.60768" lon="3.94397">
        <ele>1166.408</ele>
        <time>2016-06-08T02:35:33Z</time>
      </trkpt>
      <trkpt lat="44.60769" lon="3.94432">
        <ele>1167.774</ele>
        <time>2016-06-08T02:35:53Z</time>
      </trkpt>
      <trkpt lat="44.60745" lon="3.94526">
        <ele>1167.185</ele>
        <time>2016-06-08T02:36:13Z</time>
      </trkpt>
      <trkpt lat="44.60718" lon="3.94595">
        <ele>1165.296</ele>
        <time>2016-06-08T02:36:33Z</time>
      </trkpt>
      <trkpt lat="44.60688" lon="3.94628">
        <ele>1164.174</ele>
        <time>2016-06-08T02:36:53Z</time>
      </trkpt>
      <trkpt lat="44.60659" lon="3.9462">
        <ele>1158.662</ele>
        <time>2016-06-08T02:37:13Z</time>
      </trkpt>
      <trkpt lat="44.6062" lon="3.94651">
        <ele>1157.394</ele>
        <time>2016-06-08T02:37:33Z</time>
      </trkpt>
      <trkpt lat="44.6058" lon="3.94662">
        <ele>1153.044</ele>
        <time>2016-06-08T02:37:53Z</time>
      </trkpt>
      <trkpt lat="44.60496" lon="3.9466">
        <ele>1141.415</ele>
        <time>2016-06-08T02:38:13Z</time>
      </trkpt>
      <trkpt lat="44.6047" lon="3.94666">
        <ele>1141.287</ele>
        <time>2016-06-08T02:38:33Z</time>
      </trkpt>
      <trkpt lat="44.60456" lon="3.94648">
        <ele>1142.542</ele>
        <time>2016-06-08T02:38:53Z</time>
      </trkpt>
      <trkpt lat="44.60459" lon="3.94618">
        <ele>1143.526</ele>
        <time>2016-06-08T02:39:13Z</time>
      </trkpt>
      <trkpt lat="44.60514" lon="3.94564">
        <ele>1142.708</ele>
        <time>2016-06-08T02:39:33Z</time>
      </trkpt>
      <trkpt lat="44.60539" lon="3.94527">
        <ele>1141.971</ele>
        <time>2016-06-08T02:39:53Z</time>
      </trkpt>
      <trkpt lat="44.60557" lon="3.94486">
        <ele>1139.812</ele>
        <time>2016-06-08T02:40:13Z</time>
      </trkpt>
      <trkpt lat="44.6057" lon="3.94402">
        <ele>1140.383</ele>
        <time>2016-06-08T02:40:33Z</time>
      </trkpt>
      <trkpt lat="44.60569" lon="3.94344">
        <ele>1140.021</ele>
        <time>2016-06-08T02:40:53Z</time>
      </trkpt>
      <trkpt lat="44.60549" lon="3.94224">
        <ele>1137.179</ele>
        <time>2016-06-08T02:41:13Z</time>
      </trkpt>
      <trkpt lat="44.60522" lon="3.94121">
        <ele>1134.011</ele>
        <time>2016-06-08T02:41:33Z</time>
      </trkpt>
      <trkpt lat="44.60521" lon="3.94071">
        <ele>1131.761</ele>
        <time>2016-06-08T02:41:53Z</time>
      </trkpt>
      <trkpt lat="44.6052" lon="3.93966">
        <ele>1128.912</ele>
        <time>2016-06-08T02:42:13Z</time>
      </trkpt>
      <trkpt lat="44.60503" lon="3.93864">
        <ele>1121.465</ele>
        <time>2016-06-08T02:42:33Z</time>
      </trkpt>
      <trkpt lat="44.60476" lon="3.93777">
        <ele>1115.068</ele>
        <time>2016-06-08T02:42:53Z</time>
      </trkpt>
      <trkpt lat="44.60454" lon="3.93739">
        <ele>1115.914</ele>
        <time>2016-06-08T02:43:13Z</time>
      </trkpt>
      <trkpt lat="44.60427" lon="3.9371">
        <ele>1113.008</ele>
        <time>2016-06-08T02:43:33Z</time>
      </trkpt>
      <trkpt lat="44.60412" lon="3.93686">
        <ele>1107.729</ele>
        <time>2016-06-08T02:43:53Z</time>
      </trkpt>
      <trkpt lat="44.6038" lon="3.93659">
        <ele>1105.05</ele>
        <time>2016-06-08T02:44:13Z</time>
      </trkpt>
      <trkpt lat="44.60305" lon="3.93626">
        <ele>1102.641</ele>
        <time>2016-06-08T02:44:33Z</time>
      </trkpt>
      <trkpt lat="44.60234" lon="3.93614">
        <ele>1092.489</ele>
        <time>2016-06-08T02:44:53Z</time>
      </trkpt>
      <trkpt lat="44.60171" lon="3.93624">
        <ele>1087.577</ele>
        <time>2016-06-08T02:45:13Z</time>
      </trkpt>
      <trkpt lat="44.60092" lon="3.93614">
        <ele>1084.229</ele>
        <time>2016-06-08T02:45:33Z</time>
      </trkpt>
      <trkpt lat="44.60078" lon="3.93584">
        <ele>1083.099</ele>
        <time>2016-06-08T02:45:53Z</time>
      </trkpt>
      <trkpt lat="44.60015" lon="3.93488">
        <ele>1090.08</ele>
        <time>2016-06-08T02:46:13Z</time>
      </trkpt>
      <trkpt lat="44.5999" lon="3.93431">
        <ele>1092.625</ele>
        <time>2016-06-08T02:46:33Z</time>
      </trkpt>
      <trkpt lat="44.59978" lon="3.93396">
        <ele>1091.626</ele>
        <time>2016-06-08T02:46:53Z</time>
      </trkpt>
      <trkpt lat="44.59952" lon="3.93328">
        <ele>1088.008</ele>
        <time>2016-06-08T02:47:13Z</time>
      </trkpt>
      <trkpt lat="44.59954" lon="3.93285">
        <ele>1087.108</ele>
        <time>2016-06-08T02:47:33Z</time>
      </trkpt>
      <trkpt lat="44.59964" lon="3.93218">
        <ele>1089.945</ele>
        <time>2016-06-08T02:47:53Z</time>
      </trkpt>
      <trkpt lat="44.59944" lon="3.93056">
        <ele>1089.996</ele>
        <time>2016-06-08T02:48:13Z</time>
      </trkpt>
      <trkpt lat="44.59939" lon="3.9298">
        <ele>1091.297</ele>
        <time>2016-06-08T02:48:33Z</time>
      </trkpt>
      <trkpt lat="44.59875" lon="3.9294">
        <ele>1085.845</ele>
        <time>2016-06-08T02:48:53Z</time>
      </trkpt>
      <trkpt lat="44.59838" lon="3.92908">
        <ele>1086.973</ele>
        <time>2016-06-08T02:49:13Z</time>
      </trkpt>
      <trkpt lat="44.59818" lon="3.92862">
        <ele>1086.825</ele>
        <time>2016-06-08T02:49:33Z</time>
      </trkpt>
      <trkpt lat="44.59819" lon="3.92782">
        <ele>1087.395</ele>
        <time>2016-06-08T02:49:53Z</time>
      </trkpt>
      <trkpt lat="44.59824" lon="3.92735">
        <ele>1088.686</ele>
        <time>2016-06-08T02:50:13Z</time>
      </trkpt>
      <trkpt lat="44.59845" lon="3.92662">
        <ele>1094.883</ele>
        <time>2016-06-08T02:50:33Z</time>
      </trkpt>
      <trkpt lat="44.59841" lon="3.92633">
        <ele>1096.225</ele>
        <time>2016-06-08T02:50:53Z</time>
      </trkpt>
      <trkpt lat="44.59822" lon="3.92612">
        <ele>1094.017</ele>
        <time>2016-06-08T02:51:13Z</time>
      </trkpt>
      <trkpt lat="44.59777" lon="3.92592">
        <ele>1085.208</ele>
        <time>2016-06-08T02:51:33Z</time>
      </trkpt>
      <trkpt lat="44.59753" lon="3.92547">
        <ele>1083.721</ele>
        <time>2016-06-08T02:51:53Z</time>
      </trkpt>
      <trkpt lat="44.59726" lon="3.92408">
        <ele>1079.042</ele>
        <time>2016-06-08T02:52:13Z</time>
      </trkpt>
      <trkpt lat="44.59689" lon="3.92329">
        <ele>1070.413</ele>
        <time>2016-06-08T02:52:33Z</time>
      </trkpt>
      <trkpt lat="44.59664" lon="3.92266">
        <ele>1065.031</ele>
        <time>2016-06-08T02:52:53Z</time>
      </trkpt>
      <trkpt lat="44.59662" lon="3.92223">
        <ele>1062.039</ele>
        <time>2016-06-08T02:53:13Z</time>
      </trkpt>
      <trkpt lat="44.59684" lon="3.92192">
        <ele>1059.451</ele>
        <time>2016-06-08T02:53:33Z</time>
      </trkpt>
      <trkpt lat="44.5973" lon="3.92177">
        <ele>1058.681</ele>
        <time>2016-06-08T02:53:53Z</time>
      </trkpt>
      <trkpt lat="44.59748" lon="3.92172">
        <ele>1057.292</ele>
        <time>2016-06-08T02:54:13Z</time>
      </trkpt>
      <trkpt lat="44.59745" lon="3.92158">
        <ele>1054.924</ele>
        <time>2016-06-08T02:54:33Z</time>
      </trkpt>
      <trkpt lat="44.59627" lon="3.92165">
        <ele>1049.004</ele>
        <time>2016-06-08T02:54:53Z</time>
      </trkpt>
      <trkpt lat="44.59598" lon="3.9215">
        <ele>1045.914</ele>
        <time>2016-06-08T02:55:13Z</time>
      </trkpt>
      <trkpt lat="44.59584" lon="3.92076">
        <ele>1047.308</ele>
        <time>2016-06-08T02:55:33Z</time>
      </trkpt>
      <trkpt lat="44.59605" lon="3.91963">
        <ele>1051.735</ele>
        <time>2016-06-08T02:55:53Z</time>
      </trkpt>
      <trkpt lat="44.59623" lon="3.91915">
        <ele>1053.746</ele>
        <time>2016-06-08T02:56:13Z</time>
      </trkpt>
      <trkpt lat="44.5965" lon="3.91894">
        <ele>1057.947</ele>
        <time>2016-06-08T02:56:33Z</time>
      </trkpt>
      <trkpt lat="44.59664" lon="3.91868">
        <ele>1059.845</ele>
        <time>2016-06-08T02:56:53Z</time>
      </trkpt>
      <trkpt lat="44.59682" lon="3.91795">
        <ele>1058.843</ele>
        <time>2016-06-08T02:57:13Z</time>
      </trkpt>
      <trkpt lat="44.59707" lon="3.9175">
        <ele>1059.275</ele>
        <time>2016-06-08T02:57:33Z</time>
      </trkpt>
      <trkpt lat="44.59737" lon="3.91715">
        <ele>1061.295</ele>
        <time>2016-06-08T02:57:53Z</time>
      </trkpt>
      <trkpt lat="44.59827" lon="3.91703">
        <ele>1069.276</ele>
        <time>2016-06-08T02:58:13Z</time>
      </trkpt>
      <trkpt lat="44.59914" lon="3.91711">
        <ele>1076.426</ele>
        <time>2016-06-08T02:58:33Z</time>
      </trkpt>
      <trkpt lat="44.59928" lon="3.91696">
        <ele>1078.147</ele>
        <time>2016-06-08T02:58:53Z</time>
      </trkpt>
      <trkpt lat="44.5993" lon="3.91674">
        <ele>1077.611</ele>
        <time>2016-06-08T02:59:13Z</time>
      </trkpt>
      <trkpt lat="44.59924" lon="3.91639">
        <ele>1075.908</ele>
        <time>2016-06-08T02:59:33Z</time>
      </trkpt>
      <trkpt lat="44.59925" lon="3.91611">
        <ele>1076.075</ele>
        <time>2016-06-08T02:59:53Z</time>
      </trkpt>
      <trkpt lat="44.59912" lon="3.91578">
        <ele>1077.176</ele>
        <time>2016-06-08T03:00:13Z</time>
      </trkpt>
      <trkpt lat="44.59876" lon="3.9153">
        <ele>1080.277</ele>
        <time>2016-06-08T03:00:33Z</time>
      </trkpt>
      <trkpt lat="44.59859" lon="3.91487">
        <ele>1084.685</ele>
        <time>2016-06-08T03:00:53Z</time>
      </trkpt>
      <trkpt lat="44.59827" lon="3.91433">
        <ele>1085.163</ele>
        <time>2016-06-08T03:01:13Z</time>
      </trkpt>
      <trkpt lat="44.59805" lon="3.91351">
        <ele>1089.195</ele>
        <time>2016-06-08T03:01:33Z</time>
      </trkpt>
      <trkpt lat="44.59771" lon="3.91323">
        <ele>1086.395</ele>
        <time>2016-06-08T03:01:53Z</time>
      </trkpt>
      <trkpt lat="44.59739" lon="3.91314">
        <ele>1085.726</ele>
        <time>2016-06-08T03:02:13Z</time>
      </trkpt>
      <trkpt lat="44.59709" lon="3.91312">
        <ele>1086.368</ele>
        <time>2016-06-08T03:02:33Z</time>
      </trkpt>
      <trkpt lat="44.59675" lon="3.91279">
        <ele>1085.942</ele>
        <time>2016-06-08T03:02:53Z</time>
      </trkpt>
      <trkpt lat="44.59598" lon="3.91177">
        <ele>1074.526</ele>
        <time>2016-06-08T03:03:13Z</time>
      </trkpt>
      <trkpt lat="44.59578" lon="3.9116">
        <ele>1071.608</ele>
        <time>2016-06-08T03:03:33Z</time>
      </trkpt>
      <trkpt lat="44.59524" lon="3.91096">
        <ele>1071.129</ele>
        <time>2016-06-08T03:03:53Z</time>
      </trkpt>
      <trkpt lat="44.59436" lon="3.9097">
        <ele>1063.49</ele>
        <time>2016-06-08T03:04:13Z</time>
      </trkpt>
      <trkpt lat="44.59394" lon="3.90924">
        <ele>1058.171</ele>
        <time>2016-06-08T03:04:33Z</time>
      </trkpt>
      <trkpt lat="44.59373" lon="3.90894">
        <ele>1055.749</ele>
        <time>2016-06-08T03:04:53Z</time>
      </trkpt>
      <trkpt lat="44.59325" lon="3.90828">
        <ele>1046.597</ele>
        <time>2016-06-08T03:05:13Z</time>
      </trkpt>
      <trkpt lat="44.59293" lon="3.90724">
        <ele>1033.219</ele>
        <time>2016-06-08T03:05:33Z</time>
      </trkpt>
      <trkpt lat="44.59287" lon="3.90671">
        <ele>1024.499</ele>
        <time>2016-06-08T03:05:53Z</time>
      </trkpt>
      <trkpt lat="44.59268" lon="3.90639">
        <ele>1019.66</ele>
        <time>2016-06-08T03:06:13Z</time>
      </trkpt>
      <trkpt lat="44.59237" lon="3.90608">
        <ele>1017.488</ele>
        <time>2016-06-08T03:06:33Z</time>
      </trkpt>
      <trkpt lat="44.59224" lon="3.9059">
        <ele>1016.324</ele>
        <time>2016-06-08T03:06:53Z</time>
      </trkpt>
      <trkpt lat="44.59179" lon="3.90581">
        <ele>1020.826</ele>
        <time>2016-06-08T03:07:13Z</time>
      </trkpt>
      <trkpt lat="44.59175" lon="3.90554">
        <ele>1021.408</ele>
        <time>2016-06-08T03:07:33Z</time>
      </trkpt>
      <trkpt lat="44.59198" lon="3.90456">
        <ele>1020.171</ele>
        <time>2016-06-08T03:07:53Z</time>
      </trkpt>
      <trkpt lat="44.59236" lon="3.90445">
        <ele>1020.532</ele>
        <time>2016-06-08T03:08:13Z</time>
      </trkpt>
      <trkpt lat="44.59332" lon="3.90466">
        <ele>1021.663</ele>
        <time>2016-06-08T03:08:33Z</time>
      </trkpt>
      <trkpt lat="44.59356" lon="3.90443">
        <ele>1024.181</ele>
        <time>2016-06-08T03:08:53Z</time>
      </trkpt>
      <trkpt lat="44.59441" lon="3.90415">
        <ele>1027.239</ele>
        <time>2016-06-08T03:09:13Z</time>
      </trkpt>
      <trkpt lat="44.59395" lon="3.90373">
        <ele>1031.061</ele>
        <time>2016-06-08T03:09:33Z</time>
      </trkpt>
      <trkpt lat="44.59397" lon="3.90287">
        <ele>1041.031</ele>
        <time>2016-06-08T03:09:53Z</time>
      </trkpt>
      <trkpt lat="44.5941" lon="3.90249">
        <ele>1046.892</ele>
        <time>2016-06-08T03:10:13Z</time>
      </trkpt>
      <trkpt lat="44.59402" lon="3.90239">
        <ele>1050.892</ele>
        <time>2016-06-08T03:10:33Z</time>
      </trkpt>
      <trkpt lat="44.59357" lon="3.90281">
        <ele>1050.573</ele>
        <time>2016-06-08T03:10:53Z</time>
      </trkpt>
      <trkpt lat="44.59314" lon="3.90267">
        <ele>1054.32</ele>
        <time>2016-06-08T03:11:13Z</time>
      </trkpt>
      <trkpt lat="44.59242" lon="3.90204">
        <ele>1068.108</ele>
        <time>2016-06-08T03:11:33Z</time>
      </trkpt>
      <trkpt lat="44.59166" lon="3.90163">
        <ele>1074.932</ele>
        <time>2016-06-08T03:11:53Z</time>
      </trkpt>
      <trkpt lat="44.5902" lon="3.90059">
        <ele>1082.123</ele>
        <time>2016-06-08T03:12:13Z</time>
      </trkpt>
      <trkpt lat="44.58952" lon="3.89996">
        <ele>1086.054</ele>
        <time>2016-06-08T03:12:33Z</time>
      </trkpt>
      <trkpt lat="44.58952" lon="3.89965">
        <ele>1086.632</ele>
        <time>2016-06-08T03:12:53Z</time>
      </trkpt>
      <trkpt lat="44.58999" lon="3.89913">
        <ele>1090.22</ele>
        <time>2016-06-08T03:13:13Z</time>
      </trkpt>
      <trkpt lat="44.59124" lon="3.89861">
        <ele>1107.072</ele>
        <time>2016-06-08T03:13:33Z</time>
      </trkpt>
      <trkpt lat="44.59221" lon="3.89847">
        <ele>1117.282</ele>
        <time>2016-06-08T03:13:53Z</time>
      </trkpt>
      <trkpt lat="44.59309" lon="3.89774">
        <ele>1126.083</ele>
        <time>2016-06-08T03:14:13Z</time>
      </trkpt>
      <trkpt lat="44.59376" lon="3.89699">
        <ele>1132.229</ele>
        <time>2016-06-08T03:14:33Z</time>
      </trkpt>
      <trkpt lat="44.59292" lon="3.89535">
        <ele>1142.8</ele>
        <time>2016-06-08T03:14:53Z</time>
      </trkpt>
      <trkpt lat="44.59268" lon="3.89449">
        <ele>1153.52</ele>
        <time>2016-06-08T03:15:13Z</time>
      </trkpt>
      <trkpt lat="44.59253" lon="3.89267">
        <ele>1164.608</ele>
        <time>2016-06-08T03:15:33Z</time>
      </trkpt>
      <trkpt lat="44.59259" lon="3.89184">
        <ele>1176.095</ele>
        <time>2016-06-08T03:15:53Z</time>
      </trkpt>
      <trkpt lat="44.59246" lon="3.89147">
        <ele>1179.786</ele>
        <time>2016-06-08T03:16:13Z</time>
      </trkpt>
      <trkpt lat="44.59195" lon="3.89058">
        <ele>1192.487</ele>
        <time>2016-06-08T03:16:33Z</time>
      </trkpt>
      <trkpt lat="44.59139" lon="3.88994">
        <ele>1197.375</ele>
        <time>2016-06-08T03:16:53Z</time>
      </trkpt>
      <trkpt lat="44.59028" lon="3.88916">
        <ele>1205.143</ele>
        <time>2016-06-08T03:17:13Z</time>
      </trkpt>
      <trkpt lat="44.58992" lon="3.88846">
        <ele>1207.675</ele>
        <time>2016-06-08T03:17:33Z</time>
      </trkpt>
      <trkpt lat="44.58986" lon="3.88752">
        <ele>1218.725</ele>
        <time>2016-06-08T03:17:53Z</time>
      </trkpt>
      <trkpt lat="44.5897" lon="3.88634">
        <ele>1236.466</ele>
        <time>2016-06-08T03:18:13Z</time>
      </trkpt>
      <trkpt lat="44.58942" lon="3.88562">
        <ele>1246.935</ele>
        <time>2016-06-08T03:18:33Z</time>
      </trkpt>
      <trkpt lat="44.58922" lon="3.88557">
        <ele>1244.686</ele>
        <time>2016-06-08T03:18:53Z</time>
      </trkpt>
      <trkpt lat="44.58894" lon="3.88587">
        <ele>1235.614</ele>
        <time>2016-06-08T03:19:13Z</time>
      </trkpt>
      <trkpt lat="44.58804" lon="3.88617">
        <ele>1246.908</ele>
        <time>2016-06-08T03:19:33Z</time>
      </trkpt>
      <trkpt lat="44.58776" lon="3.88604">
        <ele>1247.266</ele>
        <time>2016-06-08T03:19:53Z</time>
      </trkpt>
      <trkpt lat="44.58685" lon="3.88482">
        <ele>1273.067</ele>
        <time>2016-06-08T03:20:13Z</time>
      </trkpt>
      <trkpt lat="44.58668" lon="3.88485">
        <ele>1273.888</ele>
        <time>2016-06-08T03:20:33Z</time>
      </trkpt>
      <trkpt lat="44.58635" lon="3.88502">
        <ele>1270.096</ele>
        <time>2016-06-08T03:20:53Z</time>
      </trkpt>
      <trkpt lat="44.5859" lon="3.88483">
        <ele>1269.744</ele>
        <time>2016-06-08T03:21:13Z</time>
      </trkpt>
      <trkpt lat="44.58547" lon="3.88449">
        <ele>1272.536</ele>
        <time>2016-06-08T03:21:33Z</time>
      </trkpt>
      <trkpt lat="44.58538" lon="3.88414">
        <ele>1274.446</ele>
        <time>2016-06-08T03:21:53Z</time>
      </trkpt>
      <trkpt lat="44.58537" lon="3.88354">
        <ele>1277.757</ele>
        <time>2016-06-08T03:22:13Z</time>
      </trkpt>
      <trkpt lat="44.58523" lon="3.8825">
        <ele>1286.075</ele>
        <time>2016-06-08T03:22:33Z</time>
      </trkpt>
      <trkpt lat="44.58504" lon="3.8821">
        <ele>1286.028</ele>
        <time>2016-06-08T03:22:53Z</time>
      </trkpt>
      <trkpt lat="44.58363" lon="3.88079">
        <ele>1291.62</ele>
        <time>2016-06-08T03:23:13Z</time>
      </trkpt>
      <trkpt lat="44.58346" lon="3.88038">
        <ele>1295.208</ele>
        <time>2016-06-08T03:23:33Z</time>
      </trkpt>
      <trkpt lat="44.58345" lon="3.87982">
        <ele>1300.84</ele>
        <time>2016-06-08T03:23:53Z</time>
      </trkpt>
      <trkpt lat="44.58401" lon="3.87961">
        <ele>1305.441</ele>
        <time>2016-06-08T03:24:13Z</time>
      </trkpt>
      <trkpt lat="44.58458" lon="3.87923">
        <ele>1308.082</ele>
        <time>2016-06-08T03:24:33Z</time>
      </trkpt>
      <trkpt lat="44.58551" lon="3.87824">
        <ele>1309.38</ele>
        <time>2016-06-08T03:24:53Z</time>
      </trkpt>
      <trkpt lat="44.58611" lon="3.87485">
        <ele>1311.518</ele>
        <time>2016-06-08T03:25:13Z</time>
      </trkpt>
      <trkpt lat="44.58629" lon="3.87416">
        <ele>1311.25</ele>
        <time>2016-06-08T03:25:33Z</time>
      </trkpt>
      <trkpt lat="44.58634" lon="3.87271">
        <ele>1309.89</ele>
        <time>2016-06-08T03:25:53Z</time>
      </trkpt>
      <trkpt lat="44.58619" lon="3.87106">
        <ele>1307.241</ele>
        <time>2016-06-08T03:26:13Z</time>
      </trkpt>
      <trkpt lat="44.58594" lon="3.87021">
        <ele>1308.941</ele>
        <time>2016-06-08T03:26:33Z</time>
      </trkpt>
      <trkpt lat="44.58569" lon="3.8691">
        <ele>1307.681</ele>
        <time>2016-06-08T03:26:53Z</time>
      </trkpt>
      <trkpt lat="44.58524" lon="3.86793">
        <ele>1307.609</ele>
        <time>2016-06-08T03:27:13Z</time>
      </trkpt>
      <trkpt lat="44.58482" lon="3.86641">
        <ele>1306.708</ele>
        <time>2016-06-08T03:27:33Z</time>
      </trkpt>
      <trkpt lat="44.5854" lon="3.86422">
        <ele>1305.017</ele>
        <time>2016-06-08T03:27:53Z</time>
      </trkpt>
      <trkpt lat="44.58534" lon="3.8632">
        <ele>1308.398</ele>
        <time>2016-06-08T03:28:13Z</time>
      </trkpt>
      <trkpt lat="44.58538" lon="3.86193">
        <ele>1308.639</ele>
        <time>2016-06-08T03:28:33Z</time>
      </trkpt>
      <trkpt lat="44.58478" lon="3.86043">
        <ele>1298.947</ele>
        <time>2016-06-08T03:28:53Z</time>
      </trkpt>
      <trkpt lat="44.58437" lon="3.85965">
        <ele>1294.385</ele>
        <time>2016-06-08T03:29:13Z</time>
      </trkpt>
      <trkpt lat="44.58419" lon="3.85865">
        <ele>1289.117</ele>
        <time>2016-06-08T03:29:33Z</time>
      </trkpt>
      <trkpt lat="44.58357" lon="3.85727">
        <ele>1285.257</ele>
        <time>2016-06-08T03:29:53Z</time>
      </trkpt>
      <trkpt lat="44.58247" lon="3.85643">
        <ele>1288.328</ele>
        <time>2016-06-08T03:30:13Z</time>
      </trkpt>
      <trkpt lat="44.58186" lon="3.85524">
        <ele>1290.843</ele>
        <time>2016-06-08T03:30:33Z</time>
      </trkpt>
      <trkpt lat="44.58121" lon="3.85357">
        <ele>1298.364</ele>
        <time>2016-06-08T03:30:53Z</time>
      </trkpt>
      <trkpt lat="44.58052" lon="3.85209">
        <ele>1304.81</ele>
        <time>2016-06-08T03:31:13Z</time>
      </trkpt>
      <trkpt lat="44.58009" lon="3.85001">
        <ele>1306.708</ele>
        <time>2016-06-08T03:31:33Z</time>
      </trkpt>
      <trkpt lat="44.58001" lon="3.84877">
        <ele>1301.417</ele>
        <time>2016-06-08T03:31:53Z</time>
      </trkpt>
      <trkpt lat="44.57989" lon="3.84847">
        <ele>1302.298</ele>
        <time>2016-06-08T03:32:13Z</time>
      </trkpt>
      <trkpt lat="44.57935" lon="3.84779">
        <ele>1304.039</ele>
        <time>2016-06-08T03:32:33Z</time>
      </trkpt>
      <trkpt lat="44.57894" lon="3.84815">
        <ele>1304.177</ele>
        <time>2016-06-08T03:32:53Z</time>
      </trkpt>
      <trkpt lat="44.57837" lon="3.84846">
        <ele>1299.315</ele>
        <time>2016-06-08T03:33:13Z</time>
      </trkpt>
      <trkpt lat="44.57649" lon="3.84898">
        <ele>1281.567</ele>
        <time>2016-06-08T03:33:33Z</time>
      </trkpt>
      <trkpt lat="44.57611" lon="3.84894">
        <ele>1276.627</ele>
        <time>2016-06-08T03:33:53Z</time>
      </trkpt>
      <trkpt lat="44.57406" lon="3.84969">
        <ele>1257.948</ele>
        <time>2016-06-08T03:34:13Z</time>
      </trkpt>
      <trkpt lat="44.57316" lon="3.84966">
        <ele>1246.281</ele>
        <time>2016-06-08T03:34:33Z</time>
      </trkpt>
      <trkpt lat="44.57261" lon="3.84931">
        <ele>1239.161</ele>
        <time>2016-06-08T03:34:53Z</time>
      </trkpt>
      <trkpt lat="44.57121" lon="3.8477">
        <ele>1220.217</ele>
        <time>2016-06-08T03:35:13Z</time>
      </trkpt>
      <trkpt lat="44.56997" lon="3.84742">
        <ele>1205.808</ele>
        <time>2016-06-08T03:35:33Z</time>
      </trkpt>
      <trkpt lat="44.56866" lon="3.84664">
        <ele>1191.391</ele>
        <time>2016-06-08T03:35:53Z</time>
      </trkpt>
      <trkpt lat="44.56794" lon="3.84646">
        <ele>1183.782</ele>
        <time>2016-06-08T03:36:13Z</time>
      </trkpt>
      <trkpt lat="44.56744" lon="3.84654">
        <ele>1179.113</ele>
        <time>2016-06-08T03:36:33Z</time>
      </trkpt>
      <trkpt lat="44.5669" lon="3.84684">
        <ele>1171.511</ele>
        <time>2016-06-08T03:36:53Z</time>
      </trkpt>
      <trkpt lat="44.56593" lon="3.8482">
        <ele>1158.279</ele>
        <time>2016-06-08T03:37:13Z</time>
      </trkpt>
      <trkpt lat="44.56558" lon="3.84852">
        <ele>1153.241</ele>
        <time>2016-06-08T03:37:33Z</time>
      </trkpt>
      <trkpt lat="44.56525" lon="3.84916">
        <ele>1152.341</ele>
        <time>2016-06-08T03:37:53Z</time>
      </trkpt>
      <trkpt lat="44.56515" lon="3.84979">
        <ele>1149.282</ele>
        <time>2016-06-08T03:38:13Z</time>
      </trkpt>
      <trkpt lat="44.5655" lon="3.85083">
        <ele>1150.495</ele>
        <time>2016-06-08T03:38:33Z</time>
      </trkpt>
      <trkpt lat="44.5657" lon="3.85199">
        <ele>1141.949</ele>
        <time>2016-06-08T03:38:53Z</time>
      </trkpt>
      <trkpt lat="44.5657" lon="3.85265">
        <ele>1139.323</ele>
        <time>2016-06-08T03:39:13Z</time>
      </trkpt>
      <trkpt lat="44.56563" lon="3.85332">
        <ele>1139.508</ele>
        <time>2016-06-08T03:39:33Z</time>
      </trkpt>
      <trkpt lat="44.56547" lon="3.85298">
        <ele>1136.652</ele>
        <time>2016-06-08T03:39:53Z</time>
      </trkpt>
      <trkpt lat="44.5654" lon="3.85203">
        <ele>1135.093</ele>
        <time>2016-06-08T03:40:13Z</time>
      </trkpt>
      <trkpt lat="44.56506" lon="3.85122">
        <ele>1132.164</ele>
        <time>2016-06-08T03:40:33Z</time>
      </trkpt>
      <trkpt lat="44.5646" lon="3.85071">
        <ele>1124.872</ele>
        <time>2016-06-08T03:40:53Z</time>
      </trkpt>
      <trkpt lat="44.56386" lon="3.85041">
        <ele>1124.22</ele>
        <time>2016-06-08T03:41:13Z</time>
      </trkpt>
      <trkpt lat="44.56324" lon="3.85044">
        <ele>1133.192</ele>
        <time>2016-06-08T03:41:33Z</time>
      </trkpt>
      <trkpt lat="44.5629" lon="3.84988">
        <ele>1129.822</ele>
        <time>2016-06-08T03:41:53Z</time>
      </trkpt>
      <trkpt lat="44.5625" lon="3.84959">
        <ele>1134.083</ele>
        <time>2016-06-08T03:42:13Z</time>
      </trkpt>
      <trkpt lat="44.56195" lon="3.84938">
        <ele>1136.079</ele>
        <time>2016-06-08T03:42:33Z</time>
      </trkpt>
      <trkpt lat="44.56138" lon="3.84883">
        <ele>1133.105</ele>
        <time>2016-06-08T03:42:53Z</time>
      </trkpt>
      <trkpt lat="44.56071" lon="3.84833">
        <ele>1139.025</ele>
        <time>2016-06-08T03:43:13Z</time>
      </trkpt>
      <trkpt lat="44.56048" lon="3.84773">
        <ele>1145.108</ele>
        <time>2016-06-08T03:43:33Z</time>
      </trkpt>
      <trkpt lat="44.55987" lon="3.8472">
        <ele>1151.59</ele>
        <time>2016-06-08T03:43:53Z</time>
      </trkpt>
      <trkpt lat="44.5593" lon="3.84706">
        <ele>1154.991</ele>
        <time>2016-06-08T03:44:13Z</time>
      </trkpt>
      <trkpt lat="44.55868" lon="3.84704">
        <ele>1159.462</ele>
        <time>2016-06-08T03:44:33Z</time>
      </trkpt>
      <trkpt lat="44.55822" lon="3.84686">
        <ele>1163.37</ele>
        <time>2016-06-08T03:44:53Z</time>
      </trkpt>
      <trkpt lat="44.55771" lon="3.84643">
        <ele>1167.328</ele>
        <time>2016-06-08T03:45:13Z</time>
      </trkpt>
      <trkpt lat="44.55726" lon="3.84578">
        <ele>1168.69</ele>
        <time>2016-06-08T03:45:33Z</time>
      </trkpt>
      <trkpt lat="44.55709" lon="3.84532">
        <ele>1167.18</ele>
        <time>2016-06-08T03:45:53Z</time>
      </trkpt>
      <trkpt lat="44.55697" lon="3.84375">
        <ele>1168.271</ele>
        <time>2016-06-08T03:46:13Z</time>
      </trkpt>
      <trkpt lat="44.55666" lon="3.84187">
        <ele>1172.133</ele>
        <time>2016-06-08T03:46:33Z</time>
      </trkpt>
      <trkpt lat="44.55671" lon="3.84034">
        <ele>1177.223</ele>
        <time>2016-06-08T03:46:53Z</time>
      </trkpt>
      <trkpt lat="44.55671" lon="3.84034">
        <ele>1177.215</ele>
        <time>2016-06-08T03:47:13Z</time>
      </trkpt>
      <trkpt lat="44.55641" lon="3.83917">
        <ele>1173.208</ele>
        <time>2016-06-08T03:47:33Z</time>
      </trkpt>
      <trkpt lat="44.55624" lon="3.83875">
        <ele>1172.726</ele>
        <time>2016-06-08T03:47:53Z</time>
      </trkpt>
      <trkpt lat="44.55559" lon="3.83839">
        <ele>1171.087</ele>
        <time>2016-06-08T03:48:13Z</time>
      </trkpt>
      <trkpt lat="44.5545" lon="3.83939">
        <ele>1172.488</ele>
        <time>2016-06-08T03:48:33Z</time>
      </trkpt>
      <trkpt lat="44.55278" lon="3.83514">
        <ele>1168.056</ele>
        <time>2016-06-08T03:48:53Z</time>
      </trkpt>
      <trkpt lat="44.55203" lon="3.83474">
        <ele>1167.484</ele>
        <time>2016-06-08T03:49:13Z</time>
      </trkpt>
      <trkpt lat="44.55183" lon="3.83436">
        <ele>1163.696</ele>
        <time>2016-06-08T03:49:33Z</time>
      </trkpt>
      <trkpt lat="44.55181" lon="3.83353">
        <ele>1160.556</ele>
        <time>2016-06-08T03:49:53Z</time>
      </trkpt>
      <trkpt lat="44.55159" lon="3.83305">
        <ele>1160.757</ele>
        <time>2016-06-08T03:50:13Z</time>
      </trkpt>
      <trkpt lat="44.55115" lon="3.83273">
        <ele>1164.411</ele>
        <time>2016-06-08T03:50:33Z</time>
      </trkpt>
      <trkpt lat="44.55044" lon="3.83256">
        <ele>1163.721</ele>
        <time>2016-06-08T03:50:53Z</time>
      </trkpt>
      <trkpt lat="44.55006" lon="3.83221">
        <ele>1163.503</ele>
        <time>2016-06-08T03:51:13Z</time>
      </trkpt>
      <trkpt lat="44.54992" lon="3.83173">
        <ele>1164.508</ele>
        <time>2016-06-08T03:51:33Z</time>
      </trkpt>
      <trkpt lat="44.54976" lon="3.82944">
        <ele>1165.474</ele>
        <time>2016-06-08T03:51:53Z</time>
      </trkpt>
      <trkpt lat="44.5509" lon="3.82619">
        <ele>1163.695</ele>
        <time>2016-06-08T03:52:13Z</time>
      </trkpt>
      <trkpt lat="44.55088" lon="3.82587">
        <ele>1164.316</ele>
        <time>2016-06-08T03:52:33Z</time>
      </trkpt>
      <trkpt lat="44.55069" lon="3.82564">
        <ele>1165.584</ele>
        <time>2016-06-08T03:52:53Z</time>
      </trkpt>
      <trkpt lat="44.55087" lon="3.82554">
        <ele>1167.452</ele>
        <time>2016-06-08T03:53:13Z</time>
      </trkpt>
      <trkpt lat="44.55115" lon="3.82556">
        <ele>1169.474</ele>
        <time>2016-06-08T03:53:33Z</time>
      </trkpt>
      <trkpt lat="44.55111" lon="3.82517">
        <ele>1174.184</ele>
        <time>2016-06-08T03:53:53Z</time>
      </trkpt>
      <trkpt lat="44.55117" lon="3.82498">
        <ele>1176.455</ele>
        <time>2016-06-08T03:54:13Z</time>
      </trkpt>
      <trkpt lat="44.55122" lon="3.82456">
        <ele>1178.156</ele>
        <time>2016-06-08T03:54:33Z</time>
      </trkpt>
      <trkpt lat="44.55108" lon="3.82416">
        <ele>1178.959</ele>
        <time>2016-06-08T03:54:53Z</time>
      </trkpt>
      <trkpt lat="44.55099" lon="3.82324">
        <ele>1180.114</ele>
        <time>2016-06-08T03:55:13Z</time>
      </trkpt>
      <trkpt lat="44.55092" lon="3.82137">
        <ele>1167.008</ele>
        <time>2016-06-08T03:55:33Z</time>
      </trkpt>
      <trkpt lat="44.551" lon="3.82039">
        <ele>1159.858</ele>
        <time>2016-06-08T03:55:53Z</time>
      </trkpt>
      <trkpt lat="44.55091" lon="3.81948">
        <ele>1155.529</ele>
        <time>2016-06-08T03:56:13Z</time>
      </trkpt>
      <trkpt lat="44.55075" lon="3.81911">
        <ele>1152.05</ele>
        <time>2016-06-08T03:56:33Z</time>
      </trkpt>
      <trkpt lat="44.55075" lon="3.81911">
        <ele>1152.028</ele>
        <time>2016-06-08T03:56:53Z</time>
      </trkpt>
      <trkpt lat="44.54955" lon="3.81755">
        <ele>1134.886</ele>
        <time>2016-06-08T03:57:13Z</time>
      </trkpt>
      <trkpt lat="44.54937" lon="3.81643">
        <ele>1122.038</ele>
        <time>2016-06-08T03:57:33Z</time>
      </trkpt>
      <trkpt lat="44.54948" lon="3.81614">
        <ele>1121.838</ele>
        <time>2016-06-08T03:57:53Z</time>
      </trkpt>
      <trkpt lat="44.54923" lon="3.81603">
        <ele>1115.659</ele>
        <time>2016-06-08T03:58:13Z</time>
      </trkpt>
      <trkpt lat="44.54917" lon="3.8158">
        <ele>1112.633</ele>
        <time>2016-06-08T03:58:33Z</time>
      </trkpt>
      <trkpt lat="44.54948" lon="3.81561">
        <ele>1113.823</ele>
        <time>2016-06-08T03:58:53Z</time>
      </trkpt>
      <trkpt lat="44.54981" lon="3.81557">
        <ele>1114.215</ele>
        <time>2016-06-08T03:59:13Z</time>
      </trkpt>
      <trkpt lat="44.54972" lon="3.8154">
        <ele>1111.908</ele>
        <time>2016-06-08T03:59:33Z</time>
      </trkpt>
      <trkpt lat="44.54912" lon="3.81528">
        <ele>1103.426</ele>
        <time>2016-06-08T03:59:53Z</time>
      </trkpt>
      <trkpt lat="44.5485" lon="3.81454">
        <ele>1094.657</ele>
        <time>2016-06-08T04:00:13Z</time>
      </trkpt>
      <trkpt lat="44.5481" lon="3.81473">
        <ele>1094.818</ele>
        <time>2016-06-08T04:00:33Z</time>
      </trkpt>
      <trkpt lat="44.54794" lon="3.81514">
        <ele>1096.636</ele>
        <time>2016-06-08T04:00:53Z</time>
      </trkpt>
      <trkpt lat="44.54745" lon="3.81542">
        <ele>1099.954</ele>
        <time>2016-06-08T04:01:13Z</time>
      </trkpt>
      <trkpt lat="44.54693" lon="3.8151">
        <ele>1106.256</ele>
        <time>2019-03-26T00:19:31Z</time>
      </trkpt>
      <trkpt lat="44.54642" lon="3.81517">
        <ele>1107.046</ele>
        <time>2019-03-26T00:19:51Z</time>
      </trkpt>
      <trkpt lat="44.54592" lon="3.81506">
        <ele>1114.017</ele>
        <time>2019-03-26T00:20:11Z</time>
      </trkpt>
      <trkpt lat="44.54569" lon="3.81472">
        <ele>1119.177</ele>
        <time>2019-03-26T00:20:31Z</time>
      </trkpt>
      <trkpt lat="44.54511" lon="3.81424">
        <ele>1125.861</ele>
        <time>2019-03-26T00:20:51Z</time>
      </trkpt>
      <trkpt lat="44.5448" lon="3.81381">
        <ele>1128.727</ele>
        <time>2019-03-26T00:21:11Z</time>
      </trkpt>
      <trkpt lat="44.54501" lon="3.81315">
        <ele>1127.908</ele>
        <time>2016-06-08T04:04:13Z</time>
      </trkpt>
      <trkpt lat="44.54511" lon="3.81298">
        <ele>1127.08</ele>
        <time>2016-06-08T04:04:33Z</time>
      </trkpt>
      <trkpt lat="44.54502" lon="3.81243">
        <ele>1121.911</ele>
        <time>2016-06-08T04:04:53Z</time>
      </trkpt>
      <trkpt lat="44.54454" lon="3.81167">
        <ele>1112.772</ele>
        <time>2016-06-08T04:05:13Z</time>
      </trkpt>
      <trkpt lat="44.54379" lon="3.81134">
        <ele>1112.56</ele>
        <time>2016-06-08T04:05:33Z</time>
      </trkpt>
      <trkpt lat="44.54371" lon="3.81111">
        <ele>1111.648</ele>
        <time>2016-06-08T04:05:53Z</time>
      </trkpt>
      <trkpt lat="44.54386" lon="3.81083">
        <ele>1112.03</ele>
        <time>2016-06-08T04:06:13Z</time>
      </trkpt>
      <trkpt lat="44.54507" lon="3.80976">
        <ele>1126.29</ele>
        <time>2016-06-08T04:06:33Z</time>
      </trkpt>
      <trkpt lat="44.54514" lon="3.8094">
        <ele>1127.771</ele>
        <time>2016-06-08T04:06:53Z</time>
      </trkpt>
      <trkpt lat="44.54514" lon="3.80873">
        <ele>1130.532</ele>
        <time>2016-06-08T04:07:13Z</time>
      </trkpt>
      <trkpt lat="44.54535" lon="3.80705">
        <ele>1129.692</ele>
        <time>2016-06-08T04:07:33Z</time>
      </trkpt>
      <trkpt lat="44.54535" lon="3.80585">
        <ele>1127.311</ele>
        <time>2016-06-08T04:07:53Z</time>
      </trkpt>
      <trkpt lat="44.54513" lon="3.80499">
        <ele>1129.008</ele>
        <time>2016-06-08T04:08:13Z</time>
      </trkpt>
      <trkpt lat="44.54466" lon="3.80418">
        <ele>1133.076</ele>
        <time>2016-06-08T04:08:33Z</time>
      </trkpt>
      <trkpt lat="44.54423" lon="3.80378">
        <ele>1134.517</ele>
        <time>2016-06-08T04:08:53Z</time>
      </trkpt>
      <trkpt lat="44.54364" lon="3.80351">
        <ele>1138.768</ele>
        <time>2016-06-08T04:09:13Z</time>
      </trkpt>
      <trkpt lat="44.54302" lon="3.80332">
        <ele>1144.576</ele>
        <time>2016-06-08T04:09:33Z</time>
      </trkpt>
      <trkpt lat="44.54282" lon="3.80313">
        <ele>1144.154</ele>
        <time>2016-06-08T04:09:53Z</time>
      </trkpt>
      <trkpt lat="44.54224" lon="3.80286">
        <ele>1141.786</ele>
        <time>2016-06-08T04:10:13Z</time>
      </trkpt>
      <trkpt lat="44.5418" lon="3.80279">
        <ele>1143.796</ele>
        <time>2016-06-08T04:10:33Z</time>
      </trkpt>
      <trkpt lat="44.54106" lon="3.80282">
        <ele>1149.077</ele>
        <time>2016-06-08T04:10:53Z</time>
      </trkpt>
      <trkpt lat="44.54042" lon="3.80198">
        <ele>1155.962</ele>
        <time>2016-06-08T04:11:13Z</time>
      </trkpt>
      <trkpt lat="44.54037" lon="3.80149">
        <ele>1156.283</ele>
        <time>2016-06-08T04:11:33Z</time>
      </trkpt>
      <trkpt lat="44.54003" lon="3.80064">
        <ele>1163.611</ele>
        <time>2016-06-08T04:11:53Z</time>
      </trkpt>
      <trkpt lat="44.53998" lon="3.80011">
        <ele>1164.508</ele>
        <time>2016-06-08T04:12:13Z</time>
      </trkpt>
      <trkpt lat="44.54011" lon="3.79982">
        <ele>1167.719</ele>
        <time>2016-06-08T04:12:33Z</time>
      </trkpt>
      <trkpt lat="44.5404" lon="3.7999">
        <ele>1168.88</ele>
        <time>2016-06-08T04:12:53Z</time>
      </trkpt>
      <trkpt lat="44.5409" lon="3.80058">
        <ele>1164.741</ele>
        <time>2016-06-08T04:13:13Z</time>
      </trkpt>
      <trkpt lat="44.54108" lon="3.80054">
        <ele>1166.219</ele>
        <time>2016-06-08T04:13:33Z</time>
      </trkpt>
      <trkpt lat="44.54145" lon="3.79989">
        <ele>1173.147</ele>
        <time>2016-06-08T04:13:53Z</time>
      </trkpt>
      <trkpt lat="44.54147" lon="3.79927">
        <ele>1174.669</ele>
        <time>2016-06-08T04:14:13Z</time>
      </trkpt>
      <trkpt lat="44.54126" lon="3.79862">
        <ele>1178.949</ele>
        <time>2016-06-08T04:14:33Z</time>
      </trkpt>
      <trkpt lat="44.54086" lon="3.79792">
        <ele>1181.37</ele>
        <time>2016-06-08T04:14:53Z</time>
      </trkpt>
      <trkpt lat="44.54058" lon="3.797">
        <ele>1188.711</ele>
        <time>2016-06-08T04:15:13Z</time>
      </trkpt>
      <trkpt lat="44.54029" lon="3.79694">
        <ele>1191.821</ele>
        <time>2016-06-08T04:15:33Z</time>
      </trkpt>
      <trkpt lat="44.53957" lon="3.79764">
        <ele>1194.903</ele>
        <time>2016-06-08T04:15:53Z</time>
      </trkpt>
      <trkpt lat="44.53925" lon="3.79781">
        <ele>1197.608</ele>
        <time>2016-06-08T04:16:13Z</time>
      </trkpt>
      <trkpt lat="44.5392" lon="3.79717">
        <ele>1202.294</ele>
        <time>2016-06-08T04:16:33Z</time>
      </trkpt>
      <trkpt lat="44.53886" lon="3.79656">
        <ele>1205.475</ele>
        <time>2016-06-08T04:16:53Z</time>
      </trkpt>
      <trkpt lat="44.53886" lon="3.79656">
        <ele>1205.496</ele>
        <time>2016-06-08T04:17:13Z</time>
      </trkpt>
      <trkpt lat="44.53831" lon="3.79613">
        <ele>1219.144</ele>
        <time>2016-06-08T04:17:33Z</time>
      </trkpt>
      <trkpt lat="44.53738" lon="3.79519">
        <ele>1244.612</ele>
        <time>2016-06-08T04:17:53Z</time>
      </trkpt>
      <trkpt lat="44.53725" lon="3.79495">
        <ele>1244.514</ele>
        <time>2016-06-08T04:18:13Z</time>
      </trkpt>
      <trkpt lat="44.53596" lon="3.79435">
        <ele>1270.884</ele>
        <time>2016-06-08T04:18:33Z</time>
      </trkpt>
      <trkpt lat="44.53442" lon="3.79474">
        <ele>1307.825</ele>
        <time>2016-06-08T04:18:53Z</time>
      </trkpt>
      <trkpt lat="44.53388" lon="3.79482">
        <ele>1324.389</ele>
        <time>2016-06-08T04:19:13Z</time>
      </trkpt>
      <trkpt lat="44.53357" lon="3.79428">
        <ele>1330.406</ele>
        <time>2016-06-08T04:19:33Z</time>
      </trkpt>
      <trkpt lat="44.53348" lon="3.7945">
        <ele>1334.226</ele>
        <time>2016-06-08T04:19:53Z</time>
      </trkpt>
      <trkpt lat="44.53357" lon="3.79511">
        <ele>1336.708</ele>
        <time>2016-06-08T04:20:13Z</time>
      </trkpt>
      <trkpt lat="44.53426" lon="3.79593">
        <ele>1340.781</ele>
        <time>2016-06-08T04:20:33Z</time>
      </trkpt>
      <trkpt lat="44.53451" lon="3.79651">
        <ele>1345.482</ele>
        <time>2016-06-08T04:20:53Z</time>
      </trkpt>
      <trkpt lat="44.53425" lon="3.79617">
        <ele>1345.793</ele>
        <time>2016-06-08T04:21:13Z</time>
      </trkpt>
      <trkpt lat="44.53371" lon="3.79594">
        <ele>1350.751</ele>
        <time>2016-06-08T04:21:33Z</time>
      </trkpt>
      <trkpt lat="44.5333" lon="3.79564">
        <ele>1355.269</ele>
        <time>2016-06-08T04:21:53Z</time>
      </trkpt>
      <trkpt lat="44.53257" lon="3.79463">
        <ele>1364.281</ele>
        <time>2016-06-08T04:22:13Z</time>
      </trkpt>
      <trkpt lat="44.53212" lon="3.79377">
        <ele>1371.721</ele>
        <time>2016-06-08T04:22:33Z</time>
      </trkpt>
      <trkpt lat="44.53208" lon="3.79336">
        <ele>1373.412</ele>
        <time>2016-06-08T04:22:53Z</time>
      </trkpt>
      <trkpt lat="44.53233" lon="3.79287">
        <ele>1372.219</ele>
        <time>2016-06-08T04:23:13Z</time>
      </trkpt>
      <trkpt lat="44.53252" lon="3.79201">
        <ele>1377.009</ele>
        <time>2016-06-08T04:23:33Z</time>
      </trkpt>
      <trkpt lat="44.53252" lon="3.79122">
        <ele>1381.019</ele>
        <time>2016-06-08T04:23:53Z</time>
      </trkpt>
      <trkpt lat="44.53245" lon="3.78968">
        <ele>1385.508</ele>
        <time>2016-06-08T04:24:13Z</time>
      </trkpt>
      <trkpt lat="44.53232" lon="3.78898">
        <ele>1391.324</ele>
        <time>2016-06-08T04:24:33Z</time>
      </trkpt>
      <trkpt lat="44.53234" lon="3.7881">
        <ele>1396.255</ele>
        <time>2016-06-08T04:24:53Z</time>
      </trkpt>
      <trkpt lat="44.53222" lon="3.78738">
        <ele>1396.146</ele>
        <time>2016-06-08T04:25:13Z</time>
      </trkpt>
      <trkpt lat="44.53198" lon="3.78701">
        <ele>1399.664</ele>
        <time>2016-06-08T04:25:33Z</time>
      </trkpt>
      <trkpt lat="44.5313" lon="3.78641">
        <ele>1406.462</ele>
        <time>2016-06-08T04:25:53Z</time>
      </trkpt>
      <trkpt lat="44.53069" lon="3.7859">
        <ele>1410.444</ele>
        <time>2016-06-08T04:26:13Z</time>
      </trkpt>
      <trkpt lat="44.53014" lon="3.78517">
        <ele>1413.594</ele>
        <time>2016-06-08T04:26:33Z</time>
      </trkpt>
      <trkpt lat="44.52993" lon="3.78534">
        <ele>1411.625</ele>
        <time>2016-06-08T04:26:53Z</time>
      </trkpt>
      <trkpt lat="44.52961" lon="3.78596">
        <ele>1410.182</ele>
        <time>2016-06-08T04:27:13Z</time>
      </trkpt>
      <trkpt lat="44.52863" lon="3.7872">
        <ele>1402.243</ele>
        <time>2016-06-08T04:27:33Z</time>
      </trkpt>
      <trkpt lat="44.52832" lon="3.78806">
        <ele>1401.717</ele>
        <time>2016-06-08T04:27:53Z</time>
      </trkpt>
      <trkpt lat="44.52812" lon="3.78876">
        <ele>1398.808</ele>
        <time>2016-06-08T04:28:13Z</time>
      </trkpt>
      <trkpt lat="44.52782" lon="3.78931">
        <ele>1396.071</ele>
        <time>2016-06-08T04:28:33Z</time>
      </trkpt>
      <trkpt lat="44.52743" lon="3.78976">
        <ele>1391.862</ele>
        <time>2016-06-08T04:28:53Z</time>
      </trkpt>
      <trkpt lat="44.52689" lon="3.78996">
        <ele>1391.993</ele>
        <time>2016-06-08T04:29:13Z</time>
      </trkpt>
      <trkpt lat="44.52615" lon="3.79001">
        <ele>1394.211</ele>
        <time>2016-06-08T04:29:33Z</time>
      </trkpt>
      <trkpt lat="44.52549" lon="3.79031">
        <ele>1392.479</ele>
        <time>2016-06-08T04:29:53Z</time>
      </trkpt>
      <trkpt lat="44.52482" lon="3.79086">
        <ele>1390.781</ele>
        <time>2016-06-08T04:30:13Z</time>
      </trkpt>
      <trkpt lat="44.52446" lon="3.79139">
        <ele>1389.251</ele>
        <time>2016-06-08T04:30:33Z</time>
      </trkpt>
      <trkpt lat="44.52374" lon="3.79337">
        <ele>1385.472</ele>
        <time>2016-06-08T04:30:53Z</time>
      </trkpt>
      <trkpt lat="44.52368" lon="3.79395">
        <ele>1386.128</ele>
        <time>2016-06-08T04:31:13Z</time>
      </trkpt>
      <trkpt lat="44.52343" lon="3.79503">
        <ele>1384.689</ele>
        <time>2016-06-08T04:31:33Z</time>
      </trkpt>
      <trkpt lat="44.52305" lon="3.79595">
        <ele>1374.417</ele>
        <time>2016-06-08T04:31:53Z</time>
      </trkpt>
      <trkpt lat="44.52271" lon="3.79638">
        <ele>1367.508</ele>
        <time>2016-06-08T04:32:13Z</time>
      </trkpt>
      <trkpt lat="44.52187" lon="3.79623">
        <ele>1354.585</ele>
        <time>2016-06-08T04:32:33Z</time>
      </trkpt>
      <trkpt lat="44.52085" lon="3.79586">
        <ele>1335.796</ele>
        <time>2016-06-08T04:32:53Z</time>
      </trkpt>
      <trkpt lat="44.52037" lon="3.79581">
        <ele>1328.527</ele>
        <time>2016-06-08T04:33:13Z</time>
      </trkpt>
      <trkpt lat="44.51956" lon="3.79614">
        <ele>1314.775</ele>
        <time>2016-06-08T04:33:33Z</time>
      </trkpt>
      <trkpt lat="44.5189" lon="3.79684">
        <ele>1300.933</ele>
        <time>2016-06-08T04:33:53Z</time>
      </trkpt>
      <trkpt lat="44.51778" lon="3.79763">
        <ele>1283.925</ele>
        <time>2016-06-08T04:34:13Z</time>
      </trkpt>
      <trkpt lat="44.51778" lon="3.79763">
        <ele>1283.915</ele>
        <time>2016-06-08T04:34:33Z</time>
      </trkpt>
      <trkpt lat="44.51706" lon="3.79806">
        <ele>1274.656</ele>
        <time>2016-06-08T04:34:53Z</time>
      </trkpt>
      <trkpt lat="44.51663" lon="3.79778">
        <ele>1259.289</ele>
        <time>2016-06-08T04:35:13Z</time>
      </trkpt>
      <trkpt lat="44.51684" lon="3.7974">
        <ele>1257.106</ele>
        <time>2016-06-08T04:35:33Z</time>
      </trkpt>
      <trkpt lat="44.51711" lon="3.79684">
        <ele>1254.626</ele>
        <time>2016-06-08T04:35:53Z</time>
      </trkpt>
      <trkpt lat="44.51748" lon="3.79631">
        <ele>1257.108</ele>
        <time>2016-06-08T04:36:13Z</time>
      </trkpt>
      <trkpt lat="44.51778" lon="3.7952">
        <ele>1256.041</ele>
        <time>2016-06-08T04:36:33Z</time>
      </trkpt>
      <trkpt lat="44.51804" lon="3.7948">
        <ele>1255.672</ele>
        <time>2016-06-08T04:36:53Z</time>
      </trkpt>
      <trkpt lat="44.51809" lon="3.79424">
        <ele>1255.823</ele>
        <time>2016-06-08T04:37:13Z</time>
      </trkpt>
      <trkpt lat="44.5182" lon="3.7936">
        <ele>1261.681</ele>
        <time>2016-06-08T04:37:33Z</time>
      </trkpt>
      <trkpt lat="44.5181" lon="3.7935">
        <ele>1264.859</ele>
        <time>2016-06-08T04:37:53Z</time>
      </trkpt>
      <trkpt lat="44.51718" lon="3.79452">
        <ele>1274.351</ele>
        <time>2016-06-08T04:38:13Z</time>
      </trkpt>
      <trkpt lat="44.51779" lon="3.79331">
        <ele>1278.871</ele>
        <time>2016-06-08T04:38:33Z</time>
      </trkpt>
      <trkpt lat="44.51829" lon="3.79205">
        <ele>1289.232</ele>
        <time>2016-06-08T04:38:53Z</time>
      </trkpt>
      <trkpt lat="44.51861" lon="3.79111">
        <ele>1287.129</ele>
        <time>2016-06-08T04:39:13Z</time>
      </trkpt>
      <trkpt lat="44.51881" lon="3.79019">
        <ele>1294.7</ele>
        <time>2016-06-08T04:39:33Z</time>
      </trkpt>
      <trkpt lat="44.51861" lon="3.78946">
        <ele>1306.82</ele>
        <time>2016-06-08T04:39:53Z</time>
      </trkpt>
      <trkpt lat="44.51873" lon="3.78942">
        <ele>1306.708</ele>
        <time>2016-06-08T04:40:13Z</time>
      </trkpt>
      <trkpt lat="44.5191" lon="3.78958">
        <ele>1301.285</ele>
        <time>2016-06-08T04:40:33Z</time>
      </trkpt>
      <trkpt lat="44.51932" lon="3.78948">
        <ele>1301.896</ele>
        <time>2016-06-08T04:40:53Z</time>
      </trkpt>
      <trkpt lat="44.5197" lon="3.78887">
        <ele>1307.717</ele>
        <time>2016-06-08T04:41:13Z</time>
      </trkpt>
      <trkpt lat="44.52022" lon="3.78783">
        <ele>1307.665</ele>
        <time>2016-06-08T04:41:33Z</time>
      </trkpt>
      <trkpt lat="44.52061" lon="3.78673">
        <ele>1313.983</ele>
        <time>2016-06-08T04:41:53Z</time>
      </trkpt>
      <trkpt lat="44.52074" lon="3.78613">
        <ele>1318.925</ele>
        <time>2016-06-08T04:42:13Z</time>
      </trkpt>
      <trkpt lat="44.52104" lon="3.78541">
        <ele>1317.255</ele>
        <time>2016-06-08T04:42:33Z</time>
      </trkpt>
      <trkpt lat="44.52139" lon="3.78433">
        <ele>1320.496</ele>
        <time>2016-06-08T04:42:53Z</time>
      </trkpt>
      <trkpt lat="44.52145" lon="3.78393">
        <ele>1322.839</ele>
        <time>2016-06-08T04:43:13Z</time>
      </trkpt>
      <trkpt lat="44.52072" lon="3.78504">
        <ele>1331.701</ele>
        <time>2016-06-08T04:43:33Z</time>
      </trkpt>
      <trkpt lat="44.5199" lon="3.78593">
        <ele>1345.021</ele>
        <time>2016-06-08T04:43:53Z</time>
      </trkpt>
      <trkpt lat="44.5188" lon="3.78679">
        <ele>1354.708</ele>
        <time>2016-06-08T04:44:13Z</time>
      </trkpt>
      <trkpt lat="44.51829" lon="3.78692">
        <ele>1358.476</ele>
        <time>2016-06-08T04:44:33Z</time>
      </trkpt>
      <trkpt lat="44.51776" lon="3.7868">
        <ele>1361.047</ele>
        <time>2016-06-08T04:44:53Z</time>
      </trkpt>
      <trkpt lat="44.51708" lon="3.78648">
        <ele>1363.968</ele>
        <time>2016-06-08T04:45:13Z</time>
      </trkpt>
      <trkpt lat="44.51599" lon="3.78634">
        <ele>1366.466</ele>
        <time>2016-06-08T04:45:33Z</time>
      </trkpt>
      <trkpt lat="44.51499" lon="3.78592">
        <ele>1362.014</ele>
        <time>2016-06-08T04:45:53Z</time>
      </trkpt>
      <trkpt lat="44.51521" lon="3.78562">
        <ele>1363.366</ele>
        <time>2016-06-08T04:46:13Z</time>
      </trkpt>
      <trkpt lat="44.51495" lon="3.78497">
        <ele>1356.376</ele>
        <time>2016-06-08T04:46:33Z</time>
      </trkpt>
      <trkpt lat="44.51491" lon="3.78438">
        <ele>1351.057</ele>
        <time>2016-06-08T04:46:53Z</time>
      </trkpt>
      <trkpt lat="44.51491" lon="3.78438">
        <ele>1351.018</ele>
        <time>2016-06-08T04:47:13Z</time>
      </trkpt>
      <trkpt lat="44.51444" lon="3.78257">
        <ele>1325.798</ele>
        <time>2016-06-08T04:47:33Z</time>
      </trkpt>
      <trkpt lat="44.51395" lon="3.78223">
        <ele>1317.017</ele>
        <time>2016-06-08T04:47:53Z</time>
      </trkpt>
      <trkpt lat="44.51263" lon="3.78136">
        <ele>1316.808</ele>
        <time>2016-06-08T04:48:13Z</time>
      </trkpt>
      <trkpt lat="44.5125" lon="3.78115">
        <ele>1313.994</ele>
        <time>2016-06-08T04:48:33Z</time>
      </trkpt>
      <trkpt lat="44.51142" lon="3.77975">
        <ele>1304.035</ele>
        <time>2016-06-08T04:48:53Z</time>
      </trkpt>
      <trkpt lat="44.51098" lon="3.77957">
        <ele>1300.636</ele>
        <time>2016-06-08T04:49:13Z</time>
      </trkpt>
      <trkpt lat="44.50991" lon="3.77774">
        <ele>1277.354</ele>
        <time>2016-06-08T04:49:33Z</time>
      </trkpt>
      <trkpt lat="44.51081" lon="3.7776">
        <ele>1269.692</ele>
        <time>2016-06-08T04:49:53Z</time>
      </trkpt>
      <trkpt lat="44.51226" lon="3.77783">
        <ele>1262.174</ele>
        <time>2016-06-08T04:50:13Z</time>
      </trkpt>
      <trkpt lat="44.5126" lon="3.77773">
        <ele>1257.494</ele>
        <time>2016-06-08T04:50:33Z</time>
      </trkpt>
      <trkpt lat="44.51268" lon="3.77754">
        <ele>1255.135</ele>
        <time>2016-06-08T04:50:53Z</time>
      </trkpt>
      <trkpt lat="44.51226" lon="3.7766">
        <ele>1243.859</ele>
        <time>2016-06-08T04:51:13Z</time>
      </trkpt>
      <trkpt lat="44.51135" lon="3.77548">
        <ele>1231.403</ele>
        <time>2016-06-08T04:51:33Z</time>
      </trkpt>
      <trkpt lat="44.51027" lon="3.77503">
        <ele>1226.723</ele>
        <time>2016-06-08T04:51:53Z</time>
      </trkpt>
      <trkpt lat="44.50987" lon="3.77454">
        <ele>1226.808</ele>
        <time>2016-06-08T04:52:13Z</time>
      </trkpt>
      <trkpt lat="44.50952" lon="3.77355">
        <ele>1219.518</ele>
        <time>2016-06-08T04:52:33Z</time>
      </trkpt>
      <trkpt lat="44.50939" lon="3.77221">
        <ele>1213.759</ele>
        <time>2016-06-08T04:52:53Z</time>
      </trkpt>
      <trkpt lat="44.50895" lon="3.77085">
        <ele>1200.85</ele>
        <time>2016-06-08T04:53:13Z</time>
      </trkpt>
      <trkpt lat="44.50837" lon="3.76997">
        <ele>1197.728</ele>
        <time>2016-06-08T04:53:33Z</time>
      </trkpt>
      <trkpt lat="44.50707" lon="3.76919">
        <ele>1186.526</ele>
        <time>2016-06-08T04:53:53Z</time>
      </trkpt>
      <trkpt lat="44.50561" lon="3.76869">
        <ele>1171.358</ele>
        <time>2016-06-08T04:54:13Z</time>
      </trkpt>
      <trkpt lat="44.50473" lon="3.76853">
        <ele>1171.058</ele>
        <time>2016-06-08T04:54:33Z</time>
      </trkpt>
      <trkpt lat="44.50356" lon="3.76764">
        <ele>1164.279</ele>
        <time>2016-06-08T04:54:53Z</time>
      </trkpt>
      <trkpt lat="44.50228" lon="3.76741">
        <ele>1159.293</ele>
        <time>2016-06-08T04:55:13Z</time>
      </trkpt>
      <trkpt lat="44.50196" lon="3.76722">
        <ele>1154.265</ele>
        <time>2016-06-08T04:55:33Z</time>
      </trkpt>
      <trkpt lat="44.50131" lon="3.76657">
        <ele>1150.321</ele>
        <time>2016-06-08T04:55:53Z</time>
      </trkpt>
      <trkpt lat="44.50092" lon="3.76655">
        <ele>1154.608</ele>
        <time>2016-06-08T04:56:13Z</time>
      </trkpt>
      <trkpt lat="44.50006" lon="3.76636">
        <ele>1163.032</ele>
        <time>2016-06-08T04:56:33Z</time>
      </trkpt>
      <trkpt lat="44.49939" lon="3.76631">
        <ele>1169.553</ele>
        <time>2016-06-08T04:56:53Z</time>
      </trkpt>
      <trkpt lat="44.49858" lon="3.7664">
        <ele>1172.824</ele>
        <time>2016-06-08T04:57:13Z</time>
      </trkpt>
      <trkpt lat="44.4979" lon="3.76658">
        <ele>1173.322</ele>
        <time>2016-06-08T04:57:33Z</time>
      </trkpt>
      <trkpt lat="44.49722" lon="3.76657">
        <ele>1179.46</ele>
        <time>2016-06-08T04:57:53Z</time>
      </trkpt>
      <trkpt lat="44.49699" lon="3.76647">
        <ele>1183.872</ele>
        <time>2016-06-08T04:58:13Z</time>
      </trkpt>
      <trkpt lat="44.49693" lon="3.76634">
        <ele>1185.572</ele>
        <time>2016-06-08T04:58:33Z</time>
      </trkpt>
      <trkpt lat="44.49734" lon="3.76597">
        <ele>1185.233</ele>
        <time>2016-06-08T04:58:53Z</time>
      </trkpt>
      <trkpt lat="44.49785" lon="3.76526">
        <ele>1188.934</ele>
        <time>2016-06-08T04:59:13Z</time>
      </trkpt>
      <trkpt lat="44.49792" lon="3.76486">
        <ele>1191.055</ele>
        <time>2016-06-08T04:59:33Z</time>
      </trkpt>
      <trkpt lat="44.49821" lon="3.76441">
        <ele>1192.61</ele>
        <time>2016-06-08T04:59:53Z</time>
      </trkpt>
      <trkpt lat="44.49851" lon="3.76407">
        <ele>1195.508</ele>
        <time>2016-06-08T05:00:13Z</time>
      </trkpt>
      <trkpt lat="44.49875" lon="3.76361">
        <ele>1199.076</ele>
        <time>2016-06-08T05:00:33Z</time>
      </trkpt>
      <trkpt lat="44.49888" lon="3.76316">
        <ele>1199.927</ele>
        <time>2016-06-08T05:00:53Z</time>
      </trkpt>
      <trkpt lat="44.49888" lon="3.76316">
        <ele>1199.988</ele>
        <time>2016-06-08T05:01:13Z</time>
      </trkpt>
      <trkpt lat="44.49894" lon="3.76251">
        <ele>1201.826</ele>
        <time>2016-06-08T05:01:33Z</time>
      </trkpt>
      <trkpt lat="44.49887" lon="3.76158">
        <ele>1201.874</ele>
        <time>2016-06-08T05:01:53Z</time>
      </trkpt>
      <trkpt lat="44.49894" lon="3.76052">
        <ele>1200.546</ele>
        <time>2016-06-08T05:02:13Z</time>
      </trkpt>
      <trkpt lat="44.49897" lon="3.75978">
        <ele>1198.646</ele>
        <time>2016-06-08T05:02:33Z</time>
      </trkpt>
      <trkpt lat="44.49919" lon="3.75923">
        <ele>1196.997</ele>
        <time>2016-06-08T05:02:53Z</time>
      </trkpt>
      <trkpt lat="44.49968" lon="3.75868">
        <ele>1191.943</ele>
        <time>2016-06-08T05:03:13Z</time>
      </trkpt>
      <trkpt lat="44.50005" lon="3.7587">
        <ele>1190.064</ele>
        <time>2016-06-08T05:03:33Z</time>
      </trkpt>
      <trkpt lat="44.50043" lon="3.75853">
        <ele>1187.81</ele>
        <time>2016-06-08T05:03:53Z</time>
      </trkpt>
      <trkpt lat="44.50063" lon="3.75809">
        <ele>1185.008</ele>
        <time>2016-06-08T05:04:13Z</time>
      </trkpt>
      <trkpt lat="44.50094" lon="3.75668">
        <ele>1179.547</ele>
        <time>2016-06-08T05:04:33Z</time>
      </trkpt>
      <trkpt lat="44.5007" lon="3.7565">
        <ele>1175.428</ele>
        <time>2016-06-08T05:04:53Z</time>
      </trkpt>
      <trkpt lat="44.50064" lon="3.75601">
        <ele>1171.579</ele>
        <time>2016-06-08T05:05:13Z</time>
      </trkpt>
      <trkpt lat="44.49995" lon="3.7555">
        <ele>1163.877</ele>
        <time>2016-06-08T05:05:33Z</time>
      </trkpt>
      <trkpt lat="44.49979" lon="3.75503">
        <ele>1163.965</ele>
        <time>2016-06-08T05:05:53Z</time>
      </trkpt>
      <trkpt lat="44.49983" lon="3.75408">
        <ele>1162.477</ele>
        <time>2016-06-08T05:06:13Z</time>
      </trkpt>
      <trkpt lat="44.50002" lon="3.75331">
        <ele>1160.337</ele>
        <time>2016-06-08T05:06:33Z</time>
      </trkpt>
      <trkpt lat="44.49945" lon="3.75253">
        <ele>1160.938</ele>
        <time>2016-06-08T05:06:53Z</time>
      </trkpt>
      <trkpt lat="44.49914" lon="3.75238">
        <ele>1161.918</ele>
        <time>2016-06-08T05:07:13Z</time>
      </trkpt>
      <trkpt lat="44.49831" lon="3.7525">
        <ele>1164.998</ele>
        <time>2016-06-08T05:07:33Z</time>
      </trkpt>
      <trkpt lat="44.49794" lon="3.75205">
        <ele>1165.317</ele>
        <time>2016-06-08T05:07:53Z</time>
      </trkpt>
      <trkpt lat="44.49766" lon="3.75152">
        <ele>1166.908</ele>
        <time>2016-06-08T05:08:13Z</time>
      </trkpt>
      <trkpt lat="44.49734" lon="3.75124">
        <ele>1164.394</ele>
        <time>2016-06-08T05:08:33Z</time>
      </trkpt>
      <trkpt lat="44.49724" lon="3.75047">
        <ele>1161.925</ele>
        <time>2016-06-08T05:08:53Z</time>
      </trkpt>
      <trkpt lat="44.49691" lon="3.74991">
        <ele>1155.786</ele>
        <time>2016-06-08T05:09:13Z</time>
      </trkpt>
      <trkpt lat="44.49578" lon="3.74883">
        <ele>1147.134</ele>
        <time>2016-06-08T05:09:33Z</time>
      </trkpt>
      <trkpt lat="44.49513" lon="3.74791">
        <ele>1142.892</ele>
        <time>2016-06-08T05:09:53Z</time>
      </trkpt>
      <trkpt lat="44.49499" lon="3.74764">
        <ele>1141.434</ele>
        <time>2016-06-08T05:10:13Z</time>
      </trkpt>
      <trkpt lat="44.49467" lon="3.74715">
        <ele>1139.354</ele>
        <time>2016-06-08T05:10:33Z</time>
      </trkpt>
      <trkpt lat="44.49432" lon="3.74695">
        <ele>1136.975</ele>
        <time>2016-06-08T05:10:53Z</time>
      </trkpt>
      <trkpt lat="44.49408" lon="3.74648">
        <ele>1136.871</ele>
        <time>2016-06-08T05:11:13Z</time>
      </trkpt>
      <trkpt lat="44.49347" lon="3.74464">
        <ele>1124.941</ele>
        <time>2016-06-08T05:11:33Z</time>
      </trkpt>
      <trkpt lat="44.49293" lon="3.74364">
        <ele>1113.715</ele>
        <time>2016-06-08T05:11:53Z</time>
      </trkpt>
      <trkpt lat="44.49241" lon="3.74304">
        <ele>1106.008</ele>
        <time>2016-06-08T05:12:13Z</time>
      </trkpt>
      <trkpt lat="44.49228" lon="3.74277">
        <ele>1105.26</ele>
        <time>2016-06-08T05:12:33Z</time>
      </trkpt>
      <trkpt lat="44.4917" lon="3.74192">
        <ele>1087.751</ele>
        <time>2016-06-08T05:12:53Z</time>
      </trkpt>
      <trkpt lat="44.49156" lon="3.74131">
        <ele>1079.632</ele>
        <time>2016-06-08T05:13:13Z</time>
      </trkpt>
      <trkpt lat="44.49143" lon="3.74149">
        <ele>1077.49</ele>
        <time>2016-06-08T05:13:33Z</time>
      </trkpt>
      <trkpt lat="44.49142" lon="3.74227">
        <ele>1081.218</ele>
        <time>2016-06-08T05:13:53Z</time>
      </trkpt>
      <trkpt lat="44.49124" lon="3.74189">
        <ele>1075.04</ele>
        <time>2016-06-08T05:14:13Z</time>
      </trkpt>
      <trkpt lat="44.49108" lon="3.74095">
        <ele>1073.09</ele>
        <time>2016-06-08T05:14:33Z</time>
      </trkpt>
      <trkpt lat="44.49027" lon="3.73995">
        <ele>1070.131</ele>
        <time>2016-06-08T05:14:53Z</time>
      </trkpt>
      <trkpt lat="44.49016" lon="3.73952">
        <ele>1070.934</ele>
        <time>2016-06-08T05:15:13Z</time>
      </trkpt>
      <trkpt lat="44.48922" lon="3.73925">
        <ele>1064.555</ele>
        <time>2016-06-08T05:15:33Z</time>
      </trkpt>
      <trkpt lat="44.48899" lon="3.73837">
        <ele>1069.61</ele>
        <time>2016-06-08T05:15:53Z</time>
      </trkpt>
      <trkpt lat="44.48876" lon="3.73792">
        <ele>1073.208</ele>
        <time>2016-06-08T05:16:13Z</time>
      </trkpt>
      <trkpt lat="44.48828" lon="3.7375">
        <ele>1081.036</ele>
        <time>2016-06-08T05:16:33Z</time>
      </trkpt>
      <trkpt lat="44.48794" lon="3.73682">
        <ele>1082.197</ele>
        <time>2016-06-08T05:16:53Z</time>
      </trkpt>
      <trkpt lat="44.48753" lon="3.7362">
        <ele>1082.758</ele>
        <time>2016-06-08T05:17:13Z</time>
      </trkpt>
      <trkpt lat="44.48762" lon="3.73677">
        <ele>1087.526</ele>
        <time>2016-06-08T05:17:33Z</time>
      </trkpt>
      <trkpt lat="44.48729" lon="3.73658">
        <ele>1091.074</ele>
        <time>2016-06-08T05:17:53Z</time>
      </trkpt>
      <trkpt lat="44.4868" lon="3.73659">
        <ele>1096.366</ele>
        <time>2016-06-08T05:18:13Z</time>
      </trkpt>
      <trkpt lat="44.48618" lon="3.7373">
        <ele>1106.846</ele>
        <time>2016-06-08T05:18:33Z</time>
      </trkpt>
      <trkpt lat="44.48632" lon="3.73757">
        <ele>1109.067</ele>
        <time>2016-06-08T05:18:53Z</time>
      </trkpt>
      <trkpt lat="44.48566" lon="3.73807">
        <ele>1113.952</ele>
        <time>2016-06-08T05:19:13Z</time>
      </trkpt>
      <trkpt lat="44.48355" lon="3.74017">
        <ele>1131.353</ele>
        <time>2016-06-08T05:19:33Z</time>
      </trkpt>
      <trkpt lat="44.48329" lon="3.74015">
        <ele>1134.308</ele>
        <time>2016-06-08T05:19:53Z</time>
      </trkpt>
      <trkpt lat="44.48279" lon="3.73899">
        <ele>1146.108</ele>
        <time>2016-06-08T05:20:13Z</time>
      </trkpt>
      <trkpt lat="44.48252" lon="3.73891">
        <ele>1145.438</ele>
        <time>2016-06-08T05:20:33Z</time>
      </trkpt>
      <trkpt lat="44.48205" lon="3.73904">
        <ele>1147.389</ele>
        <time>2016-06-08T05:20:53Z</time>
      </trkpt>
      <trkpt lat="44.4816" lon="3.73939">
        <ele>1156.23</ele>
        <time>2016-06-08T05:21:13Z</time>
      </trkpt>
      <trkpt lat="44.48062" lon="3.7397">
        <ele>1167.938</ele>
        <time>2016-06-08T05:21:33Z</time>
      </trkpt>
      <trkpt lat="44.47934" lon="3.74038">
        <ele>1188.286</ele>
        <time>2016-06-08T05:21:53Z</time>
      </trkpt>
      <trkpt lat="44.47864" lon="3.74046">
        <ele>1186.878</ele>
        <time>2016-06-08T05:22:13Z</time>
      </trkpt>
      <trkpt lat="44.4776" lon="3.74044">
        <ele>1184.498</ele>
        <time>2016-06-08T05:22:33Z</time>
      </trkpt>
      <trkpt lat="44.47707" lon="3.74017">
        <ele>1184.829</ele>
        <time>2016-06-08T05:22:53Z</time>
      </trkpt>
      <trkpt lat="44.47641" lon="3.73999">
        <ele>1190.081</ele>
        <time>2016-06-08T05:23:13Z</time>
      </trkpt>
      <trkpt lat="44.47581" lon="3.73992">
        <ele>1192.261</ele>
        <time>2016-06-08T05:23:33Z</time>
      </trkpt>
      <trkpt lat="44.4754" lon="3.73975">
        <ele>1194.717</ele>
        <time>2016-06-08T05:23:53Z</time>
      </trkpt>
      <trkpt lat="44.4754" lon="3.73975">
        <ele>1194.708</ele>
        <time>2016-06-08T05:24:13Z</time>
      </trkpt>
      <trkpt lat="44.47505" lon="3.73936">
        <ele>1194.641</ele>
        <time>2016-06-08T05:24:33Z</time>
      </trkpt>
      <trkpt lat="44.47456" lon="3.73869">
        <ele>1192.782</ele>
        <time>2016-06-08T05:24:53Z</time>
      </trkpt>
      <trkpt lat="44.47355" lon="3.73828">
        <ele>1196.253</ele>
        <time>2016-06-08T05:25:13Z</time>
      </trkpt>
      <trkpt lat="44.47297" lon="3.73832">
        <ele>1205.051</ele>
        <time>2016-06-08T05:25:33Z</time>
      </trkpt>
      <trkpt lat="44.47237" lon="3.73808">
        <ele>1219.329</ele>
        <time>2016-06-08T05:25:53Z</time>
      </trkpt>
      <trkpt lat="44.47185" lon="3.7381">
        <ele>1226.121</ele>
        <time>2016-06-08T05:26:13Z</time>
      </trkpt>
      <trkpt lat="44.47094" lon="3.73853">
        <ele>1241.811</ele>
        <time>2016-06-08T05:26:33Z</time>
      </trkpt>
      <trkpt lat="44.47051" lon="3.73955">
        <ele>1249.762</ele>
        <time>2016-06-08T05:26:53Z</time>
      </trkpt>
      <trkpt lat="44.47008" lon="3.74019">
        <ele>1254.243</ele>
        <time>2016-06-08T05:27:13Z</time>
      </trkpt>
      <trkpt lat="44.46881" lon="3.74161">
        <ele>1266.864</ele>
        <time>2016-06-08T05:27:33Z</time>
      </trkpt>
      <trkpt lat="44.46845" lon="3.74236">
        <ele>1276.11</ele>
        <time>2016-06-08T05:27:53Z</time>
      </trkpt>
      <trkpt lat="44.46865" lon="3.74414">
        <ele>1277.308</ele>
        <time>2016-06-08T05:28:13Z</time>
      </trkpt>
      <trkpt lat="44.46857" lon="3.74449">
        <ele>1280.847</ele>
        <time>2016-06-08T05:28:33Z</time>
      </trkpt>
      <trkpt lat="44.46751" lon="3.74578">
        <ele>1302.268</ele>
        <time>2016-06-08T05:28:53Z</time>
      </trkpt>
      <trkpt lat="44.46678" lon="3.74639">
        <ele>1325.859</ele>
        <time>2016-06-08T05:29:13Z</time>
      </trkpt>
      <trkpt lat="44.46576" lon="3.74672">
        <ele>1340.937</ele>
        <time>2016-06-08T05:29:33Z</time>
      </trkpt>
      <trkpt lat="44.46535" lon="3.74723">
        <ele>1342.045</ele>
        <time>2016-06-08T05:29:53Z</time>
      </trkpt>
      <trkpt lat="44.46483" lon="3.74769">
        <ele>1348.647</ele>
        <time>2016-06-08T05:30:13Z</time>
      </trkpt>
      <trkpt lat="44.46399" lon="3.74825">
        <ele>1369.567</ele>
        <time>2016-06-08T05:30:33Z</time>
      </trkpt>
      <trkpt lat="44.46313" lon="3.74829">
        <ele>1381.198</ele>
        <time>2016-06-08T05:30:53Z</time>
      </trkpt>
      <trkpt lat="44.46247" lon="3.74811">
        <ele>1391.279</ele>
        <time>2016-06-08T05:31:13Z</time>
      </trkpt>
      <trkpt lat="44.46147" lon="3.74789">
        <ele>1401.405</ele>
        <time>2016-06-08T05:31:33Z</time>
      </trkpt>
      <trkpt lat="44.46002" lon="3.74827">
        <ele>1409.025</ele>
        <time>2016-06-08T05:31:53Z</time>
      </trkpt>
      <trkpt lat="44.45822" lon="3.74883">
        <ele>1405.808</ele>
        <time>2016-06-08T05:32:13Z</time>
      </trkpt>
      <trkpt lat="44.45686" lon="3.74952">
        <ele>1401.24</ele>
        <time>2016-06-08T05:32:33Z</time>
      </trkpt>
      <trkpt lat="44.45639" lon="3.74941">
        <ele>1402.841</ele>
        <time>2016-06-08T05:32:53Z</time>
      </trkpt>
      <trkpt lat="44.45424" lon="3.74929">
        <ele>1413.372</ele>
        <time>2016-06-08T05:33:13Z</time>
      </trkpt>
      <trkpt lat="44.4536" lon="3.7491">
        <ele>1416.33</ele>
        <time>2016-06-08T05:33:33Z</time>
      </trkpt>
      <trkpt lat="44.45289" lon="3.74855">
        <ele>1417.018</ele>
        <time>2016-06-08T05:33:53Z</time>
      </trkpt>
      <trkpt lat="44.45164" lon="3.74782">
        <ele>1412.18</ele>
        <time>2016-06-08T05:34:13Z</time>
      </trkpt>
      <trkpt lat="44.45144" lon="3.74766">
        <ele>1412.23</ele>
        <time>2016-06-08T05:34:33Z</time>
      </trkpt>
      <trkpt lat="44.45041" lon="3.74741">
        <ele>1418.921</ele>
        <time>2019-03-26T01:52:11Z</time>
      </trkpt>
      <trkpt lat="44.44892" lon="3.74677">
        <ele>1434.085</ele>
        <time>2019-03-26T01:52:31Z</time>
      </trkpt>
      <trkpt lat="44.44757" lon="3.74679">
        <ele>1441.589</ele>
        <time>2016-06-08T05:36:13Z</time>
      </trkpt>
      <trkpt lat="44.44527" lon="3.74756">
        <ele>1474.417</ele>
        <time>2016-06-08T05:36:33Z</time>
      </trkpt>
      <trkpt lat="44.44511" lon="3.74808">
        <ele>1476.908</ele>
        <time>2016-06-08T05:36:53Z</time>
      </trkpt>
      <trkpt lat="44.44403" lon="3.74829">
        <ele>1490.481</ele>
        <time>2016-06-08T05:37:13Z</time>
      </trkpt>
      <trkpt lat="44.44342" lon="3.74886">
        <ele>1498.282</ele>
        <time>2016-06-08T05:37:33Z</time>
      </trkpt>
      <trkpt lat="44.44261" lon="3.74938">
        <ele>1512.353</ele>
        <time>2016-06-08T05:37:53Z</time>
      </trkpt>
      <trkpt lat="44.44174" lon="3.7495">
        <ele>1519.711</ele>
        <time>2016-06-08T05:38:13Z</time>
      </trkpt>
      <trkpt lat="44.43903" lon="3.74936">
        <ele>1538.219</ele>
        <time>2016-06-08T05:38:33Z</time>
      </trkpt>
      <trkpt lat="44.43669" lon="3.74919">
        <ele>1557.231</ele>
        <time>2016-06-08T05:38:53Z</time>
      </trkpt>
      <trkpt lat="44.4358" lon="3.7493">
        <ele>1561.171</ele>
        <time>2016-06-08T05:39:13Z</time>
      </trkpt>
      <trkpt lat="44.43401" lon="3.74886">
        <ele>1569.162</ele>
        <time>2016-06-08T05:39:33Z</time>
      </trkpt>
      <trkpt lat="44.43304" lon="3.74887">
        <ele>1573.197</ele>
        <time>2016-06-08T05:39:53Z</time>
      </trkpt>
      <trkpt lat="44.4314" lon="3.74922">
        <ele>1592.523</ele>
        <time>2016-06-08T05:40:13Z</time>
      </trkpt>
      <trkpt lat="44.42946" lon="3.75">
        <ele>1614.825</ele>
        <time>2016-06-08T05:40:33Z</time>
      </trkpt>
      <trkpt lat="44.42689" lon="3.75118">
        <ele>1631.808</ele>
        <time>2016-06-08T05:41:33Z</time>
      </trkpt>
      <trkpt lat="44.42635" lon="3.75141">
        <ele>1632.362</ele>
        <time>2016-06-08T05:41:53Z</time>
      </trkpt>
      <trkpt lat="44.4267" lon="3.74664">
        <ele>1675.983</ele>
        <time>2016-06-08T05:42:33Z</time>
      </trkpt>
      <trkpt lat="44.42691" lon="3.74581">
        <ele>1681.124</ele>
        <time>2016-06-08T05:42:53Z</time>
      </trkpt>
      <trkpt lat="44.4274" lon="3.74513">
        <ele>1683.032</ele>
        <time>2016-06-08T05:43:13Z</time>
      </trkpt>
      <trkpt lat="44.4271" lon="3.74442">
        <ele>1682.55</ele>
        <time>2016-06-08T05:43:33Z</time>
      </trkpt>
      <trkpt lat="44.4266" lon="3.74272">
        <ele>1677.282</ele>
        <time>2016-06-08T05:43:53Z</time>
      </trkpt>
      <trkpt lat="44.42614" lon="3.74">
        <ele>1698.982</ele>
        <time>2016-06-08T05:44:13Z</time>
      </trkpt>
      <trkpt lat="44.42607" lon="3.73916">
        <ele>1698.873</ele>
        <time>2016-06-08T05:44:33Z</time>
      </trkpt>
      <trkpt lat="44.42451" lon="3.73871">
        <ele>1688.563</ele>
        <time>2016-06-08T05:44:53Z</time>
      </trkpt>
      <trkpt lat="44.42272" lon="3.73887">
        <ele>1662.344</ele>
        <time>2016-06-08T05:45:13Z</time>
      </trkpt>
      <trkpt lat="44.42246" lon="3.74025">
        <ele>1660.618</ele>
        <time>2016-06-08T05:45:33Z</time>
      </trkpt>
      <trkpt lat="44.42224" lon="3.74083">
        <ele>1658.308</ele>
        <time>2016-06-08T05:45:53Z</time>
      </trkpt>
      <trkpt lat="44.42181" lon="3.74035">
        <ele>1649.939</ele>
        <time>2016-06-08T05:46:13Z</time>
      </trkpt>
      <trkpt lat="44.42061" lon="3.73974">
        <ele>1629.04</ele>
        <time>2019-03-26T02:02:11Z</time>
      </trkpt>
      <trkpt lat="44.41918" lon="3.7393">
        <ele>1599.221</ele>
        <time>2019-03-26T02:02:31Z</time>
      </trkpt>
      <trkpt lat="44.41895" lon="3.74038">
        <ele>1601.139</ele>
        <time>2019-03-26T02:02:51Z</time>
      </trkpt>
      <trkpt lat="44.41842" lon="3.74143">
        <ele>1601.787</ele>
        <time>2019-03-26T02:03:11Z</time>
      </trkpt>
      <trkpt lat="44.41802" lon="3.74193">
        <ele>1598.729</ele>
        <time>2019-03-26T02:03:31Z</time>
      </trkpt>
      <trkpt lat="44.41685" lon="3.74462">
        <ele>1559.839</ele>
        <time>2019-03-26T02:03:51Z</time>
      </trkpt>
      <trkpt lat="44.41589" lon="3.74186">
        <ele>1545.55</ele>
        <time>2019-03-26T02:04:11Z</time>
      </trkpt>
      <trkpt lat="44.4158" lon="3.74134">
        <ele>1538.959</ele>
        <time>2019-03-26T02:04:31Z</time>
      </trkpt>
      <trkpt lat="44.41549" lon="3.74103">
        <ele>1528.803</ele>
        <time>2019-03-26T02:04:51Z</time>
      </trkpt>
      <trkpt lat="44.41528" lon="3.74015">
        <ele>1516.723</ele>
        <time>2019-03-26T02:05:11Z</time>
      </trkpt>
      <trkpt lat="44.41533" lon="3.73942">
        <ele>1508.808</ele>
        <time>2019-03-26T02:05:31Z</time>
      </trkpt>
      <trkpt lat="44.41524" lon="3.73892">
        <ele>1500.618</ele>
        <time>2019-03-26T02:05:51Z</time>
      </trkpt>
      <trkpt lat="44.41523" lon="3.73845">
        <ele>1496.389</ele>
        <time>2019-03-26T02:06:11Z</time>
      </trkpt>
      <trkpt lat="44.41498" lon="3.73832">
        <ele>1490.62</ele>
        <time>2019-03-26T02:06:31Z</time>
      </trkpt>
      <trkpt lat="44.41486" lon="3.73769">
        <ele>1483.968</ele>
        <time>2016-06-08T05:48:13Z</time>
      </trkpt>
      <trkpt lat="44.41519" lon="3.73692">
        <ele>1477.536</ele>
        <time>2016-06-08T05:48:33Z</time>
      </trkpt>
      <trkpt lat="44.41306" lon="3.73805">
        <ele>1462.018</ele>
        <time>2016-06-08T05:48:53Z</time>
      </trkpt>
      <trkpt lat="44.41277" lon="3.73876">
        <ele>1460.358</ele>
        <time>2016-06-08T05:49:13Z</time>
      </trkpt>
      <trkpt lat="44.41264" lon="3.73869">
        <ele>1458.269</ele>
        <time>2016-06-08T05:49:33Z</time>
      </trkpt>
      <trkpt lat="44.41219" lon="3.73779">
        <ele>1452.985</ele>
        <time>2016-06-08T05:49:53Z</time>
      </trkpt>
      <trkpt lat="44.41161" lon="3.73636">
        <ele>1449.789</ele>
        <time>2016-06-08T05:50:13Z</time>
      </trkpt>
      <trkpt lat="44.41094" lon="3.73499">
        <ele>1444.817</ele>
        <time>2019-03-26T02:09:11Z</time>
      </trkpt>
      <trkpt lat="44.4104" lon="3.73414">
        <ele>1436.808</ele>
        <time>2019-03-26T02:09:31Z</time>
      </trkpt>
      <trkpt lat="44.40853" lon="3.73296">
        <ele>1431.281</ele>
        <time>2016-06-08T05:51:13Z</time>
      </trkpt>
      <trkpt lat="44.40759" lon="3.73165">
        <ele>1423.172</ele>
        <time>2016-06-08T05:51:33Z</time>
      </trkpt>
      <trkpt lat="44.40721" lon="3.73147">
        <ele>1422.163</ele>
        <time>2016-06-08T05:51:53Z</time>
      </trkpt>
      <trkpt lat="44.40617" lon="3.7313">
        <ele>1417.791</ele>
        <time>2016-06-08T05:52:13Z</time>
      </trkpt>
      <trkpt lat="44.40548" lon="3.7314">
        <ele>1412.959</ele>
        <time>2016-06-08T05:52:33Z</time>
      </trkpt>
      <trkpt lat="44.40545" lon="3.72951">
        <ele>1407.771</ele>
        <time>2016-06-08T05:52:53Z</time>
      </trkpt>
      <trkpt lat="44.40435" lon="3.72904">
        <ele>1388.941</ele>
        <time>2016-06-08T05:53:13Z</time>
      </trkpt>
      <trkpt lat="44.40363" lon="3.72893">
        <ele>1377.482</ele>
        <time>2016-06-08T05:53:33Z</time>
      </trkpt>
      <trkpt lat="44.40304" lon="3.72876">
        <ele>1370.038</ele>
        <time>2016-06-08T05:53:53Z</time>
      </trkpt>
      <trkpt lat="44.40235" lon="3.72885">
        <ele>1356.07</ele>
        <time>2016-06-08T05:54:13Z</time>
      </trkpt>
      <trkpt lat="44.40194" lon="3.72909">
        <ele>1351.217</ele>
        <time>2016-06-08T05:54:33Z</time>
      </trkpt>
      <trkpt lat="44.40208" lon="3.73074">
        <ele>1339.308</ele>
        <time>2016-06-08T05:54:53Z</time>
      </trkpt>
      <trkpt lat="44.40186" lon="3.73197">
        <ele>1330.296</ele>
        <time>2016-06-08T05:55:13Z</time>
      </trkpt>
      <trkpt lat="44.40144" lon="3.7332">
        <ele>1318.997</ele>
        <time>2016-06-08T05:55:33Z</time>
      </trkpt>
      <trkpt lat="44.40132" lon="3.73441">
        <ele>1308.398</ele>
        <time>2016-06-08T05:55:53Z</time>
      </trkpt>
      <trkpt lat="44.40132" lon="3.73441">
        <ele>1308.326</ele>
        <time>2016-06-08T05:56:13Z</time>
      </trkpt>
      <trkpt lat="44.4016" lon="3.73562">
        <ele>1305.154</ele>
        <time>2016-06-08T05:56:33Z</time>
      </trkpt>
      <trkpt lat="44.40147" lon="3.73713">
        <ele>1292.656</ele>
        <time>2016-06-08T05:56:53Z</time>
      </trkpt>
      <trkpt lat="44.40206" lon="3.74032">
        <ele>1265.836</ele>
        <time>2016-06-08T05:57:13Z</time>
      </trkpt>
      <trkpt lat="44.40229" lon="3.74071">
        <ele>1264.257</ele>
        <time>2016-06-08T05:57:33Z</time>
      </trkpt>
      <trkpt lat="44.40266" lon="3.74092">
        <ele>1263.578</ele>
        <time>2016-06-08T05:57:53Z</time>
      </trkpt>
      <trkpt lat="44.40309" lon="3.74181">
        <ele>1255.233</ele>
        <time>2016-06-08T05:58:13Z</time>
      </trkpt>
      <trkpt lat="44.40349" lon="3.74228">
        <ele>1251.126</ele>
        <time>2016-06-08T05:58:33Z</time>
      </trkpt>
      <trkpt lat="44.40371" lon="3.74272">
        <ele>1251.208</ele>
        <time>2016-06-08T05:58:53Z</time>
      </trkpt>
      <trkpt lat="44.40414" lon="3.74307">
        <ele>1254.58</ele>
        <time>2016-06-08T05:59:13Z</time>
      </trkpt>
      <trkpt lat="44.40433" lon="3.74364">
        <ele>1251.781</ele>
        <time>2016-06-08T05:59:33Z</time>
      </trkpt>
      <trkpt lat="44.40423" lon="3.74416">
        <ele>1244.012</ele>
        <time>2016-06-08T05:59:53Z</time>
      </trkpt>
      <trkpt lat="44.40406" lon="3.7442">
        <ele>1240.61</ele>
        <time>2016-06-08T06:00:13Z</time>
      </trkpt>
      <trkpt lat="44.4042" lon="3.74464">
        <ele>1241.018</ele>
        <time>2016-06-08T06:00:33Z</time>
      </trkpt>
      <trkpt lat="44.40407" lon="3.74507">
        <ele>1235.71</ele>
        <time>2016-06-08T06:00:53Z</time>
      </trkpt>
      <trkpt lat="44.40361" lon="3.74533">
        <ele>1230.66</ele>
        <time>2016-06-08T06:01:13Z</time>
      </trkpt>
      <trkpt lat="44.40308" lon="3.74482">
        <ele>1226.541</ele>
        <time>2016-06-08T06:01:33Z</time>
      </trkpt>
      <trkpt lat="44.40281" lon="3.74484">
        <ele>1224.666</ele>
        <time>2016-06-08T06:01:53Z</time>
      </trkpt>
      <trkpt lat="44.40194" lon="3.74431">
        <ele>1217.929</ele>
        <time>2016-06-08T06:02:13Z</time>
      </trkpt>
      <trkpt lat="44.40098" lon="3.74428">
        <ele>1208.221</ele>
        <time>2016-06-08T06:02:33Z</time>
      </trkpt>
      <trkpt lat="44.4008" lon="3.74379">
        <ele>1208.908</ele>
        <time>2016-06-08T06:02:53Z</time>
      </trkpt>
      <trkpt lat="44.40025" lon="3.74362">
        <ele>1204.869</ele>
        <time>2019-03-26T02:21:51Z</time>
      </trkpt>
      <trkpt lat="44.39997" lon="3.74437">
        <ele>1195.27</ele>
        <time>2019-03-26T02:22:11Z</time>
      </trkpt>
      <trkpt lat="44.39895" lon="3.74462">
        <ele>1195.331</ele>
        <time>2019-03-26T02:22:31Z</time>
      </trkpt>
      <trkpt lat="44.39849" lon="3.74442">
        <ele>1196.319</ele>
        <time>2019-03-26T02:22:51Z</time>
      </trkpt>
      <trkpt lat="44.39783" lon="3.74448">
        <ele>1192.067</ele>
        <time>2016-06-08T06:04:13Z</time>
      </trkpt>
      <trkpt lat="44.39751" lon="3.74508">
        <ele>1187.599</ele>
        <time>2016-06-08T06:04:33Z</time>
      </trkpt>
      <trkpt lat="44.39751" lon="3.74508">
        <ele>1187.549</ele>
        <time>2016-06-08T06:04:53Z</time>
      </trkpt>
      <trkpt lat="44.39684" lon="3.74506">
        <ele>1186.06</ele>
        <time>2016-06-08T06:05:13Z</time>
      </trkpt>
      <trkpt lat="44.39665" lon="3.74516">
        <ele>1184.484</ele>
        <time>2016-06-08T06:05:33Z</time>
      </trkpt>
      <trkpt lat="44.39633" lon="3.74505">
        <ele>1183.607</ele>
        <time>2016-06-08T06:05:53Z</time>
      </trkpt>
      <trkpt lat="44.39593" lon="3.7452">
        <ele>1181.217</ele>
        <time>2016-06-08T06:06:13Z</time>
      </trkpt>
      <trkpt lat="44.39499" lon="3.74533">
        <ele>1177.808</ele>
        <time>2016-06-08T06:06:33Z</time>
      </trkpt>
      <trkpt lat="44.39444" lon="3.74557">
        <ele>1175.991</ele>
        <time>2019-03-26T02:25:51Z</time>
      </trkpt>
      <trkpt lat="44.39391" lon="3.74613">
        <ele>1171.072</ele>
        <time>2019-03-26T02:26:11Z</time>
      </trkpt>
      <trkpt lat="44.39367" lon="3.74618">
        <ele>1167.743</ele>
        <time>2019-03-26T02:26:31Z</time>
      </trkpt>
      <trkpt lat="44.39354" lon="3.7458">
        <ele>1165.271</ele>
        <time>2019-03-26T02:26:51Z</time>
      </trkpt>
      <trkpt lat="44.39358" lon="3.74537">
        <ele>1161.069</ele>
        <time>2019-03-26T02:27:11Z</time>
      </trkpt>
      <trkpt lat="44.39391" lon="3.74446">
        <ele>1155.631</ele>
        <time>2019-03-26T02:27:31Z</time>
      </trkpt>
      <trkpt lat="44.39386" lon="3.74415">
        <ele>1153.131</ele>
        <time>2019-03-26T02:27:51Z</time>
      </trkpt>
      <trkpt lat="44.39359" lon="3.74387">
        <ele>1154.282</ele>
        <time>2019-03-26T02:28:11Z</time>
      </trkpt>
      <trkpt lat="44.39342" lon="3.74347">
        <ele>1157.565</ele>
        <time>2019-03-26T02:28:31Z</time>
      </trkpt>
      <trkpt lat="44.39216" lon="3.7436">
        <ele>1148.368</ele>
        <time>2019-03-26T02:28:51Z</time>
      </trkpt>
      <trkpt lat="44.39177" lon="3.74299">
        <ele>1154.914</ele>
        <time>2019-03-26T02:29:11Z</time>
      </trkpt>
      <trkpt lat="44.39129" lon="3.74298">
        <ele>1157.908</ele>
        <time>2019-03-26T02:29:31Z</time>
      </trkpt>
      <trkpt lat="44.39098" lon="3.74348">
        <ele>1147.349</ele>
        <time>2019-03-26T02:29:51Z</time>
      </trkpt>
      <trkpt lat="44.39048" lon="3.74367">
        <ele>1147.84</ele>
        <time>2019-03-26T02:30:11Z</time>
      </trkpt>
      <trkpt lat="44.38997" lon="3.7443">
        <ele>1141.221</ele>
        <time>2019-03-26T02:30:31Z</time>
      </trkpt>
      <trkpt lat="44.38938" lon="3.74472">
        <ele>1142.219</ele>
        <time>2019-03-26T02:30:51Z</time>
      </trkpt>
      <trkpt lat="44.38886" lon="3.74477">
        <ele>1143.527</ele>
        <time>2019-03-26T02:31:11Z</time>
      </trkpt>
      <trkpt lat="44.38845" lon="3.74467">
        <ele>1141.659</ele>
        <time>2019-03-26T02:31:31Z</time>
      </trkpt>
      <trkpt lat="44.38726" lon="3.74503">
        <ele>1134.939</ele>
        <time>2019-03-26T02:31:51Z</time>
      </trkpt>
      <trkpt lat="44.38698" lon="3.74535">
        <ele>1134.89</ele>
        <time>2019-03-26T02:32:11Z</time>
      </trkpt>
      <trkpt lat="44.38667" lon="3.74543">
        <ele>1135.042</ele>
        <time>2019-03-26T02:32:31Z</time>
      </trkpt>
      <trkpt lat="44.38606" lon="3.7453">
        <ele>1132.922</ele>
        <time>2019-03-26T02:32:51Z</time>
      </trkpt>
      <trkpt lat="44.38537" lon="3.7446">
        <ele>1130.214</ele>
        <time>2019-03-26T02:33:11Z</time>
      </trkpt>
      <trkpt lat="44.38444" lon="3.74481">
        <ele>1124.608</ele>
        <time>2019-03-26T02:33:31Z</time>
      </trkpt>
      <trkpt lat="44.384" lon="3.74453">
        <ele>1123.927</ele>
        <time>2019-03-26T02:33:51Z</time>
      </trkpt>
      <trkpt lat="44.38353" lon="3.7446">
        <ele>1122.468</ele>
        <time>2019-03-26T02:34:11Z</time>
      </trkpt>
      <trkpt lat="44.38315" lon="3.74442">
        <ele>1123.279</ele>
        <time>2019-03-26T02:34:31Z</time>
      </trkpt>
      <trkpt lat="44.38275" lon="3.74488">
        <ele>1121.947</ele>
        <time>2019-03-26T02:34:51Z</time>
      </trkpt>
      <trkpt lat="44.38246" lon="3.745">
        <ele>1121.825</ele>
        <time>2019-03-26T02:35:11Z</time>
      </trkpt>
      <trkpt lat="44.38221" lon="3.74523">
        <ele>1119.417</ele>
        <time>2019-03-26T02:35:31Z</time>
      </trkpt>
      <trkpt lat="44.38101" lon="3.74469">
        <ele>1114.377</ele>
        <time>2019-03-26T02:35:51Z</time>
      </trkpt>
      <trkpt lat="44.38075" lon="3.74465">
        <ele>1111.638</ele>
        <time>2019-03-26T02:36:11Z</time>
      </trkpt>
      <trkpt lat="44.38061" lon="3.74486">
        <ele>1109.777</ele>
        <time>2019-03-26T02:36:31Z</time>
      </trkpt>
      <trkpt lat="44.38046" lon="3.74446">
        <ele>1108.061</ele>
        <time>2019-03-26T02:36:51Z</time>
      </trkpt>
      <trkpt lat="44.37973" lon="3.74453">
        <ele>1105.827</ele>
        <time>2019-03-26T02:37:11Z</time>
      </trkpt>
      <trkpt lat="44.37952" lon="3.74439">
        <ele>1108.908</ele>
        <time>2019-03-26T02:37:31Z</time>
      </trkpt>
      <trkpt lat="44.37893" lon="3.74448">
        <ele>1105.14</ele>
        <time>2019-03-26T02:37:51Z</time>
      </trkpt>
      <trkpt lat="44.37863" lon="3.74395">
        <ele>1110.091</ele>
        <time>2019-03-26T02:38:11Z</time>
      </trkpt>
      <trkpt lat="44.37847" lon="3.74341">
        <ele>1117.682</ele>
        <time>2019-03-26T02:38:31Z</time>
      </trkpt>
      <trkpt lat="44.37833" lon="3.7432">
        <ele>1118.99</ele>
        <time>2019-03-26T02:38:51Z</time>
      </trkpt>
      <trkpt lat="44.37788" lon="3.74329">
        <ele>1116.428</ele>
        <time>2019-03-26T02:39:11Z</time>
      </trkpt>
      <trkpt lat="44.37747" lon="3.74383">
        <ele>1114.23</ele>
        <time>2019-03-26T02:39:31Z</time>
      </trkpt>
      <trkpt lat="44.37681" lon="3.74362">
        <ele>1112.94</ele>
        <time>2019-03-26T02:39:51Z</time>
      </trkpt>
      <trkpt lat="44.37617" lon="3.74364">
        <ele>1104.741</ele>
        <time>2019-03-26T02:40:11Z</time>
      </trkpt>
      <trkpt lat="44.37569" lon="3.74251">
        <ele>1104.321</ele>
        <time>2019-03-26T02:40:31Z</time>
      </trkpt>
      <trkpt lat="44.37539" lon="3.74284">
        <ele>1096.341</ele>
        <time>2019-03-26T02:40:51Z</time>
      </trkpt>
      <trkpt lat="44.37506" lon="3.74296">
        <ele>1100.505</ele>
        <time>2019-03-26T02:41:11Z</time>
      </trkpt>
      <trkpt lat="44.37427" lon="3.74366">
        <ele>1096.208</ele>
        <time>2019-03-26T02:41:31Z</time>
      </trkpt>
      <trkpt lat="44.37426" lon="3.74395">
        <ele>1092.165</ele>
        <time>2019-03-26T02:41:51Z</time>
      </trkpt>
      <trkpt lat="44.37377" lon="3.74488">
        <ele>1085.256</ele>
        <time>2019-03-26T02:42:11Z</time>
      </trkpt>
      <trkpt lat="44.37327" lon="3.74528">
        <ele>1079.697</ele>
        <time>2019-03-26T02:42:31Z</time>
      </trkpt>
      <trkpt lat="44.37253" lon="3.74524">
        <ele>1069.495</ele>
        <time>2019-03-26T02:42:51Z</time>
      </trkpt>
      <trkpt lat="44.37219" lon="3.74578">
        <ele>1061.753</ele>
        <time>2019-03-26T02:43:11Z</time>
      </trkpt>
      <trkpt lat="44.37193" lon="3.74598">
        <ele>1056.575</ele>
        <time>2019-03-26T02:43:31Z</time>
      </trkpt>
      <trkpt lat="44.37185" lon="3.74615">
        <ele>1053.355</ele>
        <time>2019-03-26T02:43:51Z</time>
      </trkpt>
      <trkpt lat="44.37141" lon="3.74603">
        <ele>1041.686</ele>
        <time>2019-03-26T02:44:11Z</time>
      </trkpt>
      <trkpt lat="44.37132" lon="3.74624">
        <ele>1041.059</ele>
        <time>2019-03-26T02:44:31Z</time>
      </trkpt>
      <trkpt lat="44.37109" lon="3.7461">
        <ele>1036.403</ele>
        <time>2019-03-26T02:44:51Z</time>
      </trkpt>
      <trkpt lat="44.37082" lon="3.74611">
        <ele>1030.723</ele>
        <time>2019-03-26T02:45:11Z</time>
      </trkpt>
      <trkpt lat="44.37104" lon="3.74566">
        <ele>1028.008</ele>
        <time>2019-03-26T02:45:31Z</time>
      </trkpt>
      <trkpt lat="44.37111" lon="3.74507">
        <ele>1025.938</ele>
        <time>2019-03-26T02:45:51Z</time>
      </trkpt>
      <trkpt lat="44.37045" lon="3.74505">
        <ele>1012.359</ele>
        <time>2019-03-26T02:46:11Z</time>
      </trkpt>
      <trkpt lat="44.3701" lon="3.74484">
        <ele>1008.13</ele>
        <time>2019-03-26T02:46:31Z</time>
      </trkpt>
      <trkpt lat="44.36974" lon="3.74481">
        <ele>1002.118</ele>
        <time>2019-03-26T02:46:51Z</time>
      </trkpt>
      <trkpt lat="44.36969" lon="3.74521">
        <ele>993.536</ele>
        <time>2019-03-26T02:47:11Z</time>
      </trkpt>
      <trkpt lat="44.36939" lon="3.745">
        <ele>987.628</ele>
        <time>2019-03-26T02:47:31Z</time>
      </trkpt>
      <trkpt lat="44.36914" lon="3.74502">
        <ele>980.928</ele>
        <time>2019-03-26T02:47:51Z</time>
      </trkpt>
      <trkpt lat="44.3686" lon="3.74456">
        <ele>975.969</ele>
        <time>2019-03-26T02:48:11Z</time>
      </trkpt>
      <trkpt lat="44.36807" lon="3.74453">
        <ele>960.574</ele>
        <time>2019-03-26T02:48:31Z</time>
      </trkpt>
      <trkpt lat="44.36771" lon="3.74439">
        <ele>952.356</ele>
        <time>2019-03-26T02:48:51Z</time>
      </trkpt>
      <trkpt lat="44.36747" lon="3.74394">
        <ele>959.221</ele>
        <time>2019-03-26T02:49:11Z</time>
      </trkpt>
      <trkpt lat="44.36685" lon="3.74437">
        <ele>936.608</ele>
        <time>2019-03-26T02:49:31Z</time>
      </trkpt>
      <trkpt lat="44.3663" lon="3.74425">
        <ele>929.57</ele>
        <time>2019-03-26T02:49:51Z</time>
      </trkpt>
      <trkpt lat="44.36581" lon="3.74444">
        <ele>916.721</ele>
        <time>2019-03-26T02:50:11Z</time>
      </trkpt>
      <trkpt lat="44.36489" lon="3.74404">
        <ele>909.212</ele>
        <time>2019-03-26T02:50:31Z</time>
      </trkpt>
      <trkpt lat="44.36464" lon="3.74415">
        <ele>901.66</ele>
        <time>2019-03-26T02:50:51Z</time>
      </trkpt>
      <trkpt lat="44.3643" lon="3.74369">
        <ele>896.248</ele>
        <time>2019-03-26T02:51:11Z</time>
      </trkpt>
      <trkpt lat="44.36405" lon="3.74388">
        <ele>887.17</ele>
        <time>2019-03-26T02:51:31Z</time>
      </trkpt>
      <trkpt lat="44.36386" lon="3.74377">
        <ele>882.26</ele>
        <time>2019-03-26T02:51:51Z</time>
      </trkpt>
      <trkpt lat="44.36376" lon="3.7433">
        <ele>880.031</ele>
        <time>2019-03-26T02:52:11Z</time>
      </trkpt>
      <trkpt lat="44.36329" lon="3.74362">
        <ele>874.917</ele>
        <time>2019-03-26T02:52:31Z</time>
      </trkpt>
      <trkpt lat="44.36285" lon="3.74342">
        <ele>876.387</ele>
        <time>2019-03-26T02:52:51Z</time>
      </trkpt>
      <trkpt lat="44.36274" lon="3.74361">
        <ele>876.515</ele>
        <time>2019-03-26T02:53:11Z</time>
      </trkpt>
      <trkpt lat="44.36265" lon="3.74354">
        <ele>878.508</ele>
        <time>2019-03-26T02:53:31Z</time>
      </trkpt>
      <trkpt lat="44.36259" lon="3.74335">
        <ele>881.354</ele>
        <time>2019-03-26T02:53:51Z</time>
      </trkpt>
      <trkpt lat="44.36232" lon="3.74356">
        <ele>885.315</ele>
        <time>2019-03-26T02:54:11Z</time>
      </trkpt>
      <trkpt lat="44.36225" lon="3.74346">
        <ele>888.426</ele>
        <time>2019-03-26T02:54:31Z</time>
      </trkpt>
      <trkpt lat="44.36242" lon="3.74282">
        <ele>897.724</ele>
        <time>2019-03-26T02:54:51Z</time>
      </trkpt>
      <trkpt lat="44.36172" lon="3.74369">
        <ele>902.412</ele>
        <time>2019-03-26T02:55:11Z</time>
      </trkpt>
      <trkpt lat="44.36136" lon="3.74379">
        <ele>914.434</ele>
        <time>2019-03-26T02:55:31Z</time>
      </trkpt>
      <trkpt lat="44.36133" lon="3.74382">
        <ele>914.774</ele>
        <time>2016-06-08T06:28:53Z</time>
      </trkpt>
      <trkpt lat="44.36086" lon="3.74382">
        <ele>919.495</ele>
        <time>2016-06-08T06:29:13Z</time>
      </trkpt>
      <trkpt lat="44.3607" lon="3.74364">
        <ele>924.827</ele>
        <time>2016-06-08T06:29:33Z</time>
      </trkpt>
      <trkpt lat="44.36088" lon="3.74363">
        <ele>925.368</ele>
        <time>2016-06-08T06:29:53Z</time>
      </trkpt>
      <trkpt lat="44.361" lon="3.74338">
        <ele>932.114</ele>
        <time>2016-06-08T06:30:13Z</time>
      </trkpt>
      <trkpt lat="44.36089" lon="3.74323">
        <ele>936.808</ele>
        <time>2016-06-08T06:30:33Z</time>
      </trkpt>
      <trkpt lat="44.36105" lon="3.74297">
        <ele>940.795</ele>
        <time>2016-06-08T06:30:53Z</time>
      </trkpt>
      <trkpt lat="44.36088" lon="3.74292">
        <ele>943.456</ele>
        <time>2016-06-08T06:31:13Z</time>
      </trkpt>
      <trkpt lat="44.36106" lon="3.74265">
        <ele>947.397</ele>
        <time>2016-06-08T06:31:33Z</time>
      </trkpt>
      <trkpt lat="44.36176" lon="3.74101">
        <ele>977.795</ele>
        <time>2016-06-08T06:31:53Z</time>
      </trkpt>
      <trkpt lat="44.36146" lon="3.74113">
        <ele>982.253</ele>
        <time>2016-06-08T06:32:13Z</time>
      </trkpt>
      <trkpt lat="44.36055" lon="3.74149">
        <ele>995.955</ele>
        <time>2016-06-08T06:32:33Z</time>
      </trkpt>
      <trkpt lat="44.35974" lon="3.7413">
        <ele>1009.965</ele>
        <time>2016-06-08T06:32:53Z</time>
      </trkpt>
      <trkpt lat="44.35949" lon="3.7413">
        <ele>1011.256</ele>
        <time>2016-06-08T06:33:13Z</time>
      </trkpt>
      <trkpt lat="44.35926" lon="3.74104">
        <ele>1019.214</ele>
        <time>2016-06-08T06:33:33Z</time>
      </trkpt>
      <trkpt lat="44.35846" lon="3.7406">
        <ele>1040.154</ele>
        <time>2016-06-08T06:33:53Z</time>
      </trkpt>
      <trkpt lat="44.3582" lon="3.74031">
        <ele>1046.509</ele>
        <time>2016-06-08T06:34:13Z</time>
      </trkpt>
      <trkpt lat="44.35777" lon="3.74031">
        <ele>1053.608</ele>
        <time>2016-06-08T06:34:33Z</time>
      </trkpt>
      <trkpt lat="44.35738" lon="3.74051">
        <ele>1053.894</ele>
        <time>2016-06-08T06:34:53Z</time>
      </trkpt>
      <trkpt lat="44.35684" lon="3.74059">
        <ele>1067.695</ele>
        <time>2016-06-08T06:35:13Z</time>
      </trkpt>
      <trkpt lat="44.35705" lon="3.74034">
        <ele>1072.946</ele>
        <time>2016-06-08T06:35:33Z</time>
      </trkpt>
      <trkpt lat="44.35563" lon="3.74055">
        <ele>1095.234</ele>
        <time>2016-06-08T06:35:53Z</time>
      </trkpt>
      <trkpt lat="44.35519" lon="3.74058">
        <ele>1097.522</ele>
        <time>2016-06-08T06:36:13Z</time>
      </trkpt>
      <trkpt lat="44.35483" lon="3.74041">
        <ele>1103.024</ele>
        <time>2016-06-08T06:36:33Z</time>
      </trkpt>
      <trkpt lat="44.354" lon="3.74038">
        <ele>1103.214</ele>
        <time>2016-06-08T06:36:53Z</time>
      </trkpt>
      <trkpt lat="44.35296" lon="3.73981">
        <ele>1099.315</ele>
        <time>2016-06-08T06:37:13Z</time>
      </trkpt>
      <trkpt lat="44.35148" lon="3.73877">
        <ele>1108.937</ele>
        <time>2016-06-08T06:37:33Z</time>
      </trkpt>
      <trkpt lat="44.3506" lon="3.73789">
        <ele>1104.749</ele>
        <time>2016-06-08T06:37:53Z</time>
      </trkpt>
      <trkpt lat="44.34947" lon="3.73721">
        <ele>1100.913</ele>
        <time>2016-06-08T06:38:13Z</time>
      </trkpt>
      <trkpt lat="44.34856" lon="3.73678">
        <ele>1102.108</ele>
        <time>2016-06-08T06:38:33Z</time>
      </trkpt>
      <trkpt lat="44.34796" lon="3.73686">
        <ele>1101.366</ele>
        <time>2016-06-08T06:38:53Z</time>
      </trkpt>
      <trkpt lat="44.3472" lon="3.73677">
        <ele>1102.757</ele>
        <time>2016-06-08T06:39:13Z</time>
      </trkpt>
      <trkpt lat="44.34624" lon="3.7377">
        <ele>1101.628</ele>
        <time>2016-06-08T06:39:33Z</time>
      </trkpt>
      <trkpt lat="44.34583" lon="3.73768">
        <ele>1099.486</ele>
        <time>2016-06-08T06:39:53Z</time>
      </trkpt>
      <trkpt lat="44.34553" lon="3.73745">
        <ele>1100.414</ele>
        <time>2016-06-08T06:40:13Z</time>
      </trkpt>
      <trkpt lat="44.34479" lon="3.73753">
        <ele>1105.736</ele>
        <time>2016-06-08T06:40:33Z</time>
      </trkpt>
      <trkpt lat="44.34426" lon="3.73783">
        <ele>1105.716</ele>
        <time>2016-06-08T06:40:53Z</time>
      </trkpt>
      <trkpt lat="44.34338" lon="3.73788">
        <ele>1104.187</ele>
        <time>2016-06-08T06:41:13Z</time>
      </trkpt>
      <trkpt lat="44.34296" lon="3.73774">
        <ele>1101.039</ele>
        <time>2016-06-08T06:41:33Z</time>
      </trkpt>
      <trkpt lat="44.34276" lon="3.7378">
        <ele>1100.001</ele>
        <time>2016-06-08T06:41:53Z</time>
      </trkpt>
      <trkpt lat="44.34241" lon="3.73741">
        <ele>1096.021</ele>
        <time>2016-06-08T06:42:13Z</time>
      </trkpt>
      <trkpt lat="44.34199" lon="3.73784">
        <ele>1096.208</ele>
        <time>2016-06-08T06:42:33Z</time>
      </trkpt>
      <trkpt lat="44.34194" lon="3.73861">
        <ele>1090.946</ele>
        <time>2016-06-08T06:42:53Z</time>
      </trkpt>
      <trkpt lat="44.34141" lon="3.73986">
        <ele>1083.577</ele>
        <time>2019-03-26T03:10:11Z</time>
      </trkpt>
      <trkpt lat="44.34085" lon="3.74043">
        <ele>1074.118</ele>
        <time>2019-03-26T03:10:31Z</time>
      </trkpt>
      <trkpt lat="44.34054" lon="3.74122">
        <ele>1069.766</ele>
        <time>2019-03-26T03:10:51Z</time>
      </trkpt>
      <trkpt lat="44.3404" lon="3.74232">
        <ele>1063.644</ele>
        <time>2019-03-26T03:11:11Z</time>
      </trkpt>
      <trkpt lat="44.34016" lon="3.74183">
        <ele>1058.766</ele>
        <time>2019-03-26T03:11:31Z</time>
      </trkpt>
      <trkpt lat="44.33989" lon="3.74181">
        <ele>1053.456</ele>
        <time>2019-03-26T03:11:51Z</time>
      </trkpt>
      <trkpt lat="44.33959" lon="3.74136">
        <ele>1052.437</ele>
        <time>2019-03-26T03:12:11Z</time>
      </trkpt>
      <trkpt lat="44.33924" lon="3.742">
        <ele>1048.782</ele>
        <time>2019-03-26T03:12:31Z</time>
      </trkpt>
      <trkpt lat="44.3392" lon="3.74256">
        <ele>1037.743</ele>
        <time>2019-03-26T03:12:51Z</time>
      </trkpt>
      <trkpt lat="44.33899" lon="3.74299">
        <ele>1029.317</ele>
        <time>2016-06-08T06:44:33Z</time>
      </trkpt>
      <trkpt lat="44.33856" lon="3.74306">
        <ele>1028.008</ele>
        <time>2016-06-08T06:44:53Z</time>
      </trkpt>
      <trkpt lat="44.33833" lon="3.74318">
        <ele>1025.441</ele>
        <time>2016-06-08T06:45:13Z</time>
      </trkpt>
      <trkpt lat="44.33811" lon="3.74315">
        <ele>1027.812</ele>
        <time>2016-06-08T06:45:33Z</time>
      </trkpt>
      <trkpt lat="44.338" lon="3.74404">
        <ele>1013.283</ele>
        <time>2016-06-08T06:45:53Z</time>
      </trkpt>
      <trkpt lat="44.33757" lon="3.74461">
        <ele>1013.161</ele>
        <time>2016-06-08T06:46:13Z</time>
      </trkpt>
      <trkpt lat="44.33799" lon="3.74466">
        <ele>1009.259</ele>
        <time>2016-06-08T06:46:33Z</time>
      </trkpt>
      <trkpt lat="44.33833" lon="3.74446">
        <ele>1008.241</ele>
        <time>2016-06-08T06:46:53Z</time>
      </trkpt>
      <trkpt lat="44.33885" lon="3.74437">
        <ele>1007.091</ele>
        <time>2016-06-08T06:47:13Z</time>
      </trkpt>
      <trkpt lat="44.33927" lon="3.74419">
        <ele>1004.862</ele>
        <time>2016-06-08T06:47:33Z</time>
      </trkpt>
      <trkpt lat="44.33952" lon="3.74463">
        <ele>1006.663</ele>
        <time>2016-06-08T06:47:53Z</time>
      </trkpt>
      <trkpt lat="44.33952" lon="3.74557">
        <ele>1004.244</ele>
        <time>2016-06-08T06:48:13Z</time>
      </trkpt>
      <trkpt lat="44.33929" lon="3.74652">
        <ele>1004.618</ele>
        <time>2016-06-08T06:48:33Z</time>
      </trkpt>
      <trkpt lat="44.33937" lon="3.7471">
        <ele>999.408</ele>
        <time>2016-06-08T06:48:53Z</time>
      </trkpt>
      <trkpt lat="44.33924" lon="3.7478">
        <ele>1001.699</ele>
        <time>2016-06-08T06:49:13Z</time>
      </trkpt>
      <trkpt lat="44.33912" lon="3.74908">
        <ele>1006.34</ele>
        <time>2016-06-08T06:49:33Z</time>
      </trkpt>
      <trkpt lat="44.33896" lon="3.74934">
        <ele>1010.521</ele>
        <time>2016-06-08T06:49:53Z</time>
      </trkpt>
      <trkpt lat="44.33838" lon="3.74963">
        <ele>1020.469</ele>
        <time>2016-06-08T06:50:13Z</time>
      </trkpt>
      <trkpt lat="44.33805" lon="3.74948">
        <ele>1027.797</ele>
        <time>2016-06-08T06:50:33Z</time>
      </trkpt>
      <trkpt lat="44.33752" lon="3.74979">
        <ele>1032.839</ele>
        <time>2016-06-08T06:50:53Z</time>
      </trkpt>
      <trkpt lat="44.33678" lon="3.74999">
        <ele>1047.689</ele>
        <time>2016-06-08T06:51:13Z</time>
      </trkpt>
      <trkpt lat="44.3344" lon="3.75165">
        <ele>1078.83</ele>
        <time>2016-06-08T06:51:33Z</time>
      </trkpt>
      <trkpt lat="44.33306" lon="3.75325">
        <ele>1086.095</ele>
        <time>2016-06-08T06:51:53Z</time>
      </trkpt>
      <trkpt lat="44.33221" lon="3.75355">
        <ele>1088.149</ele>
        <time>2016-06-08T06:52:13Z</time>
      </trkpt>
      <trkpt lat="44.33198" lon="3.7537">
        <ele>1091.823</ele>
        <time>2016-06-08T06:52:33Z</time>
      </trkpt>
      <trkpt lat="44.33172" lon="3.75373">
        <ele>1094.008</ele>
        <time>2016-06-08T06:52:53Z</time>
      </trkpt>
      <trkpt lat="44.33101" lon="3.75432">
        <ele>1109.492</ele>
        <time>2016-06-08T06:53:13Z</time>
      </trkpt>
      <trkpt lat="44.33027" lon="3.75428">
        <ele>1126.073</ele>
        <time>2016-06-08T06:53:33Z</time>
      </trkpt>
      <trkpt lat="44.32952" lon="3.75386">
        <ele>1137.414</ele>
        <time>2016-06-08T06:53:53Z</time>
      </trkpt>
      <trkpt lat="44.32912" lon="3.75283">
        <ele>1150.562</ele>
        <time>2016-06-08T06:54:13Z</time>
      </trkpt>
      <trkpt lat="44.32848" lon="3.75237">
        <ele>1149.11</ele>
        <time>2016-06-08T06:54:33Z</time>
      </trkpt>
      <trkpt lat="44.32745" lon="3.75219">
        <ele>1156.232</ele>
        <time>2016-06-08T06:54:53Z</time>
      </trkpt>
      <trkpt lat="44.32726" lon="3.75199">
        <ele>1160.232</ele>
        <time>2016-06-08T06:55:13Z</time>
      </trkpt>
      <trkpt lat="44.32689" lon="3.75113">
        <ele>1161.173</ele>
        <time>2016-06-08T06:55:33Z</time>
      </trkpt>
      <trkpt lat="44.32649" lon="3.7505">
        <ele>1166.339</ele>
        <time>2016-06-08T06:55:53Z</time>
      </trkpt>
      <trkpt lat="44.32526" lon="3.74909">
        <ele>1180.101</ele>
        <time>2016-06-08T06:56:13Z</time>
      </trkpt>
      <trkpt lat="44.32373" lon="3.74759">
        <ele>1196.821</ele>
        <time>2016-06-08T06:56:33Z</time>
      </trkpt>
      <trkpt lat="44.32307" lon="3.74723">
        <ele>1208.708</ele>
        <time>2016-06-08T06:56:53Z</time>
      </trkpt>
      <trkpt lat="44.32262" lon="3.74727">
        <ele>1213.756</ele>
        <time>2016-06-08T06:57:13Z</time>
      </trkpt>
      <trkpt lat="44.3215" lon="3.74786">
        <ele>1220.957</ele>
        <time>2019-03-26T03:26:11Z</time>
      </trkpt>
      <trkpt lat="44.32146" lon="3.74808">
        <ele>1227.478</ele>
        <time>2019-03-26T03:26:31Z</time>
      </trkpt>
      <trkpt lat="44.32038" lon="3.74933">
        <ele>1255.166</ele>
        <time>2016-06-08T06:58:13Z</time>
      </trkpt>
      <trkpt lat="44.31975" lon="3.74929">
        <ele>1267.474</ele>
        <time>2016-06-08T06:58:33Z</time>
      </trkpt>
      <trkpt lat="44.31897" lon="3.74804">
        <ele>1267.436</ele>
        <time>2016-06-08T06:58:53Z</time>
      </trkpt>
      <trkpt lat="44.31806" lon="3.74699">
        <ele>1289.466</ele>
        <time>2016-06-08T06:59:13Z</time>
      </trkpt>
      <trkpt lat="44.31684" lon="3.74596">
        <ele>1306.887</ele>
        <time>2016-06-08T06:59:33Z</time>
      </trkpt>
      <trkpt lat="44.3167" lon="3.74515">
        <ele>1308.379</ele>
        <time>2016-06-08T06:59:53Z</time>
      </trkpt>
      <trkpt lat="44.31634" lon="3.74431">
        <ele>1312.405</ele>
        <time>2016-06-08T07:00:13Z</time>
      </trkpt>
      <trkpt lat="44.316" lon="3.7431">
        <ele>1323.225</ele>
        <time>2016-06-08T07:00:33Z</time>
      </trkpt>
      <trkpt lat="44.31566" lon="3.74171">
        <ele>1330.808</ele>
        <time>2019-03-26T03:29:31Z</time>
      </trkpt>
      <trkpt lat="44.31535" lon="3.74143">
        <ele>1332.09</ele>
        <time>2019-03-26T03:29:51Z</time>
      </trkpt>
      <trkpt lat="44.31551" lon="3.74092">
        <ele>1337.341</ele>
        <time>2019-03-26T03:30:11Z</time>
      </trkpt>
      <trkpt lat="44.3149" lon="3.73678">
        <ele>1395.572</ele>
        <time>2016-06-08T07:01:13Z</time>
      </trkpt>
      <trkpt lat="44.31556" lon="3.73603">
        <ele>1388.43</ele>
        <time>2016-06-08T07:01:33Z</time>
      </trkpt>
      <trkpt lat="44.31634" lon="3.73497">
        <ele>1375.748</ele>
        <time>2016-06-08T07:01:53Z</time>
      </trkpt>
      <trkpt lat="44.31707" lon="3.72986">
        <ele>1392.75</ele>
        <time>2016-06-08T07:02:13Z</time>
      </trkpt>
      <trkpt lat="44.31765" lon="3.72791">
        <ele>1411.24</ele>
        <time>2016-06-08T07:02:33Z</time>
      </trkpt>
      <trkpt lat="44.31727" lon="3.72505">
        <ele>1413.981</ele>
        <time>2016-06-08T07:02:53Z</time>
      </trkpt>
      <trkpt lat="44.31671" lon="3.72295">
        <ele>1405.941</ele>
        <time>2016-06-08T07:03:13Z</time>
      </trkpt>
      <trkpt lat="44.31663" lon="3.72168">
        <ele>1398.681</ele>
        <time>2016-06-08T07:03:33Z</time>
      </trkpt>
      <trkpt lat="44.31673" lon="3.72039">
        <ele>1385.309</ele>
        <time>2016-06-08T07:03:53Z</time>
      </trkpt>
      <trkpt lat="44.31816" lon="3.71788">
        <ele>1350.408</ele>
        <time>2016-06-08T07:04:13Z</time>
      </trkpt>
      <trkpt lat="44.31997" lon="3.71622">
        <ele>1301.017</ele>
        <time>2016-06-08T07:04:33Z</time>
      </trkpt>
      <trkpt lat="44.31917" lon="3.71501">
        <ele>1294.168</ele>
        <time>2016-06-08T07:04:53Z</time>
      </trkpt>
      <trkpt lat="44.31911" lon="3.71428">
        <ele>1282.189</ele>
        <time>2016-06-08T07:05:13Z</time>
      </trkpt>
      <trkpt lat="44.31891" lon="3.71385">
        <ele>1277.947</ele>
        <time>2016-06-08T07:05:33Z</time>
      </trkpt>
      <trkpt lat="44.31875" lon="3.71277">
        <ele>1260.935</ele>
        <time>2016-06-08T07:05:53Z</time>
      </trkpt>
      <trkpt lat="44.31873" lon="3.71216">
        <ele>1253.477</ele>
        <time>2016-06-08T07:06:13Z</time>
      </trkpt>
      <trkpt lat="44.31859" lon="3.71174">
        <ele>1247.467</ele>
        <time>2016-06-08T07:06:33Z</time>
      </trkpt>
      <trkpt lat="44.3184" lon="3.71154">
        <ele>1242.038</ele>
        <time>2019-03-26T03:36:11Z</time>
      </trkpt>
      <trkpt lat="44.3197" lon="3.70853">
        <ele>1201.231</ele>
        <time>2016-06-08T07:07:13Z</time>
      </trkpt>
      <trkpt lat="44.32006" lon="3.7084">
        <ele>1200.761</ele>
        <time>2016-06-08T07:07:33Z</time>
      </trkpt>
      <trkpt lat="44.32051" lon="3.70783">
        <ele>1197.807</ele>
        <time>2016-06-08T07:07:53Z</time>
      </trkpt>
      <trkpt lat="44.32084" lon="3.70692">
        <ele>1188.608</ele>
        <time>2016-06-08T07:08:13Z</time>
      </trkpt>
      <trkpt lat="44.32105" lon="3.70668">
        <ele>1187.386</ele>
        <time>2016-06-08T07:08:33Z</time>
      </trkpt>
      <trkpt lat="44.32126" lon="3.70606">
        <ele>1180.697</ele>
        <time>2016-06-08T07:08:53Z</time>
      </trkpt>
      <trkpt lat="44.32176" lon="3.70535">
        <ele>1176.188</ele>
        <time>2016-06-08T07:09:13Z</time>
      </trkpt>
      <trkpt lat="44.32186" lon="3.70492">
        <ele>1175.786</ele>
        <time>2016-06-08T07:09:33Z</time>
      </trkpt>
      <trkpt lat="44.32214" lon="3.7042">
        <ele>1179.564</ele>
        <time>2016-06-08T07:09:53Z</time>
      </trkpt>
      <trkpt lat="44.3222" lon="3.70364">
        <ele>1178.346</ele>
        <time>2016-06-08T07:10:13Z</time>
      </trkpt>
      <trkpt lat="44.32252" lon="3.70298">
        <ele>1182.136</ele>
        <time>2016-06-08T07:10:33Z</time>
      </trkpt>
      <trkpt lat="44.32278" lon="3.70166">
        <ele>1178.027</ele>
        <time>2016-06-08T07:10:53Z</time>
      </trkpt>
      <trkpt lat="44.32289" lon="3.70078">
        <ele>1172.081</ele>
        <time>2016-06-08T07:11:13Z</time>
      </trkpt>
      <trkpt lat="44.32311" lon="3.70031">
        <ele>1165.561</ele>
        <time>2016-06-08T07:11:33Z</time>
      </trkpt>
      <trkpt lat="44.32384" lon="3.69953">
        <ele>1151.617</ele>
        <time>2016-06-08T07:11:53Z</time>
      </trkpt>
      <trkpt lat="44.32446" lon="3.69827">
        <ele>1142.008</ele>
        <time>2016-06-08T07:12:13Z</time>
      </trkpt>
      <trkpt lat="44.3243" lon="3.69768">
        <ele>1139.291</ele>
        <time>2016-06-08T07:12:33Z</time>
      </trkpt>
      <trkpt lat="44.32444" lon="3.69753">
        <ele>1138.532</ele>
        <time>2016-06-08T07:12:53Z</time>
      </trkpt>
      <trkpt lat="44.32474" lon="3.69642">
        <ele>1124.423</ele>
        <time>2016-06-08T07:13:13Z</time>
      </trkpt>
      <trkpt lat="44.32495" lon="3.69576">
        <ele>1121.211</ele>
        <time>2016-06-08T07:13:33Z</time>
      </trkpt>
      <trkpt lat="44.3252" lon="3.69282">
        <ele>1106.439</ele>
        <time>2016-06-08T07:13:53Z</time>
      </trkpt>
      <trkpt lat="44.32549" lon="3.69088">
        <ele>1109.621</ele>
        <time>2016-06-08T07:14:13Z</time>
      </trkpt>
      <trkpt lat="44.32511" lon="3.68955">
        <ele>1091.241</ele>
        <time>2016-06-08T07:14:33Z</time>
      </trkpt>
      <trkpt lat="44.32496" lon="3.68871">
        <ele>1087.912</ele>
        <time>2016-06-08T07:14:53Z</time>
      </trkpt>
      <trkpt lat="44.32503" lon="3.68769">
        <ele>1087.429</ele>
        <time>2016-06-08T07:15:13Z</time>
      </trkpt>
      <trkpt lat="44.32497" lon="3.68731">
        <ele>1084.2</ele>
        <time>2016-06-08T07:15:33Z</time>
      </trkpt>
      <trkpt lat="44.32555" lon="3.68498">
        <ele>1078.22</ele>
        <time>2016-06-08T07:15:53Z</time>
      </trkpt>
      <trkpt lat="44.32617" lon="3.68279">
        <ele>1078.708</ele>
        <time>2016-06-08T07:16:13Z</time>
      </trkpt>
      <trkpt lat="44.32622" lon="3.6825">
        <ele>1078.295</ele>
        <time>2016-06-08T07:16:33Z</time>
      </trkpt>
      <trkpt lat="44.32624" lon="3.67984">
        <ele>1075.826</ele>
        <time>2016-06-08T07:16:53Z</time>
      </trkpt>
      <trkpt lat="44.32612" lon="3.67885">
        <ele>1074.927</ele>
        <time>2016-06-08T07:17:13Z</time>
      </trkpt>
      <trkpt lat="44.32655" lon="3.67716">
        <ele>1068.295</ele>
        <time>2016-06-08T07:17:33Z</time>
      </trkpt>
      <trkpt lat="44.32662" lon="3.67555">
        <ele>1065.743</ele>
        <time>2016-06-08T07:17:53Z</time>
      </trkpt>
      <trkpt lat="44.32639" lon="3.67449">
        <ele>1060.465</ele>
        <time>2016-06-08T07:18:13Z</time>
      </trkpt>
      <trkpt lat="44.32594" lon="3.67362">
        <ele>1059.295</ele>
        <time>2016-06-08T07:18:33Z</time>
      </trkpt>
      <trkpt lat="44.32527" lon="3.6728">
        <ele>1056.666</ele>
        <time>2016-06-08T07:18:53Z</time>
      </trkpt>
      <trkpt lat="44.3248" lon="3.67162">
        <ele>1049.429</ele>
        <time>2016-06-08T07:19:13Z</time>
      </trkpt>
      <trkpt lat="44.32496" lon="3.67056">
        <ele>1042.9</ele>
        <time>2016-06-08T07:19:33Z</time>
      </trkpt>
      <trkpt lat="44.3247" lon="3.67015">
        <ele>1048.12</ele>
        <time>2016-06-08T07:19:53Z</time>
      </trkpt>
      <trkpt lat="44.32459" lon="3.66953">
        <ele>1046.308</ele>
        <time>2016-06-08T07:20:13Z</time>
      </trkpt>
      <trkpt lat="44.32483" lon="3.66806">
        <ele>1047.575</ele>
        <time>2016-06-08T07:20:33Z</time>
      </trkpt>
      <trkpt lat="44.32488" lon="3.66693">
        <ele>1057.536</ele>
        <time>2016-06-08T07:20:53Z</time>
      </trkpt>
      <trkpt lat="44.32589" lon="3.6649">
        <ele>1060.777</ele>
        <time>2016-06-08T07:21:13Z</time>
      </trkpt>
      <trkpt lat="44.32641" lon="3.66412">
        <ele>1054.955</ele>
        <time>2016-06-08T07:21:33Z</time>
      </trkpt>
      <trkpt lat="44.32678" lon="3.66346">
        <ele>1057.933</ele>
        <time>2016-06-08T07:21:53Z</time>
      </trkpt>
      <trkpt lat="44.32719" lon="3.66323">
        <ele>1054.445</ele>
        <time>2016-06-08T07:22:13Z</time>
      </trkpt>
      <trkpt lat="44.32785" lon="3.66317">
        <ele>1039.615</ele>
        <time>2016-06-08T07:22:33Z</time>
      </trkpt>
      <trkpt lat="44.32802" lon="3.66286">
        <ele>1037.746</ele>
        <time>2016-06-08T07:22:53Z</time>
      </trkpt>
      <trkpt lat="44.32816" lon="3.66215">
        <ele>1034.086</ele>
        <time>2016-06-08T07:23:13Z</time>
      </trkpt>
      <trkpt lat="44.32807" lon="3.66169">
        <ele>1041.76</ele>
        <time>2016-06-08T07:23:33Z</time>
      </trkpt>
      <trkpt lat="44.3281" lon="3.66084">
        <ele>1044.626</ele>
        <time>2016-06-08T07:23:53Z</time>
      </trkpt>
      <trkpt lat="44.32852" lon="3.66027">
        <ele>1031.308</ele>
        <time>2016-06-08T07:24:13Z</time>
      </trkpt>
      <trkpt lat="44.32902" lon="3.65883">
        <ele>1026.021</ele>
        <time>2016-06-08T07:24:33Z</time>
      </trkpt>
      <trkpt lat="44.32894" lon="3.65812">
        <ele>1034.122</ele>
        <time>2016-06-08T07:24:53Z</time>
      </trkpt>
      <trkpt lat="44.32922" lon="3.65771">
        <ele>1027.393</ele>
        <time>2016-06-08T07:25:13Z</time>
      </trkpt>
      <trkpt lat="44.32923" lon="3.65727">
        <ele>1030.151</ele>
        <time>2016-06-08T07:25:33Z</time>
      </trkpt>
      <trkpt lat="44.32939" lon="3.65681">
        <ele>1027.049</ele>
        <time>2016-06-08T07:25:53Z</time>
      </trkpt>
      <trkpt lat="44.3291" lon="3.65598">
        <ele>1038.031</ele>
        <time>2016-06-08T07:26:13Z</time>
      </trkpt>
      <trkpt lat="44.3287" lon="3.6554">
        <ele>1028.421</ele>
        <time>2016-06-08T07:26:33Z</time>
      </trkpt>
      <trkpt lat="44.32829" lon="3.65373">
        <ele>1017.612</ele>
        <time>2016-06-08T07:26:53Z</time>
      </trkpt>
      <trkpt lat="44.32844" lon="3.6533">
        <ele>1014.197</ele>
        <time>2016-06-08T07:27:13Z</time>
      </trkpt>
      <trkpt lat="44.32929" lon="3.65255">
        <ele>1020.623</ele>
        <time>2016-06-08T07:27:33Z</time>
      </trkpt>
      <trkpt lat="44.32994" lon="3.65157">
        <ele>1019.625</ele>
        <time>2016-06-08T07:27:53Z</time>
      </trkpt>
      <trkpt lat="44.32984" lon="3.65051">
        <ele>1014.208</ele>
        <time>2016-06-08T07:28:13Z</time>
      </trkpt>
      <trkpt lat="44.32898" lon="3.64967">
        <ele>997.942</ele>
        <time>2016-06-08T07:28:33Z</time>
      </trkpt>
      <trkpt lat="44.32868" lon="3.64917">
        <ele>987.533</ele>
        <time>2019-03-26T03:58:11Z</time>
      </trkpt>
      <trkpt lat="44.32858" lon="3.64816">
        <ele>985.084</ele>
        <time>2019-03-26T03:58:31Z</time>
      </trkpt>
      <trkpt lat="44.32873" lon="3.64735">
        <ele>979.872</ele>
        <time>2016-06-08T07:29:13Z</time>
      </trkpt>
      <trkpt lat="44.32968" lon="3.64608">
        <ele>974.55</ele>
        <time>2016-06-08T07:29:33Z</time>
      </trkpt>
      <trkpt lat="44.32985" lon="3.6452">
        <ele>970.892</ele>
        <time>2016-06-08T07:29:53Z</time>
      </trkpt>
      <trkpt lat="44.32969" lon="3.64378">
        <ele>961.782</ele>
        <time>2016-06-08T07:30:13Z</time>
      </trkpt>
      <trkpt lat="44.32931" lon="3.64268">
        <ele>950.433</ele>
        <time>2016-06-08T07:30:33Z</time>
      </trkpt>
      <trkpt lat="44.32903" lon="3.64194">
        <ele>958.467</ele>
        <time>2016-06-08T07:30:53Z</time>
      </trkpt>
      <trkpt lat="44.32909" lon="3.63873">
        <ele>938.981</ele>
        <time>2016-06-08T07:31:13Z</time>
      </trkpt>
      <trkpt lat="44.32929" lon="3.63762">
        <ele>938.719</ele>
        <time>2016-06-08T07:31:33Z</time>
      </trkpt>
      <trkpt lat="44.32972" lon="3.6367">
        <ele>927.208</ele>
        <time>2016-06-08T07:31:53Z</time>
      </trkpt>
      <trkpt lat="44.32968" lon="3.63632">
        <ele>924.039</ele>
        <time>2016-06-08T07:32:13Z</time>
      </trkpt>
      <trkpt lat="44.32916" lon="3.63602">
        <ele>929.38</ele>
        <time>2016-06-08T07:32:33Z</time>
      </trkpt>
      <trkpt lat="44.32865" lon="3.63491">
        <ele>925.291</ele>
        <time>2016-06-08T07:32:53Z</time>
      </trkpt>
      <trkpt lat="44.32889" lon="3.63311">
        <ele>912.569</ele>
        <time>2016-06-08T07:33:13Z</time>
      </trkpt>
      <trkpt lat="44.32927" lon="3.63249">
        <ele>897.937</ele>
        <time>2016-06-08T07:33:33Z</time>
      </trkpt>
      <trkpt lat="44.32956" lon="3.63176">
        <ele>892.519</ele>
        <time>2016-06-08T07:33:53Z</time>
      </trkpt>
      <trkpt lat="44.32989" lon="3.63036">
        <ele>894.049</ele>
        <time>2016-06-08T07:34:13Z</time>
      </trkpt>
      <trkpt lat="44.33023" lon="3.62996">
        <ele>891.83</ele>
        <time>2016-06-08T07:34:33Z</time>
      </trkpt>
      <trkpt lat="44.33065" lon="3.62978">
        <ele>894.378</ele>
        <time>2016-06-08T07:34:53Z</time>
      </trkpt>
      <trkpt lat="44.33104" lon="3.6298">
        <ele>887.433</ele>
        <time>2016-06-08T07:35:13Z</time>
      </trkpt>
      <trkpt lat="44.3313" lon="3.62925">
        <ele>886.026</ele>
        <time>2016-06-08T07:35:33Z</time>
      </trkpt>
      <trkpt lat="44.33074" lon="3.62686">
        <ele>890.808</ele>
        <time>2016-06-08T07:35:53Z</time>
      </trkpt>
      <trkpt lat="44.33099" lon="3.62612">
        <ele>883.18</ele>
        <time>2016-06-08T07:36:13Z</time>
      </trkpt>
      <trkpt lat="44.33113" lon="3.62533">
        <ele>887.791</ele>
        <time>2016-06-08T07:36:33Z</time>
      </trkpt>
      <trkpt lat="44.33153" lon="3.62494">
        <ele>869.652</ele>
        <time>2016-06-08T07:36:53Z</time>
      </trkpt>
      <trkpt lat="44.33185" lon="3.62437">
        <ele>884.03</ele>
        <time>2016-06-08T07:37:13Z</time>
      </trkpt>
      <trkpt lat="44.33222" lon="3.62437">
        <ele>872.118</ele>
        <time>2016-06-08T07:37:33Z</time>
      </trkpt>
      <trkpt lat="44.33307" lon="3.6247">
        <ele>859.53</ele>
        <time>2016-06-08T07:37:53Z</time>
      </trkpt>
      <trkpt lat="44.33361" lon="3.6247">
        <ele>860.77</ele>
        <time>2016-06-08T07:38:13Z</time>
      </trkpt>
      <trkpt lat="44.33449" lon="3.62402">
        <ele>860.091</ele>
        <time>2016-06-08T07:38:33Z</time>
      </trkpt>
      <trkpt lat="44.33503" lon="3.62362">
        <ele>852.184</ele>
        <time>2016-06-08T07:38:53Z</time>
      </trkpt>
      <trkpt lat="44.33504" lon="3.62377">
        <ele>850.507</ele>
        <time>2016-06-08T07:39:13Z</time>
      </trkpt>
      <trkpt lat="44.33459" lon="3.62434">
        <ele>849.317</ele>
        <time>2016-06-08T07:39:33Z</time>
      </trkpt>
      <trkpt lat="44.33424" lon="3.62501">
        <ele>837.708</ele>
        <time>2016-06-08T07:39:53Z</time>
      </trkpt>
      <trkpt lat="44.33376" lon="3.62541">
        <ele>836.781</ele>
        <time>2016-06-08T07:40:13Z</time>
      </trkpt>
      <trkpt lat="44.33322" lon="3.62555">
        <ele>828.952</ele>
        <time>2016-06-08T07:40:33Z</time>
      </trkpt>
      <trkpt lat="44.33275" lon="3.62555">
        <ele>822.933</ele>
        <time>2016-06-08T07:40:53Z</time>
      </trkpt>
      <trkpt lat="44.33226" lon="3.62537">
        <ele>828.241</ele>
        <time>2016-06-08T07:41:13Z</time>
      </trkpt>
      <trkpt lat="44.33182" lon="3.62601">
        <ele>831.349</ele>
        <time>2016-06-08T07:41:33Z</time>
      </trkpt>
      <trkpt lat="44.33195" lon="3.62667">
        <ele>816.761</ele>
        <time>2016-06-08T07:41:53Z</time>
      </trkpt>
      <trkpt lat="44.3318" lon="3.62708">
        <ele>827.661</ele>
        <time>2016-06-08T07:42:13Z</time>
      </trkpt>
      <trkpt lat="44.33183" lon="3.62741">
        <ele>828.862</ele>
        <time>2016-06-08T07:42:33Z</time>
      </trkpt>
      <trkpt lat="44.33229" lon="3.62775">
        <ele>802.218</ele>
        <time>2016-06-08T07:42:53Z</time>
      </trkpt>
      <trkpt lat="44.33282" lon="3.62859">
        <ele>791.598</ele>
        <time>2016-06-08T07:43:13Z</time>
      </trkpt>
      <trkpt lat="44.33335" lon="3.62945">
        <ele>785.817</ele>
        <time>2016-06-08T07:43:33Z</time>
      </trkpt>
      <trkpt lat="44.33358" lon="3.62966">
        <ele>784.608</ele>
        <time>2016-06-08T07:43:53Z</time>
      </trkpt>
      <trkpt lat="44.33359" lon="3.63004">
        <ele>786.394</ele>
        <time>2016-06-08T07:44:13Z</time>
      </trkpt>
      <trkpt lat="44.33337" lon="3.63073">
        <ele>784.345</ele>
        <time>2016-06-08T07:44:33Z</time>
      </trkpt>
      <trkpt lat="44.33304" lon="3.63229">
        <ele>769.716</ele>
        <time>2016-06-08T07:44:53Z</time>
      </trkpt>
      <trkpt lat="44.33285" lon="3.63242">
        <ele>771.874</ele>
        <time>2016-06-08T07:45:13Z</time>
      </trkpt>
      <trkpt lat="44.33207" lon="3.63274">
        <ele>777.482</ele>
        <time>2016-06-08T07:45:33Z</time>
      </trkpt>
      <trkpt lat="44.33209" lon="3.63291">
        <ele>775.264</ele>
        <time>2016-06-08T07:45:53Z</time>
      </trkpt>
      <trkpt lat="44.33262" lon="3.63352">
        <ele>762.054</ele>
        <time>2016-06-08T07:46:13Z</time>
      </trkpt>
      <trkpt lat="44.3331" lon="3.63439">
        <ele>755.915</ele>
        <time>2016-06-08T07:46:33Z</time>
      </trkpt>
      <trkpt lat="44.33351" lon="3.63615">
        <ele>762.472</ele>
        <time>2016-06-08T07:46:53Z</time>
      </trkpt>
      <trkpt lat="44.33378" lon="3.63622">
        <ele>757.413</ele>
        <time>2016-06-08T07:47:13Z</time>
      </trkpt>
      <trkpt lat="44.33389" lon="3.63573">
        <ele>747.514</ele>
        <time>2016-06-08T07:47:33Z</time>
      </trkpt>
      <trkpt lat="44.33415" lon="3.63543">
        <ele>740.508</ele>
        <time>2016-06-08T07:47:53Z</time>
      </trkpt>
      <trkpt lat="44.33395" lon="3.63498">
        <ele>738.71</ele>
        <time>2016-06-08T07:48:13Z</time>
      </trkpt>
      <trkpt lat="44.33454" lon="3.63485">
        <ele>735.431</ele>
        <time>2016-06-08T07:48:33Z</time>
      </trkpt>
      <trkpt lat="44.33466" lon="3.63384">
        <ele>723.612</ele>
        <time>2016-06-08T07:48:53Z</time>
      </trkpt>
      <trkpt lat="44.33509" lon="3.63314">
        <ele>713.08</ele>
        <time>2016-06-08T07:49:13Z</time>
      </trkpt>
      <trkpt lat="44.33585" lon="3.63231">
        <ele>695.658</ele>
        <time>2016-06-08T07:49:33Z</time>
      </trkpt>
      <trkpt lat="44.33678" lon="3.63145">
        <ele>679.63</ele>
        <time>2016-06-08T07:49:53Z</time>
      </trkpt>
      <trkpt lat="44.33727" lon="3.63078">
        <ele>672.57</ele>
        <time>2016-06-08T07:50:13Z</time>
      </trkpt>
      <trkpt lat="44.338" lon="3.63038">
        <ele>662.991</ele>
        <time>2016-06-08T07:50:33Z</time>
      </trkpt>
      <trkpt lat="44.33835" lon="3.63032">
        <ele>658.834</ele>
        <time>2016-06-08T07:50:53Z</time>
      </trkpt>
      <trkpt lat="44.33888" lon="3.63035">
        <ele>658.855</ele>
        <time>2016-06-08T07:51:13Z</time>
      </trkpt>
      <trkpt lat="44.33905" lon="3.62996">
        <ele>654.81</ele>
        <time>2016-06-08T07:51:33Z</time>
      </trkpt>
      <trkpt lat="44.33969" lon="3.62977">
        <ele>646.608</ele>
        <time>2016-06-08T07:51:53Z</time>
      </trkpt>
      <trkpt lat="44.34064" lon="3.62995">
        <ele>645.346</ele>
        <time>2016-06-08T07:52:13Z</time>
      </trkpt>
      <trkpt lat="44.34234" lon="3.62967">
        <ele>628.767</ele>
        <time>2016-06-08T07:52:33Z</time>
      </trkpt>
      <trkpt lat="44.34336" lon="3.62907">
        <ele>616.688</ele>
        <time>2016-06-08T07:52:53Z</time>
      </trkpt>
      <trkpt lat="44.34399" lon="3.62796">
        <ele>603.076</ele>
        <time>2016-06-08T07:53:13Z</time>
      </trkpt>
      <trkpt lat="44.34485" lon="3.62755">
        <ele>602.824</ele>
        <time>2016-06-08T07:53:33Z</time>
      </trkpt>
      <trkpt lat="44.34526" lon="3.62692">
        <ele>598.716</ele>
        <time>2016-06-08T07:53:53Z</time>
      </trkpt>
      <trkpt lat="44.34524" lon="3.62613">
        <ele>598.576</ele>
        <time>2016-06-08T07:54:13Z</time>
      </trkpt>
      <trkpt lat="44.34567" lon="3.62536">
        <ele>587.917</ele>
        <time>2016-06-08T07:54:33Z</time>
      </trkpt>
      <trkpt lat="44.34571" lon="3.62405">
        <ele>599.718</ele>
        <time>2016-06-08T07:54:53Z</time>
      </trkpt>
      <trkpt lat="44.34596" lon="3.62341">
        <ele>588.698</ele>
        <time>2016-06-08T07:55:13Z</time>
      </trkpt>
      <trkpt lat="44.34582" lon="3.62285">
        <ele>595.017</ele>
        <time>2016-06-08T07:55:33Z</time>
      </trkpt>
      <trkpt lat="44.34576" lon="3.62217">
        <ele>590.208</ele>
        <time>2016-06-08T07:55:53Z</time>
      </trkpt>
      <trkpt lat="44.34529" lon="3.6204">
        <ele>583.434</ele>
        <time>2016-06-08T07:56:13Z</time>
      </trkpt>
      <trkpt lat="44.34426" lon="3.6184">
        <ele>583.165</ele>
        <time>2016-06-08T07:56:33Z</time>
      </trkpt>
      <trkpt lat="44.3439" lon="3.6176">
        <ele>579.646</ele>
        <time>2016-06-08T07:56:53Z</time>
      </trkpt>
      <trkpt lat="44.34402" lon="3.61708">
        <ele>576.154</ele>
        <time>2016-06-08T07:57:13Z</time>
      </trkpt>
      <trkpt lat="44.34387" lon="3.61643">
        <ele>576.912</ele>
        <time>2016-06-08T07:57:33Z</time>
      </trkpt>
      <trkpt lat="44.34353" lon="3.61565">
        <ele>580.124</ele>
        <time>2016-06-08T07:57:53Z</time>
      </trkpt>
      <trkpt lat="44.34326" lon="3.61371">
        <ele>587.844</ele>
        <time>2016-06-08T07:58:13Z</time>
      </trkpt>
      <trkpt lat="44.34335" lon="3.61258">
        <ele>584.545</ele>
        <time>2016-06-08T07:58:33Z</time>
      </trkpt>
      <trkpt lat="44.34337" lon="3.61183">
        <ele>590.926</ele>
        <time>2016-06-08T07:58:53Z</time>
      </trkpt>
      <trkpt lat="44.34374" lon="3.61071">
        <ele>587.247</ele>
        <time>2019-03-26T04:28:51Z</time>
      </trkpt>
      <trkpt lat="44.34407" lon="3.61006">
        <ele>586.111</ele>
        <time>2019-03-26T04:29:11Z</time>
      </trkpt>
      <trkpt lat="44.34422" lon="3.60916">
        <ele>583.808</ele>
        <time>2019-03-26T04:29:31Z</time>
      </trkpt>
      <trkpt lat="44.34422" lon="3.60855">
        <ele>578.165</ele>
        <time>2019-03-26T04:29:51Z</time>
      </trkpt>
      <trkpt lat="44.34358" lon="3.6086">
        <ele>578.976</ele>
        <time>2019-03-26T04:30:11Z</time>
      </trkpt>
      <trkpt lat="44.34302" lon="3.6082">
        <ele>576.977</ele>
        <time>2019-03-26T04:30:31Z</time>
      </trkpt>
      <trkpt lat="44.34236" lon="3.60741">
        <ele>581.345</ele>
        <time>2019-03-26T04:30:51Z</time>
      </trkpt>
      <trkpt lat="44.3421" lon="3.60721">
        <ele>580.153</ele>
        <time>2019-03-26T04:31:11Z</time>
      </trkpt>
      <trkpt lat="44.34183" lon="3.6066">
        <ele>577.175</ele>
        <time>2019-03-26T04:31:31Z</time>
      </trkpt>
      <trkpt lat="44.34131" lon="3.6059">
        <ele>578.915</ele>
        <time>2019-03-26T04:31:51Z</time>
      </trkpt>
      <trkpt lat="44.3408" lon="3.60522">
        <ele>583.186</ele>
        <time>2019-03-26T04:32:11Z</time>
      </trkpt>
      <trkpt lat="44.34068" lon="3.60533">
        <ele>583.656</ele>
        <time>2019-03-26T04:32:31Z</time>
      </trkpt>
      <trkpt lat="44.34057" lon="3.60447">
        <ele>583.959</ele>
        <time>2019-03-26T04:32:51Z</time>
      </trkpt>
      <trkpt lat="44.34065" lon="3.60429">
        <ele>583.714</ele>
        <time>2019-03-26T04:33:11Z</time>
      </trkpt>
      <trkpt lat="44.34062" lon="3.60392">
        <ele>584.308</ele>
        <time>2019-03-26T04:33:31Z</time>
      </trkpt>
      <trkpt lat="44.34087" lon="3.60396">
        <ele>581.688</ele>
        <time>2019-03-26T04:33:51Z</time>
      </trkpt>
      <trkpt lat="44.3412" lon="3.60412">
        <ele>579.689</ele>
        <time>2019-03-26T04:34:11Z</time>
      </trkpt>
      <trkpt lat="44.3434" lon="3.60361">
        <ele>565.04</ele>
        <time>2019-03-26T04:34:31Z</time>
      </trkpt>
      <trkpt lat="44.34318" lon="3.60266">
        <ele>565.798</ele>
        <time>2019-03-26T04:34:51Z</time>
      </trkpt>
      <trkpt lat="44.34323" lon="3.60213">
        <ele>572.046</ele>
        <time>2019-03-26T04:35:11Z</time>
      </trkpt>
      <trkpt lat="44.34367" lon="3.6021">
        <ele>567.718</ele>
        <time>2019-03-26T04:35:31Z</time>
      </trkpt>
      <trkpt lat="44.34375" lon="3.60161">
        <ele>567.838</ele>
        <time>2019-03-26T04:35:51Z</time>
      </trkpt>
      <trkpt lat="44.34412" lon="3.60128">
        <ele>560.879</ele>
        <time>2019-03-26T04:36:11Z</time>
      </trkpt>
      <trkpt lat="44.34498" lon="3.60121">
        <ele>557.596</ele>
        <time>2019-03-26T04:36:31Z</time>
      </trkpt>
      <trkpt lat="44.34463" lon="3.59941">
        <ele>556.031</ele>
        <time>2019-03-26T04:36:51Z</time>
      </trkpt>
      <trkpt lat="44.34462" lon="3.59932">
        <ele>556.224</ele>
        <time>2016-06-08T08:03:13Z</time>
      </trkpt>
      <trkpt lat="44.34479" lon="3.59789">
        <ele>555.708</ele>
        <time>2016-06-08T08:03:33Z</time>
      </trkpt>
      <trkpt lat="44.34463" lon="3.59634">
        <ele>551.512</ele>
        <time>2016-06-08T08:03:53Z</time>
      </trkpt>
      <trkpt lat="44.34466" lon="3.59588">
        <ele>550.833</ele>
        <time>2016-06-08T08:04:13Z</time>
      </trkpt>
      <trkpt lat="44.34498" lon="3.59434">
        <ele>552.894</ele>
        <time>2016-06-08T08:04:33Z</time>
      </trkpt>
      <trkpt lat="44.34524" lon="3.59332">
        <ele>553.472</ele>
        <time>2016-06-08T08:04:53Z</time>
      </trkpt>
      <trkpt lat="44.34555" lon="3.5925">
        <ele>553.92</ele>
        <time>2016-06-08T08:05:13Z</time>
      </trkpt>
      <trkpt lat="44.34567" lon="3.59204">
        <ele>555.182</ele>
        <time>2016-06-08T08:05:33Z</time>
      </trkpt>
      <trkpt lat="44.34629" lon="3.59147">
        <ele>564.592</ele>
        <time>2016-06-08T08:05:53Z</time>
      </trkpt>
      <trkpt lat="44.34654" lon="3.59142">
        <ele>572.173</ele>
        <time>2016-06-08T08:06:13Z</time>
      </trkpt>
      <trkpt lat="44.34642" lon="3.59063">
        <ele>577.227</ele>
        <time>2016-06-08T08:06:33Z</time>
      </trkpt>
      <trkpt lat="44.34609" lon="3.58992">
        <ele>575.168</ele>
        <time>2016-06-08T08:06:53Z</time>
      </trkpt>
      <trkpt lat="44.34601" lon="3.58932">
        <ele>592.114</ele>
        <time>2016-06-08T08:07:13Z</time>
      </trkpt>
      <trkpt lat="44.34566" lon="3.58927">
        <ele>582.708</ele>
        <time>2016-06-08T08:07:33Z</time>
      </trkpt>
      <trkpt lat="44.34492" lon="3.58899">
        <ele>582.065</ele>
        <time>2016-06-08T08:07:53Z</time>
      </trkpt>
      <trkpt lat="44.34434" lon="3.58899">
        <ele>575.656</ele>
        <time>2016-06-08T08:08:13Z</time>
      </trkpt>
      <trkpt lat="44.3438" lon="3.5886">
        <ele>591.837</ele>
        <time>2016-06-08T08:08:33Z</time>
      </trkpt>
      <trkpt lat="44.34342" lon="3.58855">
        <ele>589.535</ele>
        <time>2016-06-08T08:08:53Z</time>
      </trkpt>
      <trkpt lat="44.34277" lon="3.58888">
        <ele>579.423</ele>
        <time>2016-06-08T08:09:13Z</time>
      </trkpt>
      <trkpt lat="44.34192" lon="3.58921">
        <ele>577.485</ele>
        <time>2016-06-08T08:09:33Z</time>
      </trkpt>
      <trkpt lat="44.34111" lon="3.58977">
        <ele>579.835</ele>
        <time>2016-06-08T08:09:53Z</time>
      </trkpt>
      <trkpt lat="44.3406" lon="3.58983">
        <ele>581.396</ele>
        <time>2016-06-08T08:10:13Z</time>
      </trkpt>
      <trkpt lat="44.34008" lon="3.58949">
        <ele>575.584</ele>
        <time>2016-06-08T08:10:33Z</time>
      </trkpt>
      <trkpt lat="44.33929" lon="3.58836">
        <ele>557.107</ele>
        <time>2016-06-08T08:10:53Z</time>
      </trkpt>
      <trkpt lat="44.33782" lon="3.58712">
        <ele>547.717</ele>
        <time>2016-06-08T08:11:13Z</time>
      </trkpt>
      <trkpt lat="44.33702" lon="3.58737">
        <ele>540.808</ele>
        <time>2016-06-08T08:11:33Z</time>
      </trkpt>
      <trkpt lat="44.33656" lon="3.58742">
        <ele>541.441</ele>
        <time>2016-06-08T08:11:53Z</time>
      </trkpt>
      <trkpt lat="44.33596" lon="3.58693">
        <ele>554.172</ele>
        <time>2016-06-08T08:12:13Z</time>
      </trkpt>
      <trkpt lat="44.33587" lon="3.58622">
        <ele>545.783</ele>
        <time>2016-06-08T08:12:33Z</time>
      </trkpt>
      <trkpt lat="44.33481" lon="3.58616">
        <ele>552.431</ele>
        <time>2016-06-08T08:12:53Z</time>
      </trkpt>
      <trkpt lat="44.334" lon="3.58657">
        <ele>550.589</ele>
        <time>2016-06-08T08:13:13Z</time>
      </trkpt>
      <trkpt lat="44.3334" lon="3.58718">
        <ele>549.661</ele>
        <time>2016-06-08T08:13:33Z</time>
      </trkpt>
      <trkpt lat="44.33271" lon="3.5886">
        <ele>555.521</ele>
        <time>2016-06-08T08:13:53Z</time>
      </trkpt>
      <trkpt lat="44.33206" lon="3.59026">
        <ele>552.732</ele>
        <time>2016-06-08T08:14:13Z</time>
      </trkpt>
      <trkpt lat="44.33155" lon="3.59123">
        <ele>550.874</ele>
        <time>2016-06-08T08:14:33Z</time>
      </trkpt>
      <trkpt lat="44.33106" lon="3.59057">
        <ele>540.456</ele>
        <time>2016-06-08T08:14:53Z</time>
      </trkpt>
      <trkpt lat="44.33067" lon="3.5905">
        <ele>544.821</ele>
        <time>2016-06-08T08:15:13Z</time>
      </trkpt>
      <trkpt lat="44.32992" lon="3.59096">
        <ele>544.708</ele>
        <time>2016-06-08T08:15:33Z</time>
      </trkpt>
      <trkpt lat="44.32332" lon="3.59617">
        <ele>547.97</ele>
        <time>2016-06-08T08:15:53Z</time>
      </trkpt>
      <trkpt lat="44.32109" lon="3.59661">
        <ele>549.231</ele>
        <time>2016-06-08T08:16:13Z</time>
      </trkpt>
      <trkpt lat="44.3197" lon="3.59756">
        <ele>548.022</ele>
        <time>2016-06-08T08:16:33Z</time>
      </trkpt>
      <trkpt lat="44.31789" lon="3.59804">
        <ele>547.07</ele>
        <time>2016-06-08T08:16:53Z</time>
      </trkpt>
      <trkpt lat="44.31637" lon="3.59808">
        <ele>554.688</ele>
        <time>2016-06-08T08:17:13Z</time>
      </trkpt>
      <trkpt lat="44.31519" lon="3.59771">
        <ele>565.66</ele>
        <time>2016-06-08T08:17:33Z</time>
      </trkpt>
      <trkpt lat="44.31356" lon="3.5978">
        <ele>554.29</ele>
        <time>2016-06-08T08:17:53Z</time>
      </trkpt>
      <trkpt lat="44.31265" lon="3.59824">
        <ele>553.611</ele>
        <time>2016-06-08T08:18:13Z</time>
      </trkpt>
      <trkpt lat="44.31265" lon="3.59824">
        <ele>553.675</ele>
        <time>2016-06-08T08:18:33Z</time>
      </trkpt>
      <trkpt lat="44.31265" lon="3.59866">
        <ele>556.028</ele>
        <time>2016-06-08T08:18:53Z</time>
      </trkpt>
      <trkpt lat="44.31305" lon="3.59889">
        <ele>568.02</ele>
        <time>2016-06-08T08:19:13Z</time>
      </trkpt>
      <trkpt lat="44.3141" lon="3.59884">
        <ele>574.308</ele>
        <time>2016-06-08T08:19:33Z</time>
      </trkpt>
      <trkpt lat="44.31497" lon="3.59931">
        <ele>572.66</ele>
        <time>2016-06-08T08:19:53Z</time>
      </trkpt>
      <trkpt lat="44.31562" lon="3.59997">
        <ele>558.821</ele>
        <time>2016-06-08T08:20:13Z</time>
      </trkpt>
      <trkpt lat="44.31556" lon="3.60104">
        <ele>563.312</ele>
        <time>2016-06-08T08:20:33Z</time>
      </trkpt>
      <trkpt lat="44.31545" lon="3.60131">
        <ele>566.78</ele>
        <time>2016-06-08T08:20:53Z</time>
      </trkpt>
      <trkpt lat="44.3151" lon="3.60333">
        <ele>570.738</ele>
        <time>2016-06-08T08:21:13Z</time>
      </trkpt>
      <trkpt lat="44.31515" lon="3.60383">
        <ele>567.82</ele>
        <time>2016-06-08T08:21:33Z</time>
      </trkpt>
      <trkpt lat="44.31568" lon="3.60567">
        <ele>564.93</ele>
        <time>2016-06-08T08:21:53Z</time>
      </trkpt>
      <trkpt lat="44.31542" lon="3.60614">
        <ele>569.871</ele>
        <time>2016-06-08T08:22:13Z</time>
      </trkpt>
      <trkpt lat="44.31557" lon="3.60643">
        <ele>569.111</ele>
        <time>2016-06-08T08:22:33Z</time>
      </trkpt>
      <trkpt lat="44.3161" lon="3.6062">
        <ele>565.021</ele>
        <time>2016-06-08T08:22:53Z</time>
      </trkpt>
      <trkpt lat="44.31724" lon="3.60722">
        <ele>577.903</ele>
        <time>2016-06-08T08:23:13Z</time>
      </trkpt>
      <trkpt lat="44.31782" lon="3.60812">
        <ele>576.208</ele>
        <time>2016-06-08T08:23:33Z</time>
      </trkpt>
      <trkpt lat="44.3179" lon="3.60902">
        <ele>585.024</ele>
        <time>2016-06-08T08:23:53Z</time>
      </trkpt>
      <trkpt lat="44.31674" lon="3.61102">
        <ele>598.915</ele>
        <time>2016-06-08T08:24:13Z</time>
      </trkpt>
      <trkpt lat="44.31606" lon="3.61133">
        <ele>605.956</ele>
        <time>2016-06-08T08:24:33Z</time>
      </trkpt>
      <trkpt lat="44.31528" lon="3.61139">
        <ele>616.914</ele>
        <time>2016-06-08T08:24:53Z</time>
      </trkpt>
      <trkpt lat="44.31442" lon="3.61183">
        <ele>620.472</ele>
        <time>2016-06-08T08:25:13Z</time>
      </trkpt>
      <trkpt lat="44.31378" lon="3.61243">
        <ele>624.624</ele>
        <time>2016-06-08T08:25:33Z</time>
      </trkpt>
      <trkpt lat="44.31324" lon="3.61355">
        <ele>626.014</ele>
        <time>2016-06-08T08:25:53Z</time>
      </trkpt>
      <trkpt lat="44.31265" lon="3.6173">
        <ele>608.645</ele>
        <time>2016-06-08T08:26:13Z</time>
      </trkpt>
      <trkpt lat="44.31197" lon="3.61799">
        <ele>607.234</ele>
        <time>2016-06-08T08:26:33Z</time>
      </trkpt>
      <trkpt lat="44.31139" lon="3.61849">
        <ele>608.755</ele>
        <time>2016-06-08T08:26:53Z</time>
      </trkpt>
      <trkpt lat="44.31143" lon="3.61872">
        <ele>607.61</ele>
        <time>2016-06-08T08:27:13Z</time>
      </trkpt>
      <trkpt lat="44.31202" lon="3.61892">
        <ele>601.108</ele>
        <time>2016-06-08T08:27:33Z</time>
      </trkpt>
      <trkpt lat="44.3125" lon="3.61877">
        <ele>598.556</ele>
        <time>2016-06-08T08:27:53Z</time>
      </trkpt>
      <trkpt lat="44.313" lon="3.61885">
        <ele>593.897</ele>
        <time>2016-06-08T08:28:13Z</time>
      </trkpt>
      <trkpt lat="44.31301" lon="3.61902">
        <ele>594.798</ele>
        <time>2016-06-08T08:28:33Z</time>
      </trkpt>
      <trkpt lat="44.31251" lon="3.61948">
        <ele>608.986</ele>
        <time>2016-06-08T08:28:53Z</time>
      </trkpt>
      <trkpt lat="44.31243" lon="3.61994">
        <ele>612.164</ele>
        <time>2016-06-08T08:29:13Z</time>
      </trkpt>
      <trkpt lat="44.31241" lon="3.62035">
        <ele>615.046</ele>
        <time>2019-03-26T05:03:31Z</time>
      </trkpt>
      <trkpt lat="44.31242" lon="3.6211">
        <ele>625.766</ele>
        <time>2019-03-26T05:03:51Z</time>
      </trkpt>
      <trkpt lat="44.31323" lon="3.62294">
        <ele>639.727</ele>
        <time>2019-03-26T05:04:11Z</time>
      </trkpt>
      <trkpt lat="44.31426" lon="3.62479">
        <ele>653.853</ele>
        <time>2019-03-26T05:04:31Z</time>
      </trkpt>
      <trkpt lat="44.31428" lon="3.62542">
        <ele>655.504</ele>
        <time>2019-03-26T05:04:51Z</time>
      </trkpt>
      <trkpt lat="44.31397" lon="3.62571">
        <ele>660.714</ele>
        <time>2019-03-26T05:05:11Z</time>
      </trkpt>
      <trkpt lat="44.31358" lon="3.62587">
        <ele>673.408</ele>
        <time>2019-03-26T05:05:31Z</time>
      </trkpt>
      <trkpt lat="44.31301" lon="3.62652">
        <ele>674.858</ele>
        <time>2019-03-26T05:05:51Z</time>
      </trkpt>
      <trkpt lat="44.31201" lon="3.62803">
        <ele>677.319</ele>
        <time>2019-03-26T05:06:11Z</time>
      </trkpt>
      <trkpt lat="44.3118" lon="3.62849">
        <ele>678.37</ele>
        <time>2019-03-26T05:06:31Z</time>
      </trkpt>
      <trkpt lat="44.31125" lon="3.62927">
        <ele>689.358</ele>
        <time>2019-03-26T05:06:51Z</time>
      </trkpt>
      <trkpt lat="44.31129" lon="3.63079">
        <ele>667.786</ele>
        <time>2019-03-26T05:07:11Z</time>
      </trkpt>
      <trkpt lat="44.31106" lon="3.63143">
        <ele>658.928</ele>
        <time>2016-06-08T08:33:33Z</time>
      </trkpt>
      <trkpt lat="44.31029" lon="3.63142">
        <ele>672.638</ele>
        <time>2016-06-08T08:33:53Z</time>
      </trkpt>
      <trkpt lat="44.30938" lon="3.63089">
        <ele>686.399</ele>
        <time>2019-03-26T05:08:11Z</time>
      </trkpt>
      <trkpt lat="44.30861" lon="3.63052">
        <ele>694.875</ele>
        <time>2016-06-08T08:34:13Z</time>
      </trkpt>
      <trkpt lat="44.30855" lon="3.63065">
        <ele>694.828</ele>
        <time>2016-06-08T08:34:33Z</time>
      </trkpt>
      <trkpt lat="44.30895" lon="3.63134">
        <ele>692.32</ele>
        <time>2016-06-08T08:34:53Z</time>
      </trkpt>
      <trkpt lat="44.30935" lon="3.63229">
        <ele>695.508</ele>
        <time>2016-06-08T08:35:13Z</time>
      </trkpt>
      <trkpt lat="44.30951" lon="3.63366">
        <ele>703.58</ele>
        <time>2016-06-08T08:35:33Z</time>
      </trkpt>
      <trkpt lat="44.30978" lon="3.63364">
        <ele>694.351</ele>
        <time>2016-06-08T08:35:53Z</time>
      </trkpt>
      <trkpt lat="44.30905" lon="3.63537">
        <ele>692.232</ele>
        <time>2016-06-08T08:36:13Z</time>
      </trkpt>
      <trkpt lat="44.3081" lon="3.63655">
        <ele>691.31</ele>
        <time>2016-06-08T08:36:33Z</time>
      </trkpt>
      <trkpt lat="44.30771" lon="3.63725">
        <ele>678.978</ele>
        <time>2019-03-26T05:11:11Z</time>
      </trkpt>
      <trkpt lat="44.30723" lon="3.63776">
        <ele>686.16</ele>
        <time>2019-03-26T05:11:31Z</time>
      </trkpt>
      <trkpt lat="44.30682" lon="3.63915">
        <ele>675.66</ele>
        <time>2016-06-08T08:37:13Z</time>
      </trkpt>
      <trkpt lat="44.30616" lon="3.6399">
        <ele>681.881</ele>
        <time>2016-06-08T08:37:33Z</time>
      </trkpt>
      <trkpt lat="44.30656" lon="3.64114">
        <ele>650.176</ele>
        <time>2019-03-26T05:12:31Z</time>
      </trkpt>
      <trkpt lat="44.30601" lon="3.64157">
        <ele>666.99</ele>
        <time>2016-06-08T08:38:13Z</time>
      </trkpt>
      <trkpt lat="44.30639" lon="3.64387">
        <ele>673.319</ele>
        <time>2016-06-08T08:38:33Z</time>
      </trkpt>
      <trkpt lat="44.30567" lon="3.64601">
        <ele>682.708</ele>
        <time>2016-06-08T08:38:53Z</time>
      </trkpt>
      <trkpt lat="44.30503" lon="3.64655">
        <ele>692.94</ele>
        <time>2016-06-08T08:39:13Z</time>
      </trkpt>
      <trkpt lat="44.30515" lon="3.6479">
        <ele>686.781</ele>
        <time>2016-06-08T08:39:33Z</time>
      </trkpt>
      <trkpt lat="44.30452" lon="3.64966">
        <ele>702.612</ele>
        <time>2016-06-08T08:39:53Z</time>
      </trkpt>
      <trkpt lat="44.30397" lon="3.65026">
        <ele>706.82</ele>
        <time>2016-06-08T08:40:13Z</time>
      </trkpt>
      <trkpt lat="44.30334" lon="3.65075">
        <ele>708.618</ele>
        <time>2016-06-08T08:40:33Z</time>
      </trkpt>
      <trkpt lat="44.30257" lon="3.65161">
        <ele>718.07</ele>
        <time>2016-06-08T08:40:53Z</time>
      </trkpt>
      <trkpt lat="44.30389" lon="3.65487">
        <ele>694.54</ele>
        <time>2019-03-26T05:15:51Z</time>
      </trkpt>
      <trkpt lat="44.30456" lon="3.65602">
        <ele>686.771</ele>
        <time>2019-03-26T05:16:11Z</time>
      </trkpt>
      <trkpt lat="44.30456" lon="3.65744">
        <ele>678.125</ele>
        <time>2019-03-26T05:16:31Z</time>
      </trkpt>
      <trkpt lat="44.30402" lon="3.65827">
        <ele>681.626</ele>
        <time>2019-03-26T05:16:51Z</time>
      </trkpt>
      <trkpt lat="44.30377" lon="3.65913">
        <ele>663.308</ele>
        <time>2019-03-26T05:17:11Z</time>
      </trkpt>
      <trkpt lat="44.30347" lon="3.6597">
        <ele>657.808</ele>
        <time>2019-03-26T05:17:31Z</time>
      </trkpt>
      <trkpt lat="44.30321" lon="3.66057">
        <ele>650.275</ele>
        <time>2019-03-26T05:17:51Z</time>
      </trkpt>
      <trkpt lat="44.30253" lon="3.66216">
        <ele>626.986</ele>
        <time>2019-03-26T05:18:11Z</time>
      </trkpt>
      <trkpt lat="44.30205" lon="3.66303">
        <ele>618.437</ele>
        <time>2019-03-26T05:18:31Z</time>
      </trkpt>
      <trkpt lat="44.30226" lon="3.663">
        <ele>616.515</ele>
        <time>2019-03-26T05:18:51Z</time>
      </trkpt>
      <trkpt lat="44.30264" lon="3.66273">
        <ele>611.043</ele>
        <time>2019-03-26T05:19:11Z</time>
      </trkpt>
      <trkpt lat="44.30226" lon="3.66333">
        <ele>612.615</ele>
        <time>2019-03-26T05:19:31Z</time>
      </trkpt>
      <trkpt lat="44.30189" lon="3.66345">
        <ele>613.185</ele>
        <time>2019-03-26T05:19:51Z</time>
      </trkpt>
      <trkpt lat="44.30138" lon="3.66329">
        <ele>609.646</ele>
        <time>2019-03-26T05:20:11Z</time>
      </trkpt>
      <trkpt lat="44.30113" lon="3.66389">
        <ele>608.611</ele>
        <time>2019-03-26T05:20:31Z</time>
      </trkpt>
      <trkpt lat="44.30111" lon="3.6639">
        <ele>609.121</ele>
        <time>2016-06-08T08:51:13Z</time>
      </trkpt>
      <trkpt lat="44.30058" lon="3.66368">
        <ele>610.203</ele>
        <time>2016-06-08T08:51:33Z</time>
      </trkpt>
      <trkpt lat="44.29875" lon="3.6648">
        <ele>618.608</ele>
        <time>2016-06-08T08:51:53Z</time>
      </trkpt>
      <trkpt lat="44.2983" lon="3.66507">
        <ele>615.274</ele>
        <time>2016-06-08T08:52:13Z</time>
      </trkpt>
      <trkpt lat="44.29799" lon="3.66566">
        <ele>617.025</ele>
        <time>2016-06-08T08:52:33Z</time>
      </trkpt>
      <trkpt lat="44.2978" lon="3.66631">
        <ele>622.096</ele>
        <time>2016-06-08T08:52:53Z</time>
      </trkpt>
      <trkpt lat="44.29762" lon="3.66934">
        <ele>622.894</ele>
        <time>2016-06-08T08:53:13Z</time>
      </trkpt>
      <trkpt lat="44.29791" lon="3.67067">
        <ele>623.132</ele>
        <time>2016-06-08T08:53:33Z</time>
      </trkpt>
      <trkpt lat="44.29824" lon="3.67133">
        <ele>626.944</ele>
        <time>2016-06-08T08:53:53Z</time>
      </trkpt>
      <trkpt lat="44.29915" lon="3.67212">
        <ele>640.694</ele>
        <time>2016-06-08T08:54:13Z</time>
      </trkpt>
      <trkpt lat="44.29942" lon="3.67293">
        <ele>634.695</ele>
        <time>2016-06-08T08:54:33Z</time>
      </trkpt>
      <trkpt lat="44.29933" lon="3.67463">
        <ele>629.824</ele>
        <time>2016-06-08T08:54:53Z</time>
      </trkpt>
      <trkpt lat="44.29953" lon="3.67583">
        <ele>633.504</ele>
        <time>2016-06-08T08:55:13Z</time>
      </trkpt>
      <trkpt lat="44.30028" lon="3.67738">
        <ele>643.314</ele>
        <time>2016-06-08T08:55:33Z</time>
      </trkpt>
      <trkpt lat="44.30032" lon="3.67829">
        <ele>637.808</ele>
        <time>2016-06-08T08:55:53Z</time>
      </trkpt>
      <trkpt lat="44.2992" lon="3.68029">
        <ele>633.935</ele>
        <time>2016-06-08T08:56:13Z</time>
      </trkpt>
      <trkpt lat="44.29882" lon="3.68184">
        <ele>648.756</ele>
        <time>2016-06-08T08:56:33Z</time>
      </trkpt>
      <trkpt lat="44.29833" lon="3.68308">
        <ele>651.827</ele>
        <time>2016-06-08T08:56:53Z</time>
      </trkpt>
      <trkpt lat="44.29788" lon="3.68362">
        <ele>654.755</ele>
        <time>2016-06-08T08:57:13Z</time>
      </trkpt>
      <trkpt lat="44.29684" lon="3.6838">
        <ele>653.573</ele>
        <time>2016-06-08T08:57:33Z</time>
      </trkpt>
      <trkpt lat="44.29601" lon="3.68405">
        <ele>659.215</ele>
        <time>2016-06-08T08:57:53Z</time>
      </trkpt>
      <trkpt lat="44.29515" lon="3.68352">
        <ele>663.525</ele>
        <time>2016-06-08T08:58:13Z</time>
      </trkpt>
      <trkpt lat="44.29483" lon="3.68346">
        <ele>653.036</ele>
        <time>2016-06-08T08:58:33Z</time>
      </trkpt>
      <trkpt lat="44.2945" lon="3.68373">
        <ele>655.987</ele>
        <time>2016-06-08T08:58:53Z</time>
      </trkpt>
      <trkpt lat="44.29392" lon="3.68446">
        <ele>657.842</ele>
        <time>2016-06-08T08:59:13Z</time>
      </trkpt>
      <trkpt lat="44.29286" lon="3.6848">
        <ele>654.426</ele>
        <time>2016-06-08T08:59:33Z</time>
      </trkpt>
      <trkpt lat="44.29241" lon="3.68527">
        <ele>653.708</ele>
        <time>2016-06-08T08:59:53Z</time>
      </trkpt>
      <trkpt lat="44.2923" lon="3.68579">
        <ele>653.891</ele>
        <time>2016-06-08T09:00:13Z</time>
      </trkpt>
      <trkpt lat="44.29218" lon="3.68678">
        <ele>671.192</ele>
        <time>2016-06-08T09:00:33Z</time>
      </trkpt>
      <trkpt lat="44.29183" lon="3.68736">
        <ele>668.393</ele>
        <time>2016-06-08T09:00:53Z</time>
      </trkpt>
      <trkpt lat="44.29026" lon="3.68814">
        <ele>659.091</ele>
        <time>2016-06-08T09:01:13Z</time>
      </trkpt>
      <trkpt lat="44.28959" lon="3.68942">
        <ele>677.459</ele>
        <time>2016-06-08T09:01:33Z</time>
      </trkpt>
      <trkpt lat="44.28908" lon="3.68969">
        <ele>673.421</ele>
        <time>2016-06-08T09:01:53Z</time>
      </trkpt>
      <trkpt lat="44.28794" lon="3.68928">
        <ele>665.121</ele>
        <time>2016-06-08T09:02:13Z</time>
      </trkpt>
      <trkpt lat="44.28748" lon="3.68935">
        <ele>659.432</ele>
        <time>2016-06-08T09:02:33Z</time>
      </trkpt>
      <trkpt lat="44.28585" lon="3.69064">
        <ele>665.079</ele>
        <time>2016-06-08T09:02:53Z</time>
      </trkpt>
      <trkpt lat="44.28556" lon="3.69111">
        <ele>663.205</ele>
        <time>2016-06-08T09:03:13Z</time>
      </trkpt>
      <trkpt lat="44.28499" lon="3.69248">
        <ele>669.325</ele>
        <time>2016-06-08T09:03:33Z</time>
      </trkpt>
      <trkpt lat="44.28259" lon="3.69484">
        <ele>662.508</ele>
        <time>2016-06-08T09:03:53Z</time>
      </trkpt>
      <trkpt lat="44.28223" lon="3.69604">
        <ele>672.08</ele>
        <time>2016-06-08T09:04:13Z</time>
      </trkpt>
      <trkpt lat="44.28193" lon="3.69644">
        <ele>668.681</ele>
        <time>2016-06-08T09:04:33Z</time>
      </trkpt>
      <trkpt lat="44.28153" lon="3.69661">
        <ele>667.212</ele>
        <time>2016-06-08T09:04:53Z</time>
      </trkpt>
      <trkpt lat="44.28094" lon="3.69662">
        <ele>664.74</ele>
        <time>2016-06-08T09:05:13Z</time>
      </trkpt>
      <trkpt lat="44.28061" lon="3.69678">
        <ele>663.518</ele>
        <time>2016-06-08T09:05:33Z</time>
      </trkpt>
      <trkpt lat="44.28028" lon="3.69689">
        <ele>666.94</ele>
        <time>2016-06-08T09:05:53Z</time>
      </trkpt>
      <trkpt lat="44.27995" lon="3.69734">
        <ele>668.62</ele>
        <time>2016-06-08T09:06:13Z</time>
      </trkpt>
      <trkpt lat="44.27988" lon="3.69791">
        <ele>669.391</ele>
        <time>2016-06-08T09:06:33Z</time>
      </trkpt>
      <trkpt lat="44.27994" lon="3.69877">
        <ele>669.599</ele>
        <time>2016-06-08T09:06:53Z</time>
      </trkpt>
      <trkpt lat="44.27982" lon="3.6998">
        <ele>668.807</ele>
        <time>2016-06-08T09:07:13Z</time>
      </trkpt>
      <trkpt lat="44.27988" lon="3.70134">
        <ele>675.127</ele>
        <time>2016-06-08T09:07:33Z</time>
      </trkpt>
      <trkpt lat="44.27947" lon="3.70269">
        <ele>669.608</ele>
        <time>2016-06-08T09:07:53Z</time>
      </trkpt>
      <trkpt lat="44.27883" lon="3.70455">
        <ele>674.432</ele>
        <time>2016-06-08T09:08:13Z</time>
      </trkpt>
      <trkpt lat="44.27866" lon="3.70654">
        <ele>685.643</ele>
        <time>2016-06-08T09:08:33Z</time>
      </trkpt>
      <trkpt lat="44.27841" lon="3.70702">
        <ele>686.784</ele>
        <time>2016-06-08T09:08:53Z</time>
      </trkpt>
      <trkpt lat="44.27783" lon="3.70754">
        <ele>682.992</ele>
        <time>2016-06-08T09:09:13Z</time>
      </trkpt>
      <trkpt lat="44.27757" lon="3.70808">
        <ele>682.18</ele>
        <time>2016-06-08T09:09:33Z</time>
      </trkpt>
      <trkpt lat="44.27752" lon="3.70879">
        <ele>682.852</ele>
        <time>2016-06-08T09:09:53Z</time>
      </trkpt>
      <trkpt lat="44.27772" lon="3.7093">
        <ele>683.352</ele>
        <time>2016-06-08T09:10:13Z</time>
      </trkpt>
      <trkpt lat="44.27825" lon="3.71001">
        <ele>694.873</ele>
        <time>2016-06-08T09:10:33Z</time>
      </trkpt>
      <trkpt lat="44.27848" lon="3.71068">
        <ele>687.814</ele>
        <time>2016-06-08T09:10:53Z</time>
      </trkpt>
      <trkpt lat="44.27853" lon="3.71188">
        <ele>685.754</ele>
        <time>2016-06-08T09:11:13Z</time>
      </trkpt>
      <trkpt lat="44.27832" lon="3.7125">
        <ele>685.809</ele>
        <time>2016-06-08T09:11:33Z</time>
      </trkpt>
      <trkpt lat="44.27782" lon="3.71345">
        <ele>688.608</ele>
        <time>2016-06-08T09:11:53Z</time>
      </trkpt>
      <trkpt lat="44.27774" lon="3.71405">
        <ele>690.054</ele>
        <time>2016-06-08T09:12:13Z</time>
      </trkpt>
      <trkpt lat="44.27819" lon="3.71517">
        <ele>692.495</ele>
        <time>2016-06-08T09:12:33Z</time>
      </trkpt>
      <trkpt lat="44.27818" lon="3.7157">
        <ele>692.016</ele>
        <time>2016-06-08T09:12:53Z</time>
      </trkpt>
      <trkpt lat="44.278" lon="3.71662">
        <ele>691.994</ele>
        <time>2016-06-08T09:13:13Z</time>
      </trkpt>
      <trkpt lat="44.27802" lon="3.71837">
        <ele>695.122</ele>
        <time>2016-06-08T09:13:33Z</time>
      </trkpt>
      <trkpt lat="44.27781" lon="3.71957">
        <ele>691.644</ele>
        <time>2016-06-08T09:13:53Z</time>
      </trkpt>
      <trkpt lat="44.27781" lon="3.72038">
        <ele>688.684</ele>
        <time>2016-06-08T09:14:13Z</time>
      </trkpt>
      <trkpt lat="44.27806" lon="3.72253">
        <ele>695.025</ele>
        <time>2016-06-08T09:14:33Z</time>
      </trkpt>
      <trkpt lat="44.2779" lon="3.72349">
        <ele>699.862</ele>
        <time>2016-06-08T09:14:53Z</time>
      </trkpt>
      <trkpt lat="44.2775" lon="3.72403">
        <ele>697.083</ele>
        <time>2016-06-08T09:15:13Z</time>
      </trkpt>
      <trkpt lat="44.27628" lon="3.72497">
        <ele>693.111</ele>
        <time>2019-03-26T05:45:11Z</time>
      </trkpt>
      <trkpt lat="44.2755" lon="3.726">
        <ele>695.008</ele>
        <time>2019-03-26T05:45:31Z</time>
      </trkpt>
      <trkpt lat="44.27487" lon="3.7278">
        <ele>706.049</ele>
        <time>2019-03-26T05:45:51Z</time>
      </trkpt>
      <trkpt lat="44.27481" lon="3.72879">
        <ele>708.92</ele>
        <time>2019-03-26T05:46:11Z</time>
      </trkpt>
      <trkpt lat="44.27451" lon="3.72954">
        <ele>700.861</ele>
        <time>2019-03-26T05:46:31Z</time>
      </trkpt>
      <trkpt lat="44.2741" lon="3.72987">
        <ele>705.529</ele>
        <time>2019-03-26T05:46:51Z</time>
      </trkpt>
      <trkpt lat="44.27295" lon="3.72964">
        <ele>698.057</ele>
        <time>2019-03-26T05:47:11Z</time>
      </trkpt>
      <trkpt lat="44.27226" lon="3.7298">
        <ele>697.619</ele>
        <time>2019-03-26T05:47:31Z</time>
      </trkpt>
      <trkpt lat="44.27165" lon="3.7302">
        <ele>696.839</ele>
        <time>2019-03-26T05:47:51Z</time>
      </trkpt>
      <trkpt lat="44.27128" lon="3.73066">
        <ele>699.07</ele>
        <time>2019-03-26T05:48:11Z</time>
      </trkpt>
      <trkpt lat="44.27077" lon="3.73002">
        <ele>711.427</ele>
        <time>2016-06-08T09:19:13Z</time>
      </trkpt>
      <trkpt lat="44.27055" lon="3.73006">
        <ele>720.668</ele>
        <time>2016-06-08T09:19:33Z</time>
      </trkpt>
      <trkpt lat="44.27032" lon="3.73055">
        <ele>709.714</ele>
        <time>2016-06-08T09:19:53Z</time>
      </trkpt>
      <trkpt lat="44.27" lon="3.7308">
        <ele>702.608</ele>
        <time>2016-06-08T09:20:13Z</time>
      </trkpt>
      <trkpt lat="44.26975" lon="3.73081">
        <ele>701.955</ele>
        <time>2016-06-08T09:20:33Z</time>
      </trkpt>
      <trkpt lat="44.26923" lon="3.73067">
        <ele>712.966</ele>
        <time>2016-06-08T09:20:53Z</time>
      </trkpt>
      <trkpt lat="44.26894" lon="3.73067">
        <ele>710.267</ele>
        <time>2016-06-08T09:21:13Z</time>
      </trkpt>
      <trkpt lat="44.26878" lon="3.73106">
        <ele>713.175</ele>
        <time>2016-06-08T09:21:33Z</time>
      </trkpt>
      <trkpt lat="44.26895" lon="3.73119">
        <ele>713.123</ele>
        <time>2016-06-08T09:21:53Z</time>
      </trkpt>
      <trkpt lat="44.26939" lon="3.73159">
        <ele>711.525</ele>
        <time>2016-06-08T09:22:13Z</time>
      </trkpt>
      <trkpt lat="44.26985" lon="3.73185">
        <ele>704.125</ele>
        <time>2016-06-08T09:22:33Z</time>
      </trkpt>
      <trkpt lat="44.27" lon="3.73212">
        <ele>707.276</ele>
        <time>2016-06-08T09:22:53Z</time>
      </trkpt>
      <trkpt lat="44.27002" lon="3.73325">
        <ele>718.287</ele>
        <time>2016-06-08T09:23:13Z</time>
      </trkpt>
      <trkpt lat="44.26951" lon="3.734">
        <ele>725.442</ele>
        <time>2016-06-08T09:23:33Z</time>
      </trkpt>
      <trkpt lat="44.26865" lon="3.73487">
        <ele>747.126</ele>
        <time>2016-06-08T09:23:53Z</time>
      </trkpt>
      <trkpt lat="44.26826" lon="3.73559">
        <ele>739.308</ele>
        <time>2016-06-08T09:24:13Z</time>
      </trkpt>
      <trkpt lat="44.26818" lon="3.73611">
        <ele>729.671</ele>
        <time>2016-06-08T09:24:33Z</time>
      </trkpt>
      <trkpt lat="44.26737" lon="3.73565">
        <ele>761.672</ele>
        <time>2016-06-08T09:24:53Z</time>
      </trkpt>
      <trkpt lat="44.267" lon="3.73564">
        <ele>765.043</ele>
        <time>2016-06-08T09:25:13Z</time>
      </trkpt>
      <trkpt lat="44.26644" lon="3.73535">
        <ele>772.421</ele>
        <time>2016-06-08T09:25:33Z</time>
      </trkpt>
      <trkpt lat="44.26574" lon="3.73554">
        <ele>770.919</ele>
        <time>2016-06-08T09:25:53Z</time>
      </trkpt>
      <trkpt lat="44.26527" lon="3.73583">
        <ele>767.031</ele>
        <time>2016-06-08T09:26:13Z</time>
      </trkpt>
      <trkpt lat="44.26512" lon="3.73568">
        <ele>772.111</ele>
        <time>2016-06-08T09:26:33Z</time>
      </trkpt>
      <trkpt lat="44.26574" lon="3.73517">
        <ele>785.742</ele>
        <time>2016-06-08T09:26:53Z</time>
      </trkpt>
      <trkpt lat="44.26618" lon="3.73464">
        <ele>799.051</ele>
        <time>2016-06-08T09:27:13Z</time>
      </trkpt>
      <trkpt lat="44.26752" lon="3.73467">
        <ele>796.701</ele>
        <time>2016-06-08T09:27:33Z</time>
      </trkpt>
      <trkpt lat="44.26777" lon="3.73426">
        <ele>803.011</ele>
        <time>2016-06-08T09:27:53Z</time>
      </trkpt>
      <trkpt lat="44.26799" lon="3.7335">
        <ele>809.108</ele>
        <time>2016-06-08T09:28:13Z</time>
      </trkpt>
      <trkpt lat="44.26829" lon="3.73288">
        <ele>799.048</ele>
        <time>2016-06-08T09:28:33Z</time>
      </trkpt>
      <trkpt lat="44.26798" lon="3.73244">
        <ele>800.989</ele>
        <time>2016-06-08T09:28:53Z</time>
      </trkpt>
      <trkpt lat="44.26667" lon="3.73271">
        <ele>820.34</ele>
        <time>2016-06-08T09:29:13Z</time>
      </trkpt>
      <trkpt lat="44.26524" lon="3.73259">
        <ele>824.628</ele>
        <time>2016-06-08T09:29:33Z</time>
      </trkpt>
      <trkpt lat="44.26468" lon="3.73254">
        <ele>833.556</ele>
        <time>2016-06-08T09:29:53Z</time>
      </trkpt>
      <trkpt lat="44.26428" lon="3.73222">
        <ele>841.298</ele>
        <time>2016-06-08T09:30:13Z</time>
      </trkpt>
      <trkpt lat="44.26403" lon="3.73131">
        <ele>850.118</ele>
        <time>2016-06-08T09:30:33Z</time>
      </trkpt>
      <trkpt lat="44.26358" lon="3.7307">
        <ele>853.359</ele>
        <time>2016-06-08T09:30:53Z</time>
      </trkpt>
      <trkpt lat="44.26311" lon="3.72974">
        <ele>854.523</ele>
        <time>2016-06-08T09:31:13Z</time>
      </trkpt>
      <trkpt lat="44.26323" lon="3.72897">
        <ele>849.383</ele>
        <time>2016-06-08T09:31:33Z</time>
      </trkpt>
      <trkpt lat="44.2628" lon="3.72717">
        <ele>855.311</ele>
        <time>2016-06-08T09:31:53Z</time>
      </trkpt>
      <trkpt lat="44.26237" lon="3.72686">
        <ele>853.608</ele>
        <time>2016-06-08T09:32:13Z</time>
      </trkpt>
      <trkpt lat="44.26177" lon="3.72693">
        <ele>849.045</ele>
        <time>2016-06-08T09:32:33Z</time>
      </trkpt>
      <trkpt lat="44.2612" lon="3.72762">
        <ele>862.326</ele>
        <time>2016-06-08T09:32:53Z</time>
      </trkpt>
      <trkpt lat="44.26033" lon="3.72791">
        <ele>870.147</ele>
        <time>2016-06-08T09:33:13Z</time>
      </trkpt>
      <trkpt lat="44.25993" lon="3.72767">
        <ele>866.345</ele>
        <time>2016-06-08T09:33:33Z</time>
      </trkpt>
      <trkpt lat="44.25926" lon="3.72752">
        <ele>880.963</ele>
        <time>2016-06-08T09:33:53Z</time>
      </trkpt>
      <trkpt lat="44.25904" lon="3.72702">
        <ele>874.195</ele>
        <time>2016-06-08T09:34:13Z</time>
      </trkpt>
      <trkpt lat="44.25877" lon="3.72644">
        <ele>879.775</ele>
        <time>2016-06-08T09:34:33Z</time>
      </trkpt>
      <trkpt lat="44.25875" lon="3.72579">
        <ele>873.326</ele>
        <time>2016-06-08T09:34:53Z</time>
      </trkpt>
      <trkpt lat="44.2572" lon="3.72453">
        <ele>898.678</ele>
        <time>2016-06-08T09:35:13Z</time>
      </trkpt>
      <trkpt lat="44.25692" lon="3.72444">
        <ele>900.133</ele>
        <time>2016-06-08T09:35:33Z</time>
      </trkpt>
      <trkpt lat="44.25628" lon="3.72449">
        <ele>913.726</ele>
        <time>2016-06-08T09:35:53Z</time>
      </trkpt>
      <trkpt lat="44.25552" lon="3.72401">
        <ele>916.108</ele>
        <time>2016-06-08T09:36:13Z</time>
      </trkpt>
      <trkpt lat="44.25515" lon="3.72391">
        <ele>920.59</ele>
        <time>2016-06-08T09:36:33Z</time>
      </trkpt>
      <trkpt lat="44.25458" lon="3.72401">
        <ele>925.681</ele>
        <time>2016-06-08T09:36:53Z</time>
      </trkpt>
      <trkpt lat="44.2544" lon="3.72421">
        <ele>931.962</ele>
        <time>2016-06-08T09:37:13Z</time>
      </trkpt>
      <trkpt lat="44.25334" lon="3.72435">
        <ele>939.77</ele>
        <time>2016-06-08T09:37:33Z</time>
      </trkpt>
      <trkpt lat="44.25267" lon="3.72418">
        <ele>939.588</ele>
        <time>2016-06-08T09:37:53Z</time>
      </trkpt>
      <trkpt lat="44.2516" lon="3.72411">
        <ele>949.08</ele>
        <time>2016-06-08T09:38:13Z</time>
      </trkpt>
      <trkpt lat="44.25094" lon="3.7239">
        <ele>941.01</ele>
        <time>2016-06-08T09:38:33Z</time>
      </trkpt>
      <trkpt lat="44.25012" lon="3.72433">
        <ele>953.081</ele>
        <time>2016-06-08T09:38:53Z</time>
      </trkpt>
      <trkpt lat="44.24899" lon="3.72387">
        <ele>947.264</ele>
        <time>2016-06-08T09:39:13Z</time>
      </trkpt>
      <trkpt lat="44.24851" lon="3.72386">
        <ele>943.806</ele>
        <time>2016-06-08T09:39:33Z</time>
      </trkpt>
      <trkpt lat="44.2477" lon="3.72474">
        <ele>960.316</ele>
        <time>2016-06-08T09:39:53Z</time>
      </trkpt>
      <trkpt lat="44.24753" lon="3.72508">
        <ele>968.408</ele>
        <time>2016-06-08T09:40:13Z</time>
      </trkpt>
      <trkpt lat="44.24586" lon="3.72556">
        <ele>959.239</ele>
        <time>2016-06-08T09:40:33Z</time>
      </trkpt>
      <trkpt lat="44.24515" lon="3.72561">
        <ele>957.06</ele>
        <time>2016-06-08T09:40:53Z</time>
      </trkpt>
      <trkpt lat="44.24471" lon="3.72551">
        <ele>953.281</ele>
        <time>2016-06-08T09:41:13Z</time>
      </trkpt>
      <trkpt lat="44.24438" lon="3.72561">
        <ele>952.369</ele>
        <time>2016-06-08T09:41:33Z</time>
      </trkpt>
      <trkpt lat="44.24409" lon="3.7263">
        <ele>951.177</ele>
        <time>2016-06-08T09:41:53Z</time>
      </trkpt>
      <trkpt lat="44.24367" lon="3.72646">
        <ele>946.179</ele>
        <time>2016-06-08T09:42:13Z</time>
      </trkpt>
      <trkpt lat="44.2434" lon="3.7262">
        <ele>943.719</ele>
        <time>2016-06-08T09:42:33Z</time>
      </trkpt>
      <trkpt lat="44.2435" lon="3.72669">
        <ele>941.94</ele>
        <time>2016-06-08T09:42:53Z</time>
      </trkpt>
      <trkpt lat="44.24382" lon="3.72721">
        <ele>937.588</ele>
        <time>2016-06-08T09:43:13Z</time>
      </trkpt>
      <trkpt lat="44.24377" lon="3.72986">
        <ele>928.824</ele>
        <time>2016-06-08T09:43:33Z</time>
      </trkpt>
      <trkpt lat="44.24356" lon="3.73036">
        <ele>927.526</ele>
        <time>2016-06-08T09:43:53Z</time>
      </trkpt>
      <trkpt lat="44.24214" lon="3.73292">
        <ele>929.408</ele>
        <time>2016-06-08T09:44:13Z</time>
      </trkpt>
      <trkpt lat="44.24261" lon="3.73481">
        <ele>949.951</ele>
        <time>2016-06-08T09:44:33Z</time>
      </trkpt>
      <trkpt lat="44.24293" lon="3.73534">
        <ele>955.612</ele>
        <time>2016-06-08T09:44:53Z</time>
      </trkpt>
      <trkpt lat="44.24268" lon="3.73592">
        <ele>949.083</ele>
        <time>2016-06-08T09:45:13Z</time>
      </trkpt>
      <trkpt lat="44.24269" lon="3.73632">
        <ele>955.221</ele>
        <time>2016-06-08T09:45:33Z</time>
      </trkpt>
      <trkpt lat="44.2429" lon="3.73684">
        <ele>962.059</ele>
        <time>2016-06-08T09:45:53Z</time>
      </trkpt>
      <trkpt lat="44.24265" lon="3.73751">
        <ele>960.871</ele>
        <time>2016-06-08T09:46:13Z</time>
      </trkpt>
      <trkpt lat="44.24285" lon="3.73792">
        <ele>966.881</ele>
        <time>2016-06-08T09:46:33Z</time>
      </trkpt>
      <trkpt lat="44.24291" lon="3.73867">
        <ele>973.452</ele>
        <time>2016-06-08T09:46:53Z</time>
      </trkpt>
      <trkpt lat="44.24268" lon="3.73937">
        <ele>968.874</ele>
        <time>2016-06-08T09:47:13Z</time>
      </trkpt>
      <trkpt lat="44.24247" lon="3.74089">
        <ele>979.356</ele>
        <time>2016-06-08T09:47:33Z</time>
      </trkpt>
      <trkpt lat="44.24248" lon="3.74174">
        <ele>987.721</ele>
        <time>2016-06-08T09:47:53Z</time>
      </trkpt>
      <trkpt lat="44.24233" lon="3.7423">
        <ele>983.308</ele>
        <time>2016-06-08T09:48:13Z</time>
      </trkpt>
      <trkpt lat="44.24258" lon="3.74273">
        <ele>993.81</ele>
        <time>2016-06-08T09:48:33Z</time>
      </trkpt>
      <trkpt lat="44.24234" lon="3.74329">
        <ele>992.241</ele>
        <time>2016-06-08T09:48:53Z</time>
      </trkpt>
      <trkpt lat="44.24205" lon="3.74385">
        <ele>993.892</ele>
        <time>2016-06-08T09:49:13Z</time>
      </trkpt>
      <trkpt lat="44.2421" lon="3.74437">
        <ele>1002.82</ele>
        <time>2016-06-08T09:49:33Z</time>
      </trkpt>
      <trkpt lat="44.2424" lon="3.74498">
        <ele>1010.658</ele>
        <time>2016-06-08T09:49:53Z</time>
      </trkpt>
      <trkpt lat="44.24213" lon="3.74641">
        <ele>1013.81</ele>
        <time>2016-06-08T09:50:13Z</time>
      </trkpt>
      <trkpt lat="44.24176" lon="3.74731">
        <ele>1011.52</ele>
        <time>2016-06-08T09:50:33Z</time>
      </trkpt>
      <trkpt lat="44.24185" lon="3.74811">
        <ele>1014.371</ele>
        <time>2016-06-08T09:50:53Z</time>
      </trkpt>
      <trkpt lat="44.24244" lon="3.74863">
        <ele>1027.794</ele>
        <time>2016-06-08T09:51:13Z</time>
      </trkpt>
      <trkpt lat="44.24258" lon="3.74935">
        <ele>1025.657</ele>
        <time>2016-06-08T09:51:33Z</time>
      </trkpt>
      <trkpt lat="44.2426" lon="3.74981">
        <ele>1021.922</ele>
        <time>2016-06-08T09:51:53Z</time>
      </trkpt>
      <trkpt lat="44.24275" lon="3.75026">
        <ele>1024.308</ele>
        <time>2016-06-08T09:52:13Z</time>
      </trkpt>
      <trkpt lat="44.24279" lon="3.75152">
        <ele>1031.262</ele>
        <time>2016-06-08T09:52:33Z</time>
      </trkpt>
      <trkpt lat="44.24257" lon="3.75228">
        <ele>1026.383</ele>
        <time>2016-06-08T09:52:53Z</time>
      </trkpt>
      <trkpt lat="44.24192" lon="3.7532">
        <ele>1020.514</ele>
        <time>2016-06-08T09:53:13Z</time>
      </trkpt>
      <trkpt lat="44.24131" lon="3.75382">
        <ele>1012.152</ele>
        <time>2016-06-08T09:53:33Z</time>
      </trkpt>
      <trkpt lat="44.24089" lon="3.7548">
        <ele>1009.27</ele>
        <time>2016-06-08T09:53:53Z</time>
      </trkpt>
      <trkpt lat="44.24036" lon="3.75518">
        <ele>1009.272</ele>
        <time>2016-06-08T09:54:13Z</time>
      </trkpt>
      <trkpt lat="44.23987" lon="3.75514">
        <ele>1005.012</ele>
        <time>2016-06-08T09:54:33Z</time>
      </trkpt>
      <trkpt lat="44.23907" lon="3.75525">
        <ele>999.853</ele>
        <time>2016-06-08T09:54:53Z</time>
      </trkpt>
      <trkpt lat="44.23754" lon="3.75559">
        <ele>987.881</ele>
        <time>2016-06-08T09:55:13Z</time>
      </trkpt>
      <trkpt lat="44.23638" lon="3.75615">
        <ele>988.061</ele>
        <time>2016-06-08T09:55:33Z</time>
      </trkpt>
      <trkpt lat="44.23586" lon="3.75615">
        <ele>983.617</ele>
        <time>2016-06-08T09:55:53Z</time>
      </trkpt>
      <trkpt lat="44.23543" lon="3.75635">
        <ele>978.808</ele>
        <time>2016-06-08T09:56:13Z</time>
      </trkpt>
      <trkpt lat="44.23483" lon="3.75733">
        <ele>976.141</ele>
        <time>2016-06-08T09:56:33Z</time>
      </trkpt>
      <trkpt lat="44.23467" lon="3.75847">
        <ele>981.442</ele>
        <time>2016-06-08T09:56:53Z</time>
      </trkpt>
      <trkpt lat="44.23478" lon="3.75895">
        <ele>986.193</ele>
        <time>2016-06-08T09:57:13Z</time>
      </trkpt>
      <trkpt lat="44.23448" lon="3.75931">
        <ele>983.211</ele>
        <time>2016-06-08T09:57:33Z</time>
      </trkpt>
      <trkpt lat="44.23395" lon="3.75961">
        <ele>975.799</ele>
        <time>2016-06-08T09:57:53Z</time>
      </trkpt>
      <trkpt lat="44.2338" lon="3.76114">
        <ele>979.221</ele>
        <time>2016-06-08T09:58:13Z</time>
      </trkpt>
      <trkpt lat="44.234" lon="3.76221">
        <ele>968.771</ele>
        <time>2016-06-08T09:58:33Z</time>
      </trkpt>
      <trkpt lat="44.23424" lon="3.76332">
        <ele>959.032</ele>
        <time>2016-06-08T09:58:53Z</time>
      </trkpt>
      <trkpt lat="44.23458" lon="3.76394">
        <ele>958.188</ele>
        <time>2016-06-08T09:59:13Z</time>
      </trkpt>
      <trkpt lat="44.23492" lon="3.76521">
        <ele>952.724</ele>
        <time>2016-06-08T09:59:33Z</time>
      </trkpt>
      <trkpt lat="44.23488" lon="3.7655">
        <ele>946.926</ele>
        <time>2016-06-08T09:59:53Z</time>
      </trkpt>
      <trkpt lat="44.235" lon="3.76575">
        <ele>947.608</ele>
        <time>2016-06-08T10:00:13Z</time>
      </trkpt>
      <trkpt lat="44.23549" lon="3.76598">
        <ele>950.211</ele>
        <time>2016-06-08T10:00:33Z</time>
      </trkpt>
      <trkpt lat="44.23509" lon="3.76605">
        <ele>943.832</ele>
        <time>2016-06-08T10:00:53Z</time>
      </trkpt>
      <trkpt lat="44.23567" lon="3.76645">
        <ele>939.723</ele>
        <time>2016-06-08T10:01:13Z</time>
      </trkpt>
      <trkpt lat="44.23604" lon="3.76654">
        <ele>943.051</ele>
        <time>2016-06-08T10:01:33Z</time>
      </trkpt>
      <trkpt lat="44.23616" lon="3.76699">
        <ele>938.229</ele>
        <time>2016-06-08T10:01:53Z</time>
      </trkpt>
      <trkpt lat="44.23587" lon="3.76872">
        <ele>926.481</ele>
        <time>2016-06-08T10:02:13Z</time>
      </trkpt>
      <trkpt lat="44.23598" lon="3.76969">
        <ele>921.681</ele>
        <time>2016-06-08T10:02:33Z</time>
      </trkpt>
      <trkpt lat="44.23635" lon="3.77113">
        <ele>918.122</ele>
        <time>2016-06-08T10:02:53Z</time>
      </trkpt>
      <trkpt lat="44.23639" lon="3.77163">
        <ele>916.623</ele>
        <time>2016-06-08T10:03:13Z</time>
      </trkpt>
      <trkpt lat="44.23653" lon="3.77212">
        <ele>912.283</ele>
        <time>2016-06-08T10:03:33Z</time>
      </trkpt>
      <trkpt lat="44.23613" lon="3.77208">
        <ele>902.111</ele>
        <time>2016-06-08T10:03:53Z</time>
      </trkpt>
      <trkpt lat="44.23624" lon="3.77238">
        <ele>899.208</ele>
        <time>2016-06-08T10:04:13Z</time>
      </trkpt>
      <trkpt lat="44.23656" lon="3.77263">
        <ele>901.995</ele>
        <time>2016-06-08T10:04:33Z</time>
      </trkpt>
      <trkpt lat="44.23659" lon="3.77291">
        <ele>901.366</ele>
        <time>2016-06-08T10:04:53Z</time>
      </trkpt>
      <trkpt lat="44.23631" lon="3.77336">
        <ele>898.437</ele>
        <time>2016-06-08T10:05:13Z</time>
      </trkpt>
      <trkpt lat="44.23601" lon="3.77348">
        <ele>895.485</ele>
        <time>2016-06-08T10:05:33Z</time>
      </trkpt>
      <trkpt lat="44.23565" lon="3.77342">
        <ele>890.283</ele>
        <time>2016-06-08T10:05:53Z</time>
      </trkpt>
      <trkpt lat="44.23513" lon="3.77355">
        <ele>885.995</ele>
        <time>2016-06-08T10:06:13Z</time>
      </trkpt>
      <trkpt lat="44.2346" lon="3.77435">
        <ele>893.115</ele>
        <time>2016-06-08T10:06:33Z</time>
      </trkpt>
      <trkpt lat="44.2341" lon="3.77495">
        <ele>889.526</ele>
        <time>2016-06-08T10:06:53Z</time>
      </trkpt>
      <trkpt lat="44.23384" lon="3.77541">
        <ele>892.333</ele>
        <time>2016-06-08T10:07:13Z</time>
      </trkpt>
      <trkpt lat="44.23207" lon="3.77747">
        <ele>889.423</ele>
        <time>2016-06-08T10:07:33Z</time>
      </trkpt>
      <trkpt lat="44.23215" lon="3.77819">
        <ele>885.415</ele>
        <time>2016-06-08T10:07:53Z</time>
      </trkpt>
      <trkpt lat="44.23138" lon="3.77961">
        <ele>882.608</ele>
        <time>2016-06-08T10:08:13Z</time>
      </trkpt>
      <trkpt lat="44.231" lon="3.78075">
        <ele>887.546</ele>
        <time>2016-06-08T10:08:33Z</time>
      </trkpt>
      <trkpt lat="44.23087" lon="3.78161">
        <ele>880.177</ele>
        <time>2016-06-08T10:08:53Z</time>
      </trkpt>
      <trkpt lat="44.23009" lon="3.7836">
        <ele>870.578</ele>
        <time>2016-06-08T10:09:13Z</time>
      </trkpt>
      <trkpt lat="44.22974" lon="3.78418">
        <ele>863.546</ele>
        <time>2016-06-08T10:09:33Z</time>
      </trkpt>
      <trkpt lat="44.22938" lon="3.78442">
        <ele>860.894</ele>
        <time>2016-06-08T10:09:53Z</time>
      </trkpt>
      <trkpt lat="44.22892" lon="3.7845">
        <ele>865.446</ele>
        <time>2016-06-08T10:10:13Z</time>
      </trkpt>
      <trkpt lat="44.22831" lon="3.78496">
        <ele>854.516</ele>
        <time>2016-06-08T10:10:33Z</time>
      </trkpt>
      <trkpt lat="44.22795" lon="3.78529">
        <ele>849.717</ele>
        <time>2016-06-08T10:10:53Z</time>
      </trkpt>
      <trkpt lat="44.22726" lon="3.78581">
        <ele>847.943</ele>
        <time>2016-06-08T10:11:13Z</time>
      </trkpt>
      <trkpt lat="44.22681" lon="3.78642">
        <ele>845.764</ele>
        <time>2016-06-08T10:11:33Z</time>
      </trkpt>
      <trkpt lat="44.2264" lon="3.78684">
        <ele>849.61</ele>
        <time>2016-06-08T10:11:53Z</time>
      </trkpt>
      <trkpt lat="44.22568" lon="3.78971">
        <ele>840.608</ele>
        <time>2016-06-08T10:12:13Z</time>
      </trkpt>
      <trkpt lat="44.22529" lon="3.78991">
        <ele>846.957</ele>
        <time>2016-06-08T10:12:33Z</time>
      </trkpt>
      <trkpt lat="44.22466" lon="3.7918">
        <ele>830.048</ele>
        <time>2016-06-08T10:12:53Z</time>
      </trkpt>
      <trkpt lat="44.22423" lon="3.79244">
        <ele>821.859</ele>
        <time>2016-06-08T10:13:13Z</time>
      </trkpt>
      <trkpt lat="44.22398" lon="3.79303">
        <ele>823.327</ele>
        <time>2016-06-08T10:13:33Z</time>
      </trkpt>
      <trkpt lat="44.22405" lon="3.79353">
        <ele>823.165</ele>
        <time>2016-06-08T10:13:53Z</time>
      </trkpt>
      <trkpt lat="44.22459" lon="3.79458">
        <ele>815.847</ele>
        <time>2016-06-08T10:14:13Z</time>
      </trkpt>
      <trkpt lat="44.22471" lon="3.7954">
        <ele>814.717</ele>
        <time>2016-06-08T10:14:33Z</time>
      </trkpt>
      <trkpt lat="44.22471" lon="3.79676">
        <ele>798.768</ele>
        <time>2016-06-08T10:14:53Z</time>
      </trkpt>
      <trkpt lat="44.22482" lon="3.79675">
        <ele>797.437</ele>
        <time>2016-06-08T10:15:13Z</time>
      </trkpt>
      <trkpt lat="44.22503" lon="3.79568">
        <ele>806.649</ele>
        <time>2016-06-08T10:15:33Z</time>
      </trkpt>
      <trkpt lat="44.22538" lon="3.79729">
        <ele>785.513</ele>
        <time>2016-06-08T10:15:53Z</time>
      </trkpt>
      <trkpt lat="44.22542" lon="3.79833">
        <ele>776.408</ele>
        <time>2016-06-08T10:16:13Z</time>
      </trkpt>
      <trkpt lat="44.22518" lon="3.7989">
        <ele>772.636</ele>
        <time>2016-06-08T10:16:33Z</time>
      </trkpt>
      <trkpt lat="44.22374" lon="3.79916">
        <ele>752.887</ele>
        <time>2016-06-08T10:16:53Z</time>
      </trkpt>
      <trkpt lat="44.22369" lon="3.79894">
        <ele>753.848</ele>
        <time>2016-06-08T10:17:13Z</time>
      </trkpt>
      <trkpt lat="44.22318" lon="3.79815">
        <ele>758.566</ele>
        <time>2016-06-08T10:17:33Z</time>
      </trkpt>
      <trkpt lat="44.22249" lon="3.79851">
        <ele>736.614</ele>
        <time>2016-06-08T10:17:53Z</time>
      </trkpt>
      <trkpt lat="44.2228" lon="3.79858">
        <ele>738.436</ele>
        <time>2016-06-08T10:18:13Z</time>
      </trkpt>
      <trkpt lat="44.22135" lon="3.79931">
        <ele>711.226</ele>
        <time>2016-06-08T10:18:33Z</time>
      </trkpt>
      <trkpt lat="44.22007" lon="3.79851">
        <ele>696.967</ele>
        <time>2016-06-08T10:18:53Z</time>
      </trkpt>
      <trkpt lat="44.2198" lon="3.79879">
        <ele>684.584</ele>
        <time>2016-06-08T10:19:13Z</time>
      </trkpt>
      <trkpt lat="44.21976" lon="3.79919">
        <ele>675.907</ele>
        <time>2016-06-08T10:19:33Z</time>
      </trkpt>
      <trkpt lat="44.2193" lon="3.79996">
        <ele>659.417</ele>
        <time>2016-06-08T10:19:53Z</time>
      </trkpt>
      <trkpt lat="44.21926" lon="3.80089">
        <ele>645.708</ele>
        <time>2016-06-08T10:20:13Z</time>
      </trkpt>
      <trkpt lat="44.21933" lon="3.80187">
        <ele>645.421</ele>
        <time>2016-06-08T10:20:33Z</time>
      </trkpt>
      <trkpt lat="44.21909" lon="3.80329">
        <ele>640.972</ele>
        <time>2016-06-08T10:20:53Z</time>
      </trkpt>
      <trkpt lat="44.21895" lon="3.80431">
        <ele>627.643</ele>
        <time>2016-06-08T10:21:13Z</time>
      </trkpt>
      <trkpt lat="44.21931" lon="3.80398">
        <ele>622.221</ele>
        <time>2016-06-08T10:21:33Z</time>
      </trkpt>
      <trkpt lat="44.2195" lon="3.80364">
        <ele>618.619</ele>
        <time>2016-06-08T10:21:53Z</time>
      </trkpt>
      <trkpt lat="44.22" lon="3.80337">
        <ele>605.931</ele>
        <time>2016-06-08T10:22:13Z</time>
      </trkpt>
      <trkpt lat="44.21996" lon="3.80367">
        <ele>599.711</ele>
        <time>2016-06-08T10:22:33Z</time>
      </trkpt>
      <trkpt lat="44.22034" lon="3.80336">
        <ele>588.252</ele>
        <time>2016-06-08T10:22:53Z</time>
      </trkpt>
      <trkpt lat="44.22039" lon="3.80376">
        <ele>578.424</ele>
        <time>2016-06-08T10:23:13Z</time>
      </trkpt>
      <trkpt lat="44.22052" lon="3.80443">
        <ele>561.304</ele>
        <time>2016-06-08T10:23:33Z</time>
      </trkpt>
      <trkpt lat="44.22016" lon="3.80539">
        <ele>551.914</ele>
        <time>2016-06-08T10:23:53Z</time>
      </trkpt>
      <trkpt lat="44.22047" lon="3.80505">
        <ele>543.208</ele>
        <time>2016-06-08T10:24:13Z</time>
      </trkpt>
      <trkpt lat="44.2207" lon="3.80498">
        <ele>534.885</ele>
        <time>2016-06-08T10:24:33Z</time>
      </trkpt>
      <trkpt lat="44.22033" lon="3.80564">
        <ele>530.546</ele>
        <time>2016-06-08T10:24:53Z</time>
      </trkpt>
      <trkpt lat="44.2201" lon="3.8065">
        <ele>526.317</ele>
        <time>2016-06-08T10:25:13Z</time>
      </trkpt>
      <trkpt lat="44.22013" lon="3.80709">
        <ele>509.035</ele>
        <time>2016-06-08T10:25:33Z</time>
      </trkpt>
      <trkpt lat="44.21929" lon="3.8087">
        <ele>499.973</ele>
        <time>2016-06-08T10:25:53Z</time>
      </trkpt>
      <trkpt lat="44.21856" lon="3.80926">
        <ele>497.035</ele>
        <time>2016-06-08T10:26:13Z</time>
      </trkpt>
      <trkpt lat="44.21843" lon="3.80896">
        <ele>498.695</ele>
        <time>2016-06-08T10:26:33Z</time>
      </trkpt>
      <trkpt lat="44.2182" lon="3.80896">
        <ele>495.646</ele>
        <time>2016-06-08T10:26:53Z</time>
      </trkpt>
      <trkpt lat="44.21757" lon="3.8084">
        <ele>492.836</ele>
        <time>2016-06-08T10:27:13Z</time>
      </trkpt>
      <trkpt lat="44.21702" lon="3.80831">
        <ele>490.717</ele>
        <time>2016-06-08T10:27:33Z</time>
      </trkpt>
      <trkpt lat="44.21601" lon="3.80763">
        <ele>495.018</ele>
        <time>2016-06-08T10:27:53Z</time>
      </trkpt>
      <trkpt lat="44.21591" lon="3.80732">
        <ele>497.308</ele>
        <time>2016-06-08T10:28:13Z</time>
      </trkpt>
      <trkpt lat="44.21611" lon="3.80679">
        <ele>505.226</ele>
        <time>2016-06-08T10:28:33Z</time>
      </trkpt>
      <trkpt lat="44.2159" lon="3.80659">
        <ele>508.527</ele>
        <time>2016-06-08T10:28:53Z</time>
      </trkpt>
      <trkpt lat="44.21522" lon="3.80707">
        <ele>510.398</ele>
        <time>2016-06-08T10:29:13Z</time>
      </trkpt>
      <trkpt lat="44.21484" lon="3.807">
        <ele>516.716</ele>
        <time>2016-06-08T10:29:33Z</time>
      </trkpt>
      <trkpt lat="44.21428" lon="3.8073">
        <ele>517.244</ele>
        <time>2016-06-08T10:29:53Z</time>
      </trkpt>
      <trkpt lat="44.2139" lon="3.80794">
        <ele>508.056</ele>
        <time>2016-06-08T10:30:13Z</time>
      </trkpt>
      <trkpt lat="44.21344" lon="3.80787">
        <ele>523.266</ele>
        <time>2016-06-08T10:30:33Z</time>
      </trkpt>
      <trkpt lat="44.21241" lon="3.80776">
        <ele>531.997</ele>
        <time>2016-06-08T10:30:53Z</time>
      </trkpt>
      <trkpt lat="44.21179" lon="3.8075">
        <ele>541.651</ele>
        <time>2016-06-08T10:31:13Z</time>
      </trkpt>
      <trkpt lat="44.21148" lon="3.80762">
        <ele>545.101</ele>
        <time>2016-06-08T10:31:33Z</time>
      </trkpt>
      <trkpt lat="44.21128" lon="3.80794">
        <ele>546.711</ele>
        <time>2016-06-08T10:31:53Z</time>
      </trkpt>
      <trkpt lat="44.21117" lon="3.8084">
        <ele>548.408</ele>
        <time>2016-06-08T10:32:13Z</time>
      </trkpt>
      <trkpt lat="44.21059" lon="3.80904">
        <ele>557.838</ele>
        <time>2016-06-08T10:32:33Z</time>
      </trkpt>
      <trkpt lat="44.2098" lon="3.8092">
        <ele>564.979</ele>
        <time>2016-06-08T10:32:53Z</time>
      </trkpt>
      <trkpt lat="44.20926" lon="3.80862">
        <ele>563.59</ele>
        <time>2016-06-08T10:33:13Z</time>
      </trkpt>
      <trkpt lat="44.20896" lon="3.80866">
        <ele>561.688</ele>
        <time>2016-06-08T10:33:33Z</time>
      </trkpt>
      <trkpt lat="44.20838" lon="3.80934">
        <ele>559.346</ele>
        <time>2016-06-08T10:33:53Z</time>
      </trkpt>
      <trkpt lat="44.20782" lon="3.81038">
        <ele>552.038</ele>
        <time>2016-06-08T10:34:13Z</time>
      </trkpt>
      <trkpt lat="44.20721" lon="3.8121">
        <ele>547.178</ele>
        <time>2016-06-08T10:34:33Z</time>
      </trkpt>
      <trkpt lat="44.20715" lon="3.81277">
        <ele>538.739</ele>
        <time>2016-06-08T10:34:53Z</time>
      </trkpt>
      <trkpt lat="44.20692" lon="3.813">
        <ele>533.742</ele>
        <time>2016-06-08T10:35:13Z</time>
      </trkpt>
      <trkpt lat="44.20644" lon="3.81303">
        <ele>536.122</ele>
        <time>2016-06-08T10:35:33Z</time>
      </trkpt>
      <trkpt lat="44.20618" lon="3.81459">
        <ele>515.814</ele>
        <time>2016-06-08T10:35:53Z</time>
      </trkpt>
      <trkpt lat="44.20611" lon="3.81488">
        <ele>514.308</ele>
        <time>2016-06-08T10:36:13Z</time>
      </trkpt>
      <trkpt lat="44.20602" lon="3.81545">
        <ele>512.087</ele>
        <time>2016-06-08T10:36:33Z</time>
      </trkpt>
      <trkpt lat="44.20568" lon="3.81632">
        <ele>513.298</ele>
        <time>2016-06-08T10:36:53Z</time>
      </trkpt>
      <trkpt lat="44.20525" lon="3.81697">
        <ele>510.259</ele>
        <time>2016-06-08T10:37:13Z</time>
      </trkpt>
      <trkpt lat="44.20489" lon="3.81714">
        <ele>512.937</ele>
        <time>2016-06-08T10:37:33Z</time>
      </trkpt>
      <trkpt lat="44.20457" lon="3.81776">
        <ele>510.265</ele>
        <time>2016-06-08T10:37:53Z</time>
      </trkpt>
      <trkpt lat="44.20429" lon="3.81883">
        <ele>500.357</ele>
        <time>2016-06-08T10:38:13Z</time>
      </trkpt>
      <trkpt lat="44.20424" lon="3.81951">
        <ele>497.357</ele>
        <time>2016-06-08T10:38:33Z</time>
      </trkpt>
      <trkpt lat="44.20397" lon="3.82002">
        <ele>502.588</ele>
        <time>2016-06-08T10:38:53Z</time>
      </trkpt>
      <trkpt lat="44.20396" lon="3.82086">
        <ele>492.877</ele>
        <time>2016-06-08T10:39:13Z</time>
      </trkpt>
      <trkpt lat="44.20382" lon="3.82139">
        <ele>486.061</ele>
        <time>2016-06-08T10:39:33Z</time>
      </trkpt>
      <trkpt lat="44.20324" lon="3.82186">
        <ele>485.627</ele>
        <time>2016-06-08T10:39:53Z</time>
      </trkpt>
      <trkpt lat="44.20285" lon="3.82315">
        <ele>470.108</ele>
        <time>2016-06-08T10:40:13Z</time>
      </trkpt>
      <trkpt lat="44.20247" lon="3.82379">
        <ele>468.43</ele>
        <time>2016-06-08T10:40:33Z</time>
      </trkpt>
      <trkpt lat="44.20242" lon="3.82489">
        <ele>468.991</ele>
        <time>2016-06-08T10:40:53Z</time>
      </trkpt>
      <trkpt lat="44.20263" lon="3.82598">
        <ele>469.362</ele>
        <time>2016-06-08T10:41:13Z</time>
      </trkpt>
      <trkpt lat="44.20222" lon="3.82727">
        <ele>475.94</ele>
        <time>2016-06-08T10:41:33Z</time>
      </trkpt>
      <trkpt lat="44.20232" lon="3.8279">
        <ele>467.378</ele>
        <time>2016-06-08T10:41:53Z</time>
      </trkpt>
      <trkpt lat="44.20289" lon="3.82854">
        <ele>451.61</ele>
        <time>2016-06-08T10:42:13Z</time>
      </trkpt>
      <trkpt lat="44.20302" lon="3.82881">
        <ele>447.67</ele>
        <time>2016-06-08T10:42:33Z</time>
      </trkpt>
      <trkpt lat="44.20269" lon="3.8287">
        <ele>453.891</ele>
        <time>2016-06-08T10:42:53Z</time>
      </trkpt>
      <trkpt lat="44.20202" lon="3.82817">
        <ele>463.789</ele>
        <time>2016-06-08T10:43:13Z</time>
      </trkpt>
      <trkpt lat="44.20173" lon="3.82836">
        <ele>458.806</ele>
        <time>2016-06-08T10:43:33Z</time>
      </trkpt>
      <trkpt lat="44.20142" lon="3.82887">
        <ele>448.926</ele>
        <time>2016-06-08T10:43:53Z</time>
      </trkpt>
      <trkpt lat="44.20061" lon="3.82921">
        <ele>458.408</ele>
        <time>2016-06-08T10:44:13Z</time>
      </trkpt>
      <trkpt lat="44.20039" lon="3.8296">
        <ele>456.621</ele>
        <time>2016-06-08T10:44:33Z</time>
      </trkpt>
      <trkpt lat="44.20056" lon="3.83004">
        <ele>444.342</ele>
        <time>2016-06-08T10:44:53Z</time>
      </trkpt>
      <trkpt lat="44.20048" lon="3.83078">
        <ele>438.423</ele>
        <time>2016-06-08T10:45:13Z</time>
      </trkpt>
      <trkpt lat="44.19986" lon="3.83189">
        <ele>437.211</ele>
        <time>2016-06-08T10:45:33Z</time>
      </trkpt>
      <trkpt lat="44.19958" lon="3.83201">
        <ele>434.139</ele>
        <time>2016-06-08T10:45:53Z</time>
      </trkpt>
      <trkpt lat="44.19909" lon="3.8318">
        <ele>435.291</ele>
        <time>2016-06-08T10:46:13Z</time>
      </trkpt>
      <trkpt lat="44.19879" lon="3.83182">
        <ele>435.921</ele>
        <time>2016-06-08T10:46:33Z</time>
      </trkpt>
      <trkpt lat="44.19879" lon="3.83221">
        <ele>425.772</ele>
        <time>2016-06-08T10:46:53Z</time>
      </trkpt>
      <trkpt lat="44.19838" lon="3.83326">
        <ele>412.163</ele>
        <time>2016-06-08T10:47:13Z</time>
      </trkpt>
      <trkpt lat="44.19819" lon="3.83334">
        <ele>407.244</ele>
        <time>2016-06-08T10:47:33Z</time>
      </trkpt>
      <trkpt lat="44.19773" lon="3.83303">
        <ele>403.618</ele>
        <time>2016-06-08T10:47:53Z</time>
      </trkpt>
      <trkpt lat="44.19729" lon="3.83244">
        <ele>409.208</ele>
        <time>2016-06-08T10:48:13Z</time>
      </trkpt>
      <trkpt lat="44.19695" lon="3.83253">
        <ele>407.359</ele>
        <time>2016-06-08T10:48:33Z</time>
      </trkpt>
      <trkpt lat="44.19697" lon="3.83329">
        <ele>396.09</ele>
        <time>2016-06-08T10:48:53Z</time>
      </trkpt>
      <trkpt lat="44.19655" lon="3.83358">
        <ele>394.181</ele>
        <time>2016-06-08T10:49:13Z</time>
      </trkpt>
      <trkpt lat="44.19631" lon="3.83342">
        <ele>400.759</ele>
        <time>2016-06-08T10:49:33Z</time>
      </trkpt>
      <trkpt lat="44.19615" lon="3.83366">
        <ele>395.277</ele>
        <time>2016-06-08T10:49:53Z</time>
      </trkpt>
      <trkpt lat="44.19573" lon="3.83391">
        <ele>398.679</ele>
        <time>2016-06-08T10:50:13Z</time>
      </trkpt>
      <trkpt lat="44.19562" lon="3.83444">
        <ele>391.019</ele>
        <time>2016-06-08T10:50:33Z</time>
      </trkpt>
      <trkpt lat="44.19522" lon="3.83496">
        <ele>385.91</ele>
        <time>2016-06-08T10:50:53Z</time>
      </trkpt>
      <trkpt lat="44.19489" lon="3.83518">
        <ele>388.153</ele>
        <time>2016-06-08T10:51:13Z</time>
      </trkpt>
      <trkpt lat="44.19496" lon="3.83549">
        <ele>384.904</ele>
        <time>2016-06-08T10:51:33Z</time>
      </trkpt>
      <trkpt lat="44.1954" lon="3.83608">
        <ele>379.414</ele>
        <time>2016-06-08T10:51:53Z</time>
      </trkpt>
      <trkpt lat="44.1954" lon="3.83651">
        <ele>375.708</ele>
        <time>2016-06-08T10:52:13Z</time>
      </trkpt>
      <trkpt lat="44.19514" lon="3.83694">
        <ele>375.548</ele>
        <time>2016-06-08T10:52:33Z</time>
      </trkpt>
      <trkpt lat="44.19458" lon="3.8391">
        <ele>366.349</ele>
        <time>2016-06-08T10:52:53Z</time>
      </trkpt>
      <trkpt lat="44.19442" lon="3.83928">
        <ele>364.57</ele>
        <time>2016-06-08T10:53:13Z</time>
      </trkpt>
      <trkpt lat="44.19382" lon="3.83938">
        <ele>356.198</ele>
        <time>2016-06-08T10:53:33Z</time>
      </trkpt>
      <trkpt lat="44.19348" lon="3.83905">
        <ele>365.516</ele>
        <time>2016-06-08T10:53:53Z</time>
      </trkpt>
      <trkpt lat="44.19319" lon="3.83951">
        <ele>353.778</ele>
        <time>2016-06-08T10:54:13Z</time>
      </trkpt>
      <trkpt lat="44.19222" lon="3.83976">
        <ele>335.698</ele>
        <time>2016-06-08T10:54:33Z</time>
      </trkpt>
      <trkpt lat="44.19199" lon="3.83941">
        <ele>337.249</ele>
        <time>2016-06-08T10:54:53Z</time>
      </trkpt>
      <trkpt lat="44.19175" lon="3.83926">
        <ele>331.559</ele>
        <time>2016-06-08T10:55:13Z</time>
      </trkpt>
      <trkpt lat="44.19169" lon="3.8389">
        <ele>336.003</ele>
        <time>2016-06-08T10:55:33Z</time>
      </trkpt>
      <trkpt lat="44.19088" lon="3.83787">
        <ele>315.123</ele>
        <time>2016-06-08T10:55:53Z</time>
      </trkpt>
      <trkpt lat="44.19093" lon="3.83746">
        <ele>317.608</ele>
        <time>2016-06-08T10:56:13Z</time>
      </trkpt>
      <trkpt lat="44.19141" lon="3.83709">
        <ele>328.448</ele>
        <time>2019-03-26T07:25:51Z</time>
      </trkpt>
      <trkpt lat="44.19118" lon="3.83666">
        <ele>331.199</ele>
        <time>2019-03-26T07:26:11Z</time>
      </trkpt>
      <trkpt lat="44.19045" lon="3.83692">
        <ele>308.81</ele>
        <time>2016-06-08T10:56:53Z</time>
      </trkpt>
      <trkpt lat="44.18998" lon="3.83632">
        <ele>304.248</ele>
        <time>2016-06-08T10:57:13Z</time>
      </trkpt>
      <trkpt lat="44.18971" lon="3.83567">
        <ele>305.626</ele>
        <time>2016-06-08T10:57:33Z</time>
      </trkpt>
      <trkpt lat="44.18927" lon="3.83519">
        <ele>300.988</ele>
        <time>2016-06-08T10:57:53Z</time>
      </trkpt>
      <trkpt lat="44.18905" lon="3.83454">
        <ele>296.518</ele>
        <time>2016-06-08T10:58:13Z</time>
      </trkpt>
      <trkpt lat="44.18892" lon="3.83398">
        <ele>295.959</ele>
        <time>2016-06-08T10:58:33Z</time>
      </trkpt>
      <trkpt lat="44.18845" lon="3.83327">
        <ele>296.768</ele>
        <time>2016-06-08T10:58:53Z</time>
      </trkpt>
      <trkpt lat="44.18785" lon="3.83342">
        <ele>288.042</ele>
        <time>2016-06-08T10:59:13Z</time>
      </trkpt>
      <trkpt lat="44.18724" lon="3.83405">
        <ele>275.726</ele>
        <time>2016-06-08T10:59:33Z</time>
      </trkpt>
      <trkpt lat="44.18694" lon="3.834">
        <ele>271.308</ele>
        <time>2016-06-08T10:59:53Z</time>
      </trkpt>
      <trkpt lat="44.18679" lon="3.83361">
        <ele>270.019</ele>
        <time>2016-06-08T11:00:13Z</time>
      </trkpt>
      <trkpt lat="44.18704" lon="3.8325">
        <ele>268.44</ele>
        <time>2016-06-08T11:00:33Z</time>
      </trkpt>
      <trkpt lat="44.18658" lon="3.83226">
        <ele>265.261</ele>
        <time>2016-06-08T11:00:53Z</time>
      </trkpt>
      <trkpt lat="44.18614" lon="3.83272">
        <ele>276.469</ele>
        <time>2016-06-08T11:01:13Z</time>
      </trkpt>
      <trkpt lat="44.1858" lon="3.83354">
        <ele>267.247</ele>
        <time>2016-06-08T11:01:33Z</time>
      </trkpt>
      <trkpt lat="44.18498" lon="3.83467">
        <ele>269.349</ele>
        <time>2016-06-08T11:01:53Z</time>
      </trkpt>
      <trkpt lat="44.18399" lon="3.83516">
        <ele>271.939</ele>
        <time>2016-06-08T11:02:13Z</time>
      </trkpt>
      <trkpt lat="44.18361" lon="3.83512">
        <ele>274.91</ele>
        <time>2016-06-08T11:02:33Z</time>
      </trkpt>
      <trkpt lat="44.18284" lon="3.83521">
        <ele>277.488</ele>
        <time>2019-03-26T07:32:31Z</time>
      </trkpt>
      <trkpt lat="44.18118" lon="3.83518">
        <ele>282.424</ele>
        <time>2016-06-08T11:02:53Z</time>
      </trkpt>
      <trkpt lat="44.18101" lon="3.83529">
        <ele>282.126</ele>
        <time>2016-06-08T11:03:13Z</time>
      </trkpt>
      <trkpt lat="44.18105" lon="3.83568">
        <ele>272.508</ele>
        <time>2016-06-08T11:03:33Z</time>
      </trkpt>
      <trkpt lat="44.18078" lon="3.83643">
        <ele>270.411</ele>
        <time>2016-06-08T11:03:53Z</time>
      </trkpt>
      <trkpt lat="44.18052" lon="3.83652">
        <ele>271.972</ele>
        <time>2016-06-08T11:04:13Z</time>
      </trkpt>
      <trkpt lat="44.17956" lon="3.83654">
        <ele>276.163</ele>
        <time>2016-06-08T11:04:33Z</time>
      </trkpt>
      <trkpt lat="44.17869" lon="3.83738">
        <ele>270.611</ele>
        <time>2016-06-08T11:04:53Z</time>
      </trkpt>
      <trkpt lat="44.17851" lon="3.83783">
        <ele>268.799</ele>
        <time>2016-06-08T11:05:13Z</time>
      </trkpt>
      <trkpt lat="44.17814" lon="3.83807">
        <ele>272.651</ele>
        <time>2016-06-08T11:05:33Z</time>
      </trkpt>
      <trkpt lat="44.17771" lon="3.8381">
        <ele>281.581</ele>
        <time>2016-06-08T11:05:53Z</time>
      </trkpt>
      <trkpt lat="44.17721" lon="3.83846">
        <ele>278.972</ele>
        <time>2016-06-08T11:06:13Z</time>
      </trkpt>
      <trkpt lat="44.17688" lon="3.83856">
        <ele>284.199</ele>
        <time>2016-06-08T11:06:33Z</time>
      </trkpt>
      <trkpt lat="44.17634" lon="3.83918">
        <ele>287.307</ele>
        <time>2016-06-08T11:06:53Z</time>
      </trkpt>
      <trkpt lat="44.17624" lon="3.83966">
        <ele>283.027</ele>
        <time>2016-06-08T11:07:13Z</time>
      </trkpt>
      <trkpt lat="44.17597" lon="3.84028">
        <ele>290.408</ele>
        <time>2016-06-08T11:07:33Z</time>
      </trkpt>
      <trkpt lat="44.1755" lon="3.8422">
        <ele>297.192</ele>
        <time>2016-06-08T11:07:53Z</time>
      </trkpt>
      <trkpt lat="44.17504" lon="3.84271">
        <ele>300.333</ele>
        <time>2016-06-08T11:08:13Z</time>
      </trkpt>
      <trkpt lat="44.17443" lon="3.84267">
        <ele>299.464</ele>
        <time>2016-06-08T11:08:33Z</time>
      </trkpt>
      <trkpt lat="44.1735" lon="3.84217">
        <ele>283.012</ele>
        <time>2016-06-08T11:08:53Z</time>
      </trkpt>
      <trkpt lat="44.17276" lon="3.84219">
        <ele>277.99</ele>
        <time>2016-06-08T11:09:13Z</time>
      </trkpt>
      <trkpt lat="44.17223" lon="3.84145">
        <ele>273.512</ele>
        <time>2016-06-08T11:09:33Z</time>
      </trkpt>
      <trkpt lat="44.17197" lon="3.84126">
        <ele>265.132</ele>
        <time>2016-06-08T11:09:53Z</time>
      </trkpt>
      <trkpt lat="44.17234" lon="3.84084">
        <ele>264.593</ele>
        <time>2016-06-08T11:10:13Z</time>
      </trkpt>
      <trkpt lat="44.17151" lon="3.83975">
        <ele>254.092</ele>
        <time>2016-06-08T11:10:33Z</time>
      </trkpt>
      <trkpt lat="44.17124" lon="3.8391">
        <ele>252.073</ele>
        <time>2016-06-08T11:10:53Z</time>
      </trkpt>
      <trkpt lat="44.17042" lon="3.83883">
        <ele>259.52</ele>
        <time>2016-06-08T11:11:13Z</time>
      </trkpt>
      <trkpt lat="44.16927" lon="3.8397">
        <ele>269.508</ele>
        <time>2016-06-08T11:11:33Z</time>
      </trkpt>
      <trkpt lat="44.16804" lon="3.84165">
        <ele>262.442</ele>
        <time>2016-06-08T11:11:53Z</time>
      </trkpt>
      <trkpt lat="44.16776" lon="3.8422">
        <ele>259.483</ele>
        <time>2016-06-08T11:12:13Z</time>
      </trkpt>
      <trkpt lat="44.16748" lon="3.84232">
        <ele>260.284</ele>
        <time>2016-06-08T11:12:33Z</time>
      </trkpt>
      <trkpt lat="44.16326" lon="3.84199">
        <ele>254.492</ele>
        <time>2016-06-08T11:12:53Z</time>
      </trkpt>
      <trkpt lat="44.16333" lon="3.84149">
        <ele>252.87</ele>
        <time>2016-06-08T11:13:13Z</time>
      </trkpt>
      <trkpt lat="44.16324" lon="3.84112">
        <ele>257.142</ele>
        <time>2016-06-08T11:13:33Z</time>
      </trkpt>
      <trkpt lat="44.16311" lon="3.84166">
        <ele>260.952</ele>
        <time>2016-06-08T11:13:53Z</time>
      </trkpt>
      <trkpt lat="44.1628" lon="3.84233">
        <ele>274.463</ele>
        <time>2016-06-08T11:14:13Z</time>
      </trkpt>
      <trkpt lat="44.16284" lon="3.8419">
        <ele>273.332</ele>
        <time>2016-06-08T11:14:33Z</time>
      </trkpt>
      <trkpt lat="44.16269" lon="3.84108">
        <ele>278.092</ele>
        <time>2016-06-08T11:14:53Z</time>
      </trkpt>
      <trkpt lat="44.16175" lon="3.8411">
        <ele>299.911</ele>
        <time>2016-06-08T11:15:13Z</time>
      </trkpt>
      <trkpt lat="44.1605" lon="3.84126">
        <ele>284.908</ele>
        <time>2016-06-08T11:15:33Z</time>
      </trkpt>
      <trkpt lat="44.15987" lon="3.84168">
        <ele>272.446</ele>
        <time>2016-06-08T11:15:53Z</time>
      </trkpt>
      <trkpt lat="44.15949" lon="3.84153">
        <ele>260.997</ele>
        <time>2016-06-08T11:16:13Z</time>
      </trkpt>
      <trkpt lat="44.1592" lon="3.84117">
        <ele>254.458</ele>
        <time>2016-06-08T11:16:33Z</time>
      </trkpt>
      <trkpt lat="44.15872" lon="3.84111">
        <ele>241.556</ele>
        <time>2016-06-08T11:16:53Z</time>
      </trkpt>
      <trkpt lat="44.15852" lon="3.8407">
        <ele>237.724</ele>
        <time>2016-06-08T11:17:13Z</time>
      </trkpt>
      <trkpt lat="44.15812" lon="3.84049">
        <ele>236.626</ele>
        <time>2016-06-08T11:17:33Z</time>
      </trkpt>
      <trkpt lat="44.15684" lon="3.84063">
        <ele>234.596</ele>
        <time>2016-06-08T11:17:53Z</time>
      </trkpt>
      <trkpt lat="44.15678" lon="3.84121">
        <ele>234.517</ele>
        <time>2016-06-08T11:18:13Z</time>
      </trkpt>
      <trkpt lat="44.15655" lon="3.84132">
        <ele>239.357</ele>
        <time>2016-06-08T11:18:33Z</time>
      </trkpt>
      <trkpt lat="44.15675" lon="3.84147">
        <ele>238.9</ele>
        <time>2016-06-08T11:18:53Z</time>
      </trkpt>
      <trkpt lat="44.15676" lon="3.84218">
        <ele>253.92</ele>
        <time>2019-03-26T07:49:11Z</time>
      </trkpt>
      <trkpt lat="44.15687" lon="3.84265">
        <ele>259.408</ele>
        <time>2019-03-26T07:49:31Z</time>
      </trkpt>
      <trkpt lat="44.15656" lon="3.84233">
        <ele>265.488</ele>
        <time>2019-03-26T07:49:51Z</time>
      </trkpt>
      <trkpt lat="44.15635" lon="3.84189">
        <ele>260.169</ele>
        <time>2019-03-26T07:50:11Z</time>
      </trkpt>
      <trkpt lat="44.15628" lon="3.84195">
        <ele>264.26</ele>
        <time>2019-03-26T07:50:31Z</time>
      </trkpt>
      <trkpt lat="44.1564" lon="3.8423">
        <ele>271.518</ele>
        <time>2019-03-26T07:50:51Z</time>
      </trkpt>
      <trkpt lat="44.15636" lon="3.84254">
        <ele>278.186</ele>
        <time>2019-03-26T07:51:11Z</time>
      </trkpt>
      <trkpt lat="44.15609" lon="3.842">
        <ele>271.718</ele>
        <time>2019-03-26T07:51:31Z</time>
      </trkpt>
      <trkpt lat="44.15586" lon="3.84194">
        <ele>277.018</ele>
        <time>2019-03-26T07:51:51Z</time>
      </trkpt>
      <trkpt lat="44.15538" lon="3.84166">
        <ele>287.079</ele>
        <time>2019-03-26T07:52:11Z</time>
      </trkpt>
      <trkpt lat="44.15532" lon="3.84153">
        <ele>285.887</ele>
        <time>2019-03-26T07:52:31Z</time>
      </trkpt>
      <trkpt lat="44.15457" lon="3.841">
        <ele>296.742</ele>
        <time>2019-03-26T07:52:51Z</time>
      </trkpt>
      <trkpt lat="44.15454" lon="3.8406">
        <ele>289.226</ele>
        <time>2019-03-26T07:53:11Z</time>
      </trkpt>
      <trkpt lat="44.1541" lon="3.84023">
        <ele>305.908</ele>
        <time>2019-03-26T07:53:31Z</time>
      </trkpt>
      <trkpt lat="44.15414" lon="3.83974">
        <ele>300.441</ele>
        <time>2019-03-26T07:53:51Z</time>
      </trkpt>
      <trkpt lat="44.1541" lon="3.83945">
        <ele>299.122</ele>
        <time>2019-03-26T07:54:11Z</time>
      </trkpt>
      <trkpt lat="44.15392" lon="3.83936">
        <ele>306.193</ele>
        <time>2019-03-26T07:54:31Z</time>
      </trkpt>
      <trkpt lat="44.15398" lon="3.83903">
        <ele>301.571</ele>
        <time>2019-03-26T07:54:51Z</time>
      </trkpt>
      <trkpt lat="44.15397" lon="3.83834">
        <ele>301.879</ele>
        <time>2019-03-26T07:55:11Z</time>
      </trkpt>
      <trkpt lat="44.15376" lon="3.8384">
        <ele>304.361</ele>
        <time>2019-03-26T07:55:31Z</time>
      </trkpt>
      <trkpt lat="44.15342" lon="3.83853">
        <ele>309.011</ele>
        <time>2019-03-26T07:55:51Z</time>
      </trkpt>
      <trkpt lat="44.153" lon="3.8389">
        <ele>320.232</ele>
        <time>2019-03-26T07:56:11Z</time>
      </trkpt>
      <trkpt lat="44.15263" lon="3.83889">
        <ele>328.592</ele>
        <time>2019-03-26T07:56:31Z</time>
      </trkpt>
      <trkpt lat="44.15233" lon="3.83871">
        <ele>335.073</ele>
        <time>2019-03-26T07:56:51Z</time>
      </trkpt>
      <trkpt lat="44.1523" lon="3.83879">
        <ele>338.02</ele>
        <time>2019-03-26T07:57:11Z</time>
      </trkpt>
      <trkpt lat="44.15265" lon="3.83919">
        <ele>338.208</ele>
        <time>2019-03-26T07:57:31Z</time>
      </trkpt>
      <trkpt lat="44.15297" lon="3.83931">
        <ele>331.922</ele>
        <time>2019-03-26T07:57:51Z</time>
      </trkpt>
      <trkpt lat="44.15307" lon="3.83979">
        <ele>338.643</ele>
        <time>2019-03-26T07:58:11Z</time>
      </trkpt>
      <trkpt lat="44.15285" lon="3.83954">
        <ele>340.834</ele>
        <time>2019-03-26T07:58:31Z</time>
      </trkpt>
      <trkpt lat="44.15176" lon="3.83924">
        <ele>369.182</ele>
        <time>2019-03-26T07:58:51Z</time>
      </trkpt>
      <trkpt lat="44.15172" lon="3.83922">
        <ele>370.23</ele>
        <time>2016-06-08T11:23:33Z</time>
      </trkpt>
      <trkpt lat="44.15093" lon="3.83858">
        <ele>380.412</ele>
        <time>2016-06-08T11:23:53Z</time>
      </trkpt>
      <trkpt lat="44.15004" lon="3.83826">
        <ele>397.612</ele>
        <time>2016-06-08T11:24:13Z</time>
      </trkpt>
      <trkpt lat="44.14959" lon="3.83795">
        <ele>408.843</ele>
        <time>2016-06-08T11:24:33Z</time>
      </trkpt>
      <trkpt lat="44.14817" lon="3.8373">
        <ele>433.063</ele>
        <time>2016-06-08T11:24:53Z</time>
      </trkpt>
      <trkpt lat="44.14767" lon="3.83747">
        <ele>449.244</ele>
        <time>2016-06-08T11:25:13Z</time>
      </trkpt>
      <trkpt lat="44.14646" lon="3.83657">
        <ele>468.218</ele>
        <time>2016-06-08T11:25:33Z</time>
      </trkpt>
      <trkpt lat="44.14571" lon="3.83516">
        <ele>484.608</ele>
        <time>2016-06-08T11:25:53Z</time>
      </trkpt>
      <trkpt lat="44.14557" lon="3.83512">
        <ele>488.439</ele>
        <time>2016-06-08T11:26:13Z</time>
      </trkpt>
      <trkpt lat="44.14485" lon="3.83396">
        <ele>500.26</ele>
        <time>2016-06-08T11:26:33Z</time>
      </trkpt>
      <trkpt lat="44.14483" lon="3.83413">
        <ele>505.361</ele>
        <time>2016-06-08T11:26:53Z</time>
      </trkpt>
      <trkpt lat="44.14491" lon="3.83458">
        <ele>510.279</ele>
        <time>2016-06-08T11:27:13Z</time>
      </trkpt>
      <trkpt lat="44.14487" lon="3.83541">
        <ele>511.977</ele>
        <time>2016-06-08T11:27:33Z</time>
      </trkpt>
      <trkpt lat="44.14467" lon="3.83548">
        <ele>512.919</ele>
        <time>2016-06-08T11:27:53Z</time>
      </trkpt>
      <trkpt lat="44.14423" lon="3.835">
        <ele>524.099</ele>
        <time>2016-06-08T11:28:13Z</time>
      </trkpt>
      <trkpt lat="44.14364" lon="3.83508">
        <ele>517.39</ele>
        <time>2016-06-08T11:28:33Z</time>
      </trkpt>
      <trkpt lat="44.14338" lon="3.83496">
        <ele>516.639</ele>
        <time>2016-06-08T11:28:53Z</time>
      </trkpt>
      <trkpt lat="44.14308" lon="3.83454">
        <ele>528.201</ele>
        <time>2016-06-08T11:29:13Z</time>
      </trkpt>
      <trkpt lat="44.1427" lon="3.8345">
        <ele>525.121</ele>
        <time>2016-06-08T11:29:33Z</time>
      </trkpt>
      <trkpt lat="44.14224" lon="3.83421">
        <ele>544.108</ele>
        <time>2016-06-08T11:29:53Z</time>
      </trkpt>
      <trkpt lat="44.14133" lon="3.83458">
        <ele>541.916</ele>
        <time>2016-06-08T11:30:13Z</time>
      </trkpt>
      <trkpt lat="44.14051" lon="3.83429">
        <ele>560.967</ele>
        <time>2016-06-08T11:30:33Z</time>
      </trkpt>
      <trkpt lat="44.13946" lon="3.8341">
        <ele>576.198</ele>
        <time>2016-06-08T11:30:53Z</time>
      </trkpt>
      <trkpt lat="44.13909" lon="3.83393">
        <ele>580.366</ele>
        <time>2016-06-08T11:31:13Z</time>
      </trkpt>
      <trkpt lat="44.1386" lon="3.83413">
        <ele>578.554</ele>
        <time>2016-06-08T11:31:33Z</time>
      </trkpt>
      <trkpt lat="44.13814" lon="3.83411">
        <ele>580.466</ele>
        <time>2016-06-08T11:31:53Z</time>
      </trkpt>
      <trkpt lat="44.13771" lon="3.83389">
        <ele>590.256</ele>
        <time>2016-06-08T11:32:13Z</time>
      </trkpt>
      <trkpt lat="44.13741" lon="3.83398">
        <ele>586.647</ele>
        <time>2016-06-08T11:32:33Z</time>
      </trkpt>
      <trkpt lat="44.13625" lon="3.8353">
        <ele>578.656</ele>
        <time>2016-06-08T11:32:53Z</time>
      </trkpt>
      <trkpt lat="44.1359" lon="3.83616">
        <ele>587.659</ele>
        <time>2016-06-08T11:33:13Z</time>
      </trkpt>
      <trkpt lat="44.13569" lon="3.83733">
        <ele>596.014</ele>
        <time>2016-06-08T11:33:33Z</time>
      </trkpt>
      <trkpt lat="44.13544" lon="3.83804">
        <ele>596.008</ele>
        <time>2016-06-08T11:33:53Z</time>
      </trkpt>
      <trkpt lat="44.13513" lon="3.83869">
        <ele>601.398</ele>
        <time>2016-06-08T11:34:13Z</time>
      </trkpt>
      <trkpt lat="44.13501" lon="3.83967">
        <ele>591.859</ele>
        <time>2016-06-08T11:34:33Z</time>
      </trkpt>
      <trkpt lat="44.13482" lon="3.8399">
        <ele>586.26</ele>
        <time>2016-06-08T11:34:53Z</time>
      </trkpt>
      <trkpt lat="44.13475" lon="3.83981">
        <ele>584.378</ele>
        <time>2016-06-08T11:35:13Z</time>
      </trkpt>
      <trkpt lat="44.13409" lon="3.84105">
        <ele>549.166</ele>
        <time>2016-06-08T11:35:33Z</time>
      </trkpt>
      <trkpt lat="44.13389" lon="3.84058">
        <ele>544.668</ele>
        <time>2016-06-08T11:35:53Z</time>
      </trkpt>
      <trkpt lat="44.13375" lon="3.84055">
        <ele>542.358</ele>
        <time>2016-06-08T11:36:13Z</time>
      </trkpt>
      <trkpt lat="44.13359" lon="3.84045">
        <ele>543.349</ele>
        <time>2016-06-08T11:36:33Z</time>
      </trkpt>
      <trkpt lat="44.13287" lon="3.84135">
        <ele>524.692</ele>
        <time>2016-06-08T11:36:53Z</time>
      </trkpt>
      <trkpt lat="44.13256" lon="3.84147">
        <ele>524.773</ele>
        <time>2016-06-08T11:37:13Z</time>
      </trkpt>
      <trkpt lat="44.13124" lon="3.84322">
        <ele>498.92</ele>
        <time>2016-06-08T11:37:33Z</time>
      </trkpt>
      <trkpt lat="44.1309" lon="3.84346">
        <ele>489.508</ele>
        <time>2016-06-08T11:37:53Z</time>
      </trkpt>
      <trkpt lat="44.13064" lon="3.84427">
        <ele>477.282</ele>
        <time>2016-06-08T11:38:13Z</time>
      </trkpt>
      <trkpt lat="44.1302" lon="3.84502">
        <ele>470.493</ele>
        <time>2016-06-08T11:38:33Z</time>
      </trkpt>
      <trkpt lat="44.13" lon="3.84554">
        <ele>463.724</ele>
        <time>2016-06-08T11:38:53Z</time>
      </trkpt>
      <trkpt lat="44.12897" lon="3.84638">
        <ele>461.532</ele>
        <time>2016-06-08T11:39:13Z</time>
      </trkpt>
      <trkpt lat="44.12745" lon="3.84708">
        <ele>456.41</ele>
        <time>2016-06-08T11:39:33Z</time>
      </trkpt>
      <trkpt lat="44.12645" lon="3.84718">
        <ele>443.172</ele>
        <time>2016-06-08T11:39:53Z</time>
      </trkpt>
      <trkpt lat="44.12553" lon="3.84771">
        <ele>425.932</ele>
        <time>2016-06-08T11:40:13Z</time>
      </trkpt>
      <trkpt lat="44.12471" lon="3.84791">
        <ele>417.263</ele>
        <time>2016-06-08T11:40:33Z</time>
      </trkpt>
      <trkpt lat="44.12307" lon="3.84774">
        <ele>393.729</ele>
        <time>2016-06-08T11:40:53Z</time>
      </trkpt>
      <trkpt lat="44.12231" lon="3.84791">
        <ele>389</ele>
        <time>2016-06-08T11:41:13Z</time>
      </trkpt>
      <trkpt lat="44.12207" lon="3.84785">
        <ele>386.42</ele>
        <time>2016-06-08T11:41:33Z</time>
      </trkpt>
      <trkpt lat="44.1217" lon="3.84805">
        <ele>381.708</ele>
        <time>2016-06-08T11:41:53Z</time>
      </trkpt>
      <trkpt lat="44.12094" lon="3.84812">
        <ele>370.785</ele>
        <time>2016-06-08T11:42:13Z</time>
      </trkpt>
      <trkpt lat="44.12015" lon="3.84862">
        <ele>361.996</ele>
        <time>2016-06-08T11:42:33Z</time>
      </trkpt>
      <trkpt lat="44.1189" lon="3.84918">
        <ele>334.957</ele>
        <time>2016-06-08T11:42:53Z</time>
      </trkpt>
      <trkpt lat="44.11899" lon="3.84844">
        <ele>332.975</ele>
        <time>2016-06-08T11:43:13Z</time>
      </trkpt>
      <trkpt lat="44.11956" lon="3.8469">
        <ele>318.443</ele>
        <time>2016-06-08T11:43:33Z</time>
      </trkpt>
      <trkpt lat="44.12031" lon="3.84543">
        <ele>302.585</ele>
        <time>2016-06-08T11:43:53Z</time>
      </trkpt>
      <trkpt lat="44.12139" lon="3.84505">
        <ele>291.235</ele>
        <time>2016-06-08T11:44:13Z</time>
      </trkpt>
      <trkpt lat="44.12024" lon="3.84475">
        <ele>273.756</ele>
        <time>2016-06-08T11:44:33Z</time>
      </trkpt>
      <trkpt lat="44.11922" lon="3.84545">
        <ele>263.116</ele>
        <time>2016-06-08T11:44:53Z</time>
      </trkpt>
      <trkpt lat="44.1191" lon="3.84588">
        <ele>267.176</ele>
        <time>2016-06-08T11:45:13Z</time>
      </trkpt>
      <trkpt lat="44.11856" lon="3.84623">
        <ele>253.813</ele>
        <time>2016-06-08T11:45:33Z</time>
      </trkpt>
      <trkpt lat="44.11817" lon="3.84698">
        <ele>253.908</ele>
        <time>2016-06-08T11:45:53Z</time>
      </trkpt>
      <trkpt lat="44.11744" lon="3.84752">
        <ele>240.884</ele>
        <time>2016-06-08T11:46:13Z</time>
      </trkpt>
      <trkpt lat="44.11722" lon="3.84783">
        <ele>239.915</ele>
        <time>2016-06-08T11:46:33Z</time>
      </trkpt>
      <trkpt lat="44.11646" lon="3.84845">
        <ele>226.036</ele>
        <time>2016-06-08T11:46:53Z</time>
      </trkpt>
      <trkpt lat="44.11559" lon="3.84955">
        <ele>212.784</ele>
        <time>2016-06-08T11:47:13Z</time>
      </trkpt>
      <trkpt lat="44.11546" lon="3.85037">
        <ele>211.552</ele>
        <time>2016-06-08T11:47:33Z</time>
      </trkpt>
      <trkpt lat="44.11514" lon="3.85099">
        <ele>207.834</ele>
        <time>2016-06-08T11:47:53Z</time>
      </trkpt>
      <trkpt lat="44.11506" lon="3.85188">
        <ele>212.544</ele>
        <time>2016-06-08T11:48:13Z</time>
      </trkpt>
      <trkpt lat="44.11472" lon="3.85328">
        <ele>206.835</ele>
        <time>2016-06-08T11:48:33Z</time>
      </trkpt>
      <trkpt lat="44.11407" lon="3.85438">
        <ele>205.881</ele>
        <time>2016-06-08T11:48:53Z</time>
      </trkpt>
      <trkpt lat="44.11368" lon="3.85573">
        <ele>210.161</ele>
        <time>2016-06-08T11:49:13Z</time>
      </trkpt>
      <trkpt lat="44.11274" lon="3.85765">
        <ele>209.117</ele>
        <time>2016-06-08T11:49:33Z</time>
      </trkpt>
      <trkpt lat="44.11237" lon="3.86066">
        <ele>209.908</ele>
        <time>2016-06-08T11:49:53Z</time>
      </trkpt>
      <trkpt lat="44.112" lon="3.86192">
        <ele>206.241</ele>
        <time>2016-06-08T11:50:13Z</time>
      </trkpt>
      <trkpt lat="44.11224" lon="3.86297">
        <ele>204.592</ele>
        <time>2016-06-08T11:50:33Z</time>
      </trkpt>
      <trkpt lat="44.11302" lon="3.86487">
        <ele>202.733</ele>
        <time>2016-06-08T11:50:53Z</time>
      </trkpt>
      <trkpt lat="44.11382" lon="3.86766">
        <ele>195.391</ele>
        <time>2019-03-26T08:26:51Z</time>
      </trkpt>
      <trkpt lat="44.1141" lon="3.86964">
        <ele>192.449</ele>
        <time>2019-03-26T08:27:11Z</time>
      </trkpt>
      <trkpt lat="44.11394" lon="3.87174">
        <ele>199.821</ele>
        <time>2019-03-26T08:27:31Z</time>
      </trkpt>
      <trkpt lat="44.11331" lon="3.87262">
        <ele>198.341</ele>
        <time>2019-03-26T08:27:51Z</time>
      </trkpt>
      <trkpt lat="44.11237" lon="3.87326">
        <ele>197.272</ele>
        <time>2016-06-08T11:52:53Z</time>
      </trkpt>
      <trkpt lat="44.11207" lon="3.87183">
        <ele>194.931</ele>
        <time>2016-06-08T11:53:13Z</time>
      </trkpt>
      <trkpt lat="44.11157" lon="3.87205">
        <ele>199.961</ele>
        <time>2016-06-08T11:53:33Z</time>
      </trkpt>
      <trkpt lat="44.11069" lon="3.87184">
        <ele>199.807</ele>
        <time>2016-06-08T11:53:53Z</time>
      </trkpt>
      <trkpt lat="44.11002" lon="3.87183">
        <ele>203.208</ele>
        <time>2016-06-08T11:54:13Z</time>
      </trkpt>
      <trkpt lat="44.10975" lon="3.87224">
        <ele>195.386</ele>
        <time>2016-06-08T11:54:33Z</time>
      </trkpt>
      <trkpt lat="44.10905" lon="3.87215">
        <ele>204.387</ele>
        <time>2016-06-08T11:54:53Z</time>
      </trkpt>
      <trkpt lat="44.10777" lon="3.87285">
        <ele>209.848</ele>
        <time>2016-06-08T11:55:13Z</time>
      </trkpt>
      <trkpt lat="44.10707" lon="3.8735">
        <ele>212.026</ele>
        <time>2016-06-08T11:55:33Z</time>
      </trkpt>
      <trkpt lat="44.10657" lon="3.87454">
        <ele>210.124</ele>
        <time>2016-06-08T11:55:53Z</time>
      </trkpt>
      <trkpt lat="44.10619" lon="3.87579">
        <ele>198.356</ele>
        <time>2016-06-08T11:56:13Z</time>
      </trkpt>
      <trkpt lat="44.10573" lon="3.87704">
        <ele>197.276</ele>
        <time>2016-06-08T11:56:33Z</time>
      </trkpt>
      <trkpt lat="44.10503" lon="3.87828">
        <ele>189.647</ele>
        <time>2016-06-08T11:56:53Z</time>
      </trkpt>
      <trkpt lat="44.10512" lon="3.87862">
        <ele>185.792</ele>
        <time>2016-06-08T11:57:13Z</time>
      </trkpt>
      <trkpt lat="44.10436" lon="3.88037">
        <ele>186.573</ele>
        <time>2016-06-08T11:57:33Z</time>
      </trkpt>
      <trkpt lat="44.10387" lon="3.87997">
        <ele>196.02</ele>
        <time>2016-06-08T11:57:53Z</time>
      </trkpt>
      <trkpt lat="44.10242" lon="3.88321">
        <ele>189.308</ele>
        <time>2016-06-08T11:58:13Z</time>
      </trkpt>
      <trkpt lat="44.10534" lon="3.88478">
        <ele>194.452</ele>
        <time>2016-06-08T11:58:33Z</time>
      </trkpt>
      <trkpt lat="44.1063" lon="3.88563">
        <ele>193.463</ele>
        <time>2016-06-08T11:58:53Z</time>
      </trkpt>
      <trkpt lat="44.10677" lon="3.88646">
        <ele>198.954</ele>
        <time>2016-06-08T11:59:13Z</time>
      </trkpt>
      <trkpt lat="44.10721" lon="3.88761">
        <ele>198.122</ele>
        <time>2016-06-08T11:59:33Z</time>
      </trkpt>
      <trkpt lat="44.1075" lon="3.88783">
        <ele>198.83</ele>
        <time>2016-06-08T11:59:53Z</time>
      </trkpt>
      <trkpt lat="44.10769" lon="3.88786">
        <ele>199.982</ele>
        <time>2016-06-08T12:00:13Z</time>
      </trkpt>
      <trkpt lat="44.10793" lon="3.88883">
        <ele>203.662</ele>
        <time>2016-06-08T12:00:33Z</time>
      </trkpt>
      <trkpt lat="44.10802" lon="3.89014">
        <ele>214.743</ele>
        <time>2016-06-08T12:00:53Z</time>
      </trkpt>
      <trkpt lat="44.10848" lon="3.89141">
        <ele>227.836</ele>
        <time>2016-06-08T12:01:13Z</time>
      </trkpt>
      <trkpt lat="44.10856" lon="3.89188">
        <ele>233.217</ele>
        <time>2016-06-08T12:01:33Z</time>
      </trkpt>
      <trkpt lat="44.10875" lon="3.89225">
        <ele>232.718</ele>
        <time>2016-06-08T12:01:53Z</time>
      </trkpt>
      <trkpt lat="44.10872" lon="3.89269">
        <ele>237.108</ele>
        <time>2016-06-08T12:02:13Z</time>
      </trkpt>
      <trkpt lat="44.10861" lon="3.89302">
        <ele>240.916</ele>
        <time>2016-06-08T12:02:33Z</time>
      </trkpt>
      <trkpt lat="44.10884" lon="3.89383">
        <ele>243.347</ele>
        <time>2016-06-08T12:02:53Z</time>
      </trkpt>
      <trkpt lat="44.10895" lon="3.89491">
        <ele>251.378</ele>
        <time>2016-06-08T12:03:13Z</time>
      </trkpt>
      <trkpt lat="44.10952" lon="3.8961">
        <ele>260.886</ele>
        <time>2016-06-08T12:03:33Z</time>
      </trkpt>
      <trkpt lat="44.10966" lon="3.89652">
        <ele>263.964</ele>
        <time>2016-06-08T12:03:53Z</time>
      </trkpt>
      <trkpt lat="44.1101" lon="3.8972">
        <ele>272.556</ele>
        <time>2016-06-08T12:04:13Z</time>
      </trkpt>
      <trkpt lat="44.11036" lon="3.89698">
        <ele>269.046</ele>
        <time>2016-06-08T12:04:33Z</time>
      </trkpt>
      <trkpt lat="44.11058" lon="3.89696">
        <ele>271.617</ele>
        <time>2016-06-08T12:04:53Z</time>
      </trkpt>
      <trkpt lat="44.11106" lon="3.89742">
        <ele>285.171</ele>
        <time>2016-06-08T12:05:13Z</time>
      </trkpt>
      <trkpt lat="44.11057" lon="3.89739">
        <ele>282.841</ele>
        <time>2016-06-08T12:05:33Z</time>
      </trkpt>
      <trkpt lat="44.11085" lon="3.89758">
        <ele>289.315</ele>
        <time>2016-06-08T12:05:53Z</time>
      </trkpt>
      <trkpt lat="44.11112" lon="3.8978">
        <ele>296.608</ele>
        <time>2016-06-08T12:06:13Z</time>
      </trkpt>
      <trkpt lat="44.11137" lon="3.89773">
        <ele>296.89</ele>
        <time>2016-06-08T12:06:33Z</time>
      </trkpt>
      <trkpt lat="44.1117" lon="3.89779">
        <ele>299.131</ele>
        <time>2016-06-08T12:06:53Z</time>
      </trkpt>
      <trkpt lat="44.1118" lon="3.89799">
        <ele>301.462</ele>
        <time>2016-06-08T12:07:13Z</time>
      </trkpt>
      <trkpt lat="44.11176" lon="3.89839">
        <ele>309.64</ele>
        <time>2016-06-08T12:07:33Z</time>
      </trkpt>
      <trkpt lat="44.11274" lon="3.89883">
        <ele>305.198</ele>
        <time>2016-06-08T12:07:53Z</time>
      </trkpt>
      <trkpt lat="44.11314" lon="3.89961">
        <ele>311.56</ele>
        <time>2016-06-08T12:08:13Z</time>
      </trkpt>
      <trkpt lat="44.11343" lon="3.8996">
        <ele>307.88</ele>
        <time>2016-06-08T12:08:33Z</time>
      </trkpt>
      <trkpt lat="44.11358" lon="3.89972">
        <ele>308.211</ele>
        <time>2016-06-08T12:08:53Z</time>
      </trkpt>
      <trkpt lat="44.11318" lon="3.90077">
        <ele>318.212</ele>
        <time>2016-06-08T12:09:13Z</time>
      </trkpt>
      <trkpt lat="44.11361" lon="3.90117">
        <ele>303.732</ele>
        <time>2016-06-08T12:09:33Z</time>
      </trkpt>
      <trkpt lat="44.1139" lon="3.90168">
        <ele>309.305</ele>
        <time>2016-06-08T12:09:53Z</time>
      </trkpt>
      <trkpt lat="44.11437" lon="3.9015">
        <ele>300.908</ele>
        <time>2016-06-08T12:10:13Z</time>
      </trkpt>
      <trkpt lat="44.11477" lon="3.9019">
        <ele>307.164</ele>
        <time>2016-06-08T12:10:33Z</time>
      </trkpt>
      <trkpt lat="44.11518" lon="3.90266">
        <ele>305.865</ele>
        <time>2016-06-08T12:10:53Z</time>
      </trkpt>
      <trkpt lat="44.11539" lon="3.90364">
        <ele>305.356</ele>
        <time>2016-06-08T12:11:13Z</time>
      </trkpt>
      <trkpt lat="44.11498" lon="3.9045">
        <ele>317.924</ele>
        <time>2016-06-08T12:11:33Z</time>
      </trkpt>
      <trkpt lat="44.11529" lon="3.90584">
        <ele>315.492</ele>
        <time>2016-06-08T12:11:53Z</time>
      </trkpt>
      <trkpt lat="44.11502" lon="3.90634">
        <ele>332.254</ele>
        <time>2016-06-08T12:12:13Z</time>
      </trkpt>
      <trkpt lat="44.11554" lon="3.90698">
        <ele>317.274</ele>
        <time>2016-06-08T12:12:33Z</time>
      </trkpt>
      <trkpt lat="44.11583" lon="3.90758">
        <ele>312.825</ele>
        <time>2016-06-08T12:12:53Z</time>
      </trkpt>
      <trkpt lat="44.11626" lon="3.90797">
        <ele>306.684</ele>
        <time>2016-06-08T12:13:13Z</time>
      </trkpt>
      <trkpt lat="44.11646" lon="3.90842">
        <ele>308.507</ele>
        <time>2016-06-08T12:13:33Z</time>
      </trkpt>
      <trkpt lat="44.11687" lon="3.90846">
        <ele>295.817</ele>
        <time>2016-06-08T12:13:53Z</time>
      </trkpt>
      <trkpt lat="44.11705" lon="3.90884">
        <ele>298.708</ele>
        <time>2016-06-08T12:14:13Z</time>
      </trkpt>
      <trkpt lat="44.11726" lon="3.90883">
        <ele>294.451</ele>
        <time>2016-06-08T12:14:33Z</time>
      </trkpt>
      <trkpt lat="44.11756" lon="3.90857">
        <ele>286.752</ele>
        <time>2016-06-08T12:14:53Z</time>
      </trkpt>
      <trkpt lat="44.11756" lon="3.90857">
        <ele>286.783</ele>
        <time>2016-06-08T12:15:13Z</time>
      </trkpt>
      <trkpt lat="44.11781" lon="3.90857">
        <ele>285.571</ele>
        <time>2016-06-08T12:15:33Z</time>
      </trkpt>
      <trkpt lat="44.11812" lon="3.90843">
        <ele>277.539</ele>
        <time>2016-06-08T12:15:53Z</time>
      </trkpt>
      <trkpt lat="44.11851" lon="3.9085">
        <ele>272.591</ele>
        <time>2016-06-08T12:16:13Z</time>
      </trkpt>
      <trkpt lat="44.11897" lon="3.90827">
        <ele>261.951</ele>
        <time>2016-06-08T12:16:33Z</time>
      </trkpt>
      <trkpt lat="44.11924" lon="3.90829">
        <ele>258.562</ele>
        <time>2016-06-08T12:16:53Z</time>
      </trkpt>
      <trkpt lat="44.11963" lon="3.90775">
        <ele>248.686</ele>
        <time>2016-06-08T12:17:13Z</time>
      </trkpt>
      <trkpt lat="44.12011" lon="3.90733">
        <ele>243.16</ele>
        <time>2016-06-08T12:17:33Z</time>
      </trkpt>
      <trkpt lat="44.12042" lon="3.9073">
        <ele>242.526</ele>
        <time>2016-06-08T12:17:53Z</time>
      </trkpt>
      <trkpt lat="44.12103" lon="3.90797">
        <ele>239.208</ele>
        <time>2016-06-08T12:18:13Z</time>
      </trkpt>
      <trkpt lat="44.12179" lon="3.90779">
        <ele>235.181</ele>
        <time>2016-06-08T12:18:33Z</time>
      </trkpt>
      <trkpt lat="44.12191" lon="3.90842">
        <ele>233.422</ele>
        <time>2016-06-08T12:18:53Z</time>
      </trkpt>
      <trkpt lat="44.12209" lon="3.90859">
        <ele>235.133</ele>
        <time>2016-06-08T12:19:13Z</time>
      </trkpt>
      <trkpt lat="44.12211" lon="3.90915">
        <ele>233.191</ele>
        <time>2016-06-08T12:19:33Z</time>
      </trkpt>
      <trkpt lat="44.12194" lon="3.90949">
        <ele>226.869</ele>
        <time>2016-06-08T12:19:53Z</time>
      </trkpt>
      <trkpt lat="44.12223" lon="3.90975">
        <ele>228.871</ele>
        <time>2016-06-08T12:20:13Z</time>
      </trkpt>
      <trkpt lat="44.12237" lon="3.91015">
        <ele>224.631</ele>
        <time>2016-06-08T12:20:33Z</time>
      </trkpt>
      <trkpt lat="44.12265" lon="3.91003">
        <ele>229.952</ele>
        <time>2016-06-08T12:20:53Z</time>
      </trkpt>
      <trkpt lat="44.12269" lon="3.91026">
        <ele>228.214</ele>
        <time>2016-06-08T12:21:13Z</time>
      </trkpt>
      <trkpt lat="44.12235" lon="3.91076">
        <ele>220.454</ele>
        <time>2016-06-08T12:21:33Z</time>
      </trkpt>
      <trkpt lat="44.12188" lon="3.9106">
        <ele>213.409</ele>
        <time>2016-06-08T12:21:53Z</time>
      </trkpt>
      <trkpt lat="44.1217" lon="3.91079">
        <ele>207.508</ele>
        <time>2016-06-08T12:22:13Z</time>
      </trkpt>
      <trkpt lat="44.12186" lon="3.91155">
        <ele>206.024</ele>
        <time>2016-06-08T12:22:33Z</time>
      </trkpt>
      <trkpt lat="44.12239" lon="3.91246">
        <ele>195.985</ele>
        <time>2016-06-08T12:22:53Z</time>
      </trkpt>
      <trkpt lat="44.12239" lon="3.91292">
        <ele>189.056</ele>
        <time>2016-06-08T12:23:13Z</time>
      </trkpt>
      <trkpt lat="44.1227" lon="3.9137">
        <ele>185.754</ele>
        <time>2016-06-08T12:23:33Z</time>
      </trkpt>
      <trkpt lat="44.12335" lon="3.91461">
        <ele>175.842</ele>
        <time>2016-06-08T12:23:53Z</time>
      </trkpt>
      <trkpt lat="44.12362" lon="3.91469">
        <ele>175.694</ele>
        <time>2016-06-08T12:24:13Z</time>
      </trkpt>
      <trkpt lat="44.12397" lon="3.91442">
        <ele>179.414</ele>
        <time>2016-06-08T12:24:33Z</time>
      </trkpt>
      <trkpt lat="44.12427" lon="3.91467">
        <ele>175.625</ele>
        <time>2016-06-08T12:24:53Z</time>
      </trkpt>
      <trkpt lat="44.12431" lon="3.91523">
        <ele>176.493</ele>
        <time>2016-06-08T12:25:13Z</time>
      </trkpt>
      <trkpt lat="44.12423" lon="3.9159">
        <ele>175.865</ele>
        <time>2016-06-08T12:25:33Z</time>
      </trkpt>
      <trkpt lat="44.12407" lon="3.91625">
        <ele>174.321</ele>
        <time>2016-06-08T12:25:53Z</time>
      </trkpt>
      <trkpt lat="44.12418" lon="3.91655">
        <ele>174.608</ele>
        <time>2016-06-08T12:26:13Z</time>
      </trkpt>
      <trkpt lat="44.12523" lon="3.9169">
        <ele>186.922</ele>
        <time>2016-06-08T12:26:33Z</time>
      </trkpt>
      <trkpt lat="44.12536" lon="3.91777">
        <ele>189.133</ele>
        <time>2016-06-08T12:26:53Z</time>
      </trkpt>
      <trkpt lat="44.12559" lon="3.91752">
        <ele>189.794</ele>
        <time>2019-03-26T09:02:31Z</time>
      </trkpt>
      <trkpt lat="44.12586" lon="3.91759">
        <ele>194.712</ele>
        <time>2019-03-26T09:02:51Z</time>
      </trkpt>
      <trkpt lat="44.12602" lon="3.91772">
        <ele>199.66</ele>
        <time>2019-03-26T09:03:11Z</time>
      </trkpt>
      <trkpt lat="44.12617" lon="3.91753">
        <ele>201.812</ele>
        <time>2019-03-26T09:03:31Z</time>
      </trkpt>
      <trkpt lat="44.12638" lon="3.91765">
        <ele>207.892</ele>
        <time>2019-03-26T09:03:51Z</time>
      </trkpt>
      <trkpt lat="44.12644" lon="3.91752">
        <ele>208.353</ele>
        <time>2019-03-26T09:04:11Z</time>
      </trkpt>
      <trkpt lat="44.12674" lon="3.91763">
        <ele>216.053</ele>
        <time>2019-03-26T09:04:31Z</time>
      </trkpt>
      <trkpt lat="44.12693" lon="3.9179">
        <ele>222.904</ele>
        <time>2019-03-26T09:04:51Z</time>
      </trkpt>
      <trkpt lat="44.12731" lon="3.91804">
        <ele>234.214</ele>
        <time>2019-03-26T09:05:11Z</time>
      </trkpt>
      <trkpt lat="44.12755" lon="3.91835">
        <ele>241.008</ele>
        <time>2019-03-26T09:05:31Z</time>
      </trkpt>
      <trkpt lat="44.12784" lon="3.91846">
        <ele>247.978</ele>
        <time>2019-03-26T09:05:51Z</time>
      </trkpt>
      <trkpt lat="44.12806" lon="3.91838">
        <ele>253.369</ele>
        <time>2019-03-26T09:06:11Z</time>
      </trkpt>
      <trkpt lat="44.12817" lon="3.91847">
        <ele>257.44</ele>
        <time>2019-03-26T09:06:31Z</time>
      </trkpt>
      <trkpt lat="44.1283" lon="3.91796">
        <ele>261.588</ele>
        <time>2019-03-26T09:06:51Z</time>
      </trkpt>
      <trkpt lat="44.12802" lon="3.91747">
        <ele>248.636</ele>
        <time>2019-03-26T09:07:11Z</time>
      </trkpt>
      <trkpt lat="44.12815" lon="3.91716">
        <ele>248.438</ele>
        <time>2019-03-26T09:07:31Z</time>
      </trkpt>
      <trkpt lat="44.12853" lon="3.91715">
        <ele>258.398</ele>
        <time>2019-03-26T09:07:51Z</time>
      </trkpt>
      <trkpt lat="44.12904" lon="3.91693">
        <ele>262.789</ele>
        <time>2019-03-26T09:08:11Z</time>
      </trkpt>
      <trkpt lat="44.12927" lon="3.91714">
        <ele>268.381</ele>
        <time>2019-03-26T09:08:31Z</time>
      </trkpt>
      <trkpt lat="44.12915" lon="3.91747">
        <ele>275.161</ele>
        <time>2019-03-26T09:08:51Z</time>
      </trkpt>
      <trkpt lat="44.12915" lon="3.91811">
        <ele>289.117</ele>
        <time>2019-03-26T09:09:11Z</time>
      </trkpt>
      <trkpt lat="44.12946" lon="3.91851">
        <ele>300.508</ele>
        <time>2019-03-26T09:09:31Z</time>
      </trkpt>
      <trkpt lat="44.12979" lon="3.91974">
        <ele>328.581</ele>
        <time>2019-03-26T09:09:51Z</time>
      </trkpt>
      <trkpt lat="44.12983" lon="3.91982">
        <ele>331.992</ele>
        <time>2016-06-08T12:32:13Z</time>
      </trkpt>
      <trkpt lat="44.13071" lon="3.92012">
        <ele>348.093</ele>
        <time>2016-06-08T12:32:33Z</time>
      </trkpt>
      <trkpt lat="44.1313" lon="3.92147">
        <ele>376.681</ele>
        <time>2016-06-08T12:32:53Z</time>
      </trkpt>
      <trkpt lat="44.13122" lon="3.92257">
        <ele>386.099</ele>
        <time>2016-06-08T12:33:13Z</time>
      </trkpt>
      <trkpt lat="44.13143" lon="3.92308">
        <ele>389.081</ele>
        <time>2016-06-08T12:33:33Z</time>
      </trkpt>
      <trkpt lat="44.13156" lon="3.92348">
        <ele>390.921</ele>
        <time>2016-06-08T12:33:53Z</time>
      </trkpt>
      <trkpt lat="44.13187" lon="3.9237">
        <ele>390.972</ele>
        <time>2016-06-08T12:34:13Z</time>
      </trkpt>
      <trkpt lat="44.1317" lon="3.92451">
        <ele>398.577</ele>
        <time>2016-06-08T12:34:33Z</time>
      </trkpt>
      <trkpt lat="44.13197" lon="3.92505">
        <ele>401.961</ele>
        <time>2016-06-08T12:34:53Z</time>
      </trkpt>
      <trkpt lat="44.13233" lon="3.92512">
        <ele>400.427</ele>
        <time>2016-06-08T12:35:13Z</time>
      </trkpt>
      <trkpt lat="44.13366" lon="3.92604">
        <ele>405.808</ele>
        <time>2016-06-08T12:35:33Z</time>
      </trkpt>
      <trkpt lat="44.134" lon="3.92659">
        <ele>409.79</ele>
        <time>2016-06-08T12:35:53Z</time>
      </trkpt>
      <trkpt lat="44.13412" lon="3.92763">
        <ele>421.651</ele>
        <time>2016-06-08T12:36:13Z</time>
      </trkpt>
      <trkpt lat="44.13484" lon="3.92977">
        <ele>442.512</ele>
        <time>2016-06-08T12:36:33Z</time>
      </trkpt>
      <trkpt lat="44.13506" lon="3.92967">
        <ele>441.58</ele>
        <time>2016-06-08T12:36:53Z</time>
      </trkpt>
      <trkpt lat="44.13495" lon="3.92921">
        <ele>436.198</ele>
        <time>2016-06-08T12:37:13Z</time>
      </trkpt>
      <trkpt lat="44.13504" lon="3.92874">
        <ele>435.44</ele>
        <time>2016-06-08T12:37:33Z</time>
      </trkpt>
      <trkpt lat="44.13513" lon="3.92918">
        <ele>441.37</ele>
        <time>2016-06-08T12:37:53Z</time>
      </trkpt>
      <trkpt lat="44.13522" lon="3.92873">
        <ele>442.261</ele>
        <time>2016-06-08T12:38:13Z</time>
      </trkpt>
      <trkpt lat="44.1355" lon="3.92847">
        <ele>444.671</ele>
        <time>2016-06-08T12:38:33Z</time>
      </trkpt>
      <trkpt lat="44.13596" lon="3.9286">
        <ele>456.441</ele>
        <time>2016-06-08T12:38:53Z</time>
      </trkpt>
      <trkpt lat="44.1373" lon="3.9294">
        <ele>484.615</ele>
        <time>2016-06-08T12:39:13Z</time>
      </trkpt>
      <trkpt lat="44.1388" lon="3.92957">
        <ele>509.508</ele>
        <time>2016-06-08T12:39:33Z</time>
      </trkpt>
      <trkpt lat="44.13919" lon="3.92951">
        <ele>515.59</ele>
        <time>2016-06-08T12:39:53Z</time>
      </trkpt>
      <trkpt lat="44.13961" lon="3.92918">
        <ele>521.351</ele>
        <time>2016-06-08T12:40:13Z</time>
      </trkpt>
      <trkpt lat="44.14001" lon="3.92867">
        <ele>523.112</ele>
        <time>2016-06-08T12:40:33Z</time>
      </trkpt>
      <trkpt lat="44.14021" lon="3.92833">
        <ele>522.56</ele>
        <time>2016-06-08T12:40:53Z</time>
      </trkpt>
      <trkpt lat="44.14069" lon="3.92818">
        <ele>524.978</ele>
        <time>2016-06-08T12:41:13Z</time>
      </trkpt>
      <trkpt lat="44.14155" lon="3.92868">
        <ele>527.43</ele>
        <time>2016-06-08T12:41:33Z</time>
      </trkpt>
      <trkpt lat="44.14179" lon="3.9289">
        <ele>532.35</ele>
        <time>2016-06-08T12:41:53Z</time>
      </trkpt>
      <trkpt lat="44.14211" lon="3.92882">
        <ele>533.831</ele>
        <time>2016-06-08T12:42:13Z</time>
      </trkpt>
      <trkpt lat="44.14254" lon="3.92856">
        <ele>536.293</ele>
        <time>2016-06-08T12:42:33Z</time>
      </trkpt>
      <trkpt lat="44.14254" lon="3.92856">
        <ele>536.265</ele>
        <time>2016-06-08T12:42:53Z</time>
      </trkpt>
      <trkpt lat="44.14385" lon="3.92683">
        <ele>540.521</ele>
        <time>2016-06-08T12:43:13Z</time>
      </trkpt>
      <trkpt lat="44.14389" lon="3.92741">
        <ele>546.908</ele>
        <time>2016-06-08T12:43:33Z</time>
      </trkpt>
      <trkpt lat="44.14334" lon="3.92799">
        <ele>549.522</ele>
        <time>2016-06-08T12:43:53Z</time>
      </trkpt>
      <trkpt lat="44.14278" lon="3.92884">
        <ele>550.033</ele>
        <time>2016-06-08T12:44:13Z</time>
      </trkpt>
      <trkpt lat="44.14204" lon="3.92952">
        <ele>554.034</ele>
        <time>2016-06-08T12:44:33Z</time>
      </trkpt>
      <trkpt lat="44.14169" lon="3.92956">
        <ele>552.472</ele>
        <time>2016-06-08T12:44:53Z</time>
      </trkpt>
      <trkpt lat="44.14139" lon="3.92918">
        <ele>545.31</ele>
        <time>2016-06-08T12:45:13Z</time>
      </trkpt>
      <trkpt lat="44.14078" lon="3.92885">
        <ele>541.772</ele>
        <time>2016-06-08T12:45:33Z</time>
      </trkpt>
      <trkpt lat="44.14042" lon="3.92891">
        <ele>539.742</ele>
        <time>2016-06-08T12:45:53Z</time>
      </trkpt>
      <trkpt lat="44.13996" lon="3.92938">
        <ele>538.843</ele>
        <time>2016-06-08T12:46:13Z</time>
      </trkpt>
      <trkpt lat="44.1389" lon="3.9308">
        <ele>540.856</ele>
        <time>2016-06-08T12:46:33Z</time>
      </trkpt>
      <trkpt lat="44.1392" lon="3.93154">
        <ele>554.659</ele>
        <time>2016-06-08T12:46:53Z</time>
      </trkpt>
      <trkpt lat="44.13901" lon="3.93223">
        <ele>553.614</ele>
        <time>2016-06-08T12:47:13Z</time>
      </trkpt>
      <trkpt lat="44.13823" lon="3.93348">
        <ele>557.108</ele>
        <time>2016-06-08T12:47:33Z</time>
      </trkpt>
      <trkpt lat="44.13813" lon="3.93393">
        <ele>566.528</ele>
        <time>2016-06-08T12:47:53Z</time>
      </trkpt>
      <trkpt lat="44.1365" lon="3.93515">
        <ele>562.859</ele>
        <time>2016-06-08T12:48:13Z</time>
      </trkpt>
      <trkpt lat="44.13658" lon="3.93557">
        <ele>564.53</ele>
        <time>2016-06-08T12:48:33Z</time>
      </trkpt>
      <trkpt lat="44.13714" lon="3.93618">
        <ele>577.738</ele>
        <time>2016-06-08T12:48:53Z</time>
      </trkpt>
      <trkpt lat="44.13769" lon="3.93651">
        <ele>577.866</ele>
        <time>2016-06-08T12:49:13Z</time>
      </trkpt>
      <trkpt lat="44.1387" lon="3.93646">
        <ele>586.128</ele>
        <time>2016-06-08T12:49:33Z</time>
      </trkpt>
      <trkpt lat="44.13961" lon="3.93663">
        <ele>588.288</ele>
        <time>2016-06-08T12:49:53Z</time>
      </trkpt>
      <trkpt lat="44.14028" lon="3.93636">
        <ele>599.479</ele>
        <time>2016-06-08T12:50:13Z</time>
      </trkpt>
      <trkpt lat="44.14069" lon="3.93584">
        <ele>605.496</ele>
        <time>2016-06-08T12:50:33Z</time>
      </trkpt>
      <trkpt lat="44.14084" lon="3.93585">
        <ele>604.831</ele>
        <time>2016-06-08T12:50:53Z</time>
      </trkpt>
      <trkpt lat="44.14094" lon="3.93631">
        <ele>601.524</ele>
        <time>2016-06-08T12:51:13Z</time>
      </trkpt>
      <trkpt lat="44.14118" lon="3.93686">
        <ele>607.408</ele>
        <time>2016-06-08T12:51:33Z</time>
      </trkpt>
      <trkpt lat="44.14083" lon="3.93727">
        <ele>601.062</ele>
        <time>2016-06-08T12:51:53Z</time>
      </trkpt>
      <trkpt lat="44.14053" lon="3.93788">
        <ele>605.963</ele>
        <time>2016-06-08T12:52:13Z</time>
      </trkpt>
      <trkpt lat="44.14052" lon="3.93829">
        <ele>613.664</ele>
        <time>2016-06-08T12:52:33Z</time>
      </trkpt>
      <trkpt lat="44.14033" lon="3.93851">
        <ele>611.562</ele>
        <time>2016-06-08T12:52:53Z</time>
      </trkpt>
      <trkpt lat="44.13954" lon="3.93876">
        <ele>609.01</ele>
        <time>2016-06-08T12:53:13Z</time>
      </trkpt>
      <trkpt lat="44.13871" lon="3.9395">
        <ele>615.092</ele>
        <time>2016-06-08T12:53:33Z</time>
      </trkpt>
      <trkpt lat="44.13741" lon="3.94146">
        <ele>627.632</ele>
        <time>2016-06-08T12:53:53Z</time>
      </trkpt>
      <trkpt lat="44.13748" lon="3.94169">
        <ele>628.773</ele>
        <time>2016-06-08T12:54:13Z</time>
      </trkpt>
      <trkpt lat="44.13769" lon="3.94166">
        <ele>629.086</ele>
        <time>2016-06-08T12:54:33Z</time>
      </trkpt>
      <trkpt lat="44.13813" lon="3.9413">
        <ele>637.06</ele>
        <time>2016-06-08T12:54:53Z</time>
      </trkpt>
      <trkpt lat="44.13943" lon="3.94202">
        <ele>646.626</ele>
        <time>2016-06-08T12:55:13Z</time>
      </trkpt>
      <trkpt lat="44.14016" lon="3.94278">
        <ele>648.908</ele>
        <time>2016-06-08T12:55:33Z</time>
      </trkpt>
      <trkpt lat="44.14136" lon="3.94347">
        <ele>648.741</ele>
        <time>2016-06-08T12:55:53Z</time>
      </trkpt>
      <trkpt lat="44.14187" lon="3.94395">
        <ele>646.752</ele>
        <time>2016-06-08T12:56:13Z</time>
      </trkpt>
      <trkpt lat="44.14201" lon="3.94443">
        <ele>644.993</ele>
        <time>2016-06-08T12:56:33Z</time>
      </trkpt>
      <trkpt lat="44.14136" lon="3.94573">
        <ele>659.341</ele>
        <time>2016-06-08T12:56:53Z</time>
      </trkpt>
      <trkpt lat="44.14129" lon="3.94709">
        <ele>666.339</ele>
        <time>2016-06-08T12:57:13Z</time>
      </trkpt>
      <trkpt lat="44.14115" lon="3.94749">
        <ele>665.031</ele>
        <time>2016-06-08T12:57:33Z</time>
      </trkpt>
      <trkpt lat="44.1414" lon="3.94812">
        <ele>661.211</ele>
        <time>2016-06-08T12:57:53Z</time>
      </trkpt>
      <trkpt lat="44.14162" lon="3.94946">
        <ele>642.712</ele>
        <time>2016-06-08T12:58:13Z</time>
      </trkpt>
      <trkpt lat="44.14161" lon="3.9497">
        <ele>640.856</ele>
        <time>2016-06-08T12:58:33Z</time>
      </trkpt>
      <trkpt lat="44.14172" lon="3.95024">
        <ele>632.359</ele>
        <time>2016-06-08T12:58:53Z</time>
      </trkpt>
      <trkpt lat="44.14232" lon="3.95141">
        <ele>600.514</ele>
        <time>2016-06-08T12:59:13Z</time>
      </trkpt>
      <trkpt lat="44.14238" lon="3.95196">
        <ele>593.408</ele>
        <time>2016-06-08T12:59:33Z</time>
      </trkpt>
      <trkpt lat="44.14201" lon="3.95353">
        <ele>594.958</ele>
        <time>2016-06-08T12:59:53Z</time>
      </trkpt>
      <trkpt lat="44.14198" lon="3.95478">
        <ele>612.749</ele>
        <time>2016-06-08T13:00:13Z</time>
      </trkpt>
      <trkpt lat="44.14256" lon="3.95653">
        <ele>605.22</ele>
        <time>2016-06-08T13:00:33Z</time>
      </trkpt>
      <trkpt lat="44.1427" lon="3.95745">
        <ele>607.378</ele>
        <time>2016-06-08T13:00:53Z</time>
      </trkpt>
      <trkpt lat="44.14257" lon="3.95795">
        <ele>605.056</ele>
        <time>2016-06-08T13:01:13Z</time>
      </trkpt>
      <trkpt lat="44.14279" lon="3.95895">
        <ele>592.278</ele>
        <time>2016-06-08T13:01:33Z</time>
      </trkpt>
      <trkpt lat="44.14271" lon="3.9596">
        <ele>588.168</ele>
        <time>2016-06-08T13:01:53Z</time>
      </trkpt>
      <trkpt lat="44.14282" lon="3.95996">
        <ele>587.439</ele>
        <time>2016-06-08T13:02:13Z</time>
      </trkpt>
      <trkpt lat="44.14309" lon="3.96062">
        <ele>587.554</ele>
        <time>2016-06-08T13:02:33Z</time>
      </trkpt>
      <trkpt lat="44.14287" lon="3.96271">
        <ele>637.856</ele>
        <time>2016-06-08T13:02:53Z</time>
      </trkpt>
      <trkpt lat="44.14286" lon="3.96427">
        <ele>663.711</ele>
        <time>2016-06-08T13:03:13Z</time>
      </trkpt>
      <trkpt lat="44.14302" lon="3.96565">
        <ele>655.408</ele>
        <time>2016-06-08T13:03:33Z</time>
      </trkpt>
      <trkpt lat="44.14301" lon="3.96709">
        <ele>630.068</ele>
        <time>2016-06-08T13:03:53Z</time>
      </trkpt>
      <trkpt lat="44.14277" lon="3.96863">
        <ele>627.989</ele>
        <time>2016-06-08T13:04:13Z</time>
      </trkpt>
      <trkpt lat="44.1421" lon="3.97004">
        <ele>620.44</ele>
        <time>2016-06-08T13:04:33Z</time>
      </trkpt>
      <trkpt lat="44.14181" lon="3.97162">
        <ele>613.118</ele>
        <time>2016-06-08T13:04:53Z</time>
      </trkpt>
      <trkpt lat="44.14218" lon="3.97356">
        <ele>616.996</ele>
        <time>2016-06-08T13:05:13Z</time>
      </trkpt>
      <trkpt lat="44.14215" lon="3.97514">
        <ele>618.168</ele>
        <time>2016-06-08T13:05:33Z</time>
      </trkpt>
      <trkpt lat="44.14218" lon="3.97581">
        <ele>629.548</ele>
        <time>2016-06-08T13:05:53Z</time>
      </trkpt>
      <trkpt lat="44.14152" lon="3.97811">
        <ele>647.149</ele>
        <time>2016-06-08T13:06:13Z</time>
      </trkpt>
      <trkpt lat="44.14153" lon="3.97904">
        <ele>637.317</ele>
        <time>2016-06-08T13:06:33Z</time>
      </trkpt>
      <trkpt lat="44.14192" lon="3.97976">
        <ele>622.587</ele>
        <time>2016-06-08T13:06:53Z</time>
      </trkpt>
      <trkpt lat="44.1421" lon="3.98072">
        <ele>599.315</ele>
        <time>2016-06-08T13:07:13Z</time>
      </trkpt>
      <trkpt lat="44.14217" lon="3.98187">
        <ele>573.108</ele>
        <time>2016-06-08T13:07:33Z</time>
      </trkpt>
      <trkpt lat="44.14203" lon="3.98272">
        <ele>562.294</ele>
        <time>2016-06-08T13:07:53Z</time>
      </trkpt>
      <trkpt lat="44.14195" lon="3.98503">
        <ele>543.855</ele>
        <time>2016-06-08T13:08:13Z</time>
      </trkpt>
      <trkpt lat="44.14195" lon="3.98638">
        <ele>538.696</ele>
        <time>2016-06-08T13:08:33Z</time>
      </trkpt>
      <trkpt lat="44.14131" lon="3.98882">
        <ele>523.324</ele>
        <time>2016-06-08T13:08:53Z</time>
      </trkpt>
      <trkpt lat="44.14057" lon="3.9909">
        <ele>497.262</ele>
        <time>2016-06-08T13:09:13Z</time>
      </trkpt>
      <trkpt lat="44.13988" lon="3.99216">
        <ele>489.914</ele>
        <time>2016-06-08T13:09:33Z</time>
      </trkpt>
      <trkpt lat="44.13879" lon="3.99372">
        <ele>507.664</ele>
        <time>2016-06-08T13:09:53Z</time>
      </trkpt>
      <trkpt lat="44.13838" lon="3.99534">
        <ele>517.565</ele>
        <time>2016-06-08T13:10:13Z</time>
      </trkpt>
      <trkpt lat="44.13813" lon="3.99562">
        <ele>518.841</ele>
        <time>2016-06-08T13:10:33Z</time>
      </trkpt>
      <trkpt lat="44.13802" lon="3.99593">
        <ele>523.981</ele>
        <time>2016-06-08T13:10:53Z</time>
      </trkpt>
      <trkpt lat="44.13773" lon="3.99632">
        <ele>527.609</ele>
        <time>2016-06-08T13:11:13Z</time>
      </trkpt>
      <trkpt lat="44.13782" lon="3.9989">
        <ele>526.708</ele>
        <time>2016-06-08T13:11:33Z</time>
      </trkpt>
      <trkpt lat="44.13744" lon="4.00133">
        <ele>539.077</ele>
        <time>2016-06-08T13:11:53Z</time>
      </trkpt>
      <trkpt lat="44.13686" lon="4.00248">
        <ele>538.148</ele>
        <time>2016-06-08T13:12:13Z</time>
      </trkpt>
      <trkpt lat="44.13676" lon="4.00325">
        <ele>516.589</ele>
        <time>2016-06-08T13:12:33Z</time>
      </trkpt>
      <trkpt lat="44.13599" lon="4.00531">
        <ele>477.127</ele>
        <time>2016-06-08T13:12:53Z</time>
      </trkpt>
      <trkpt lat="44.13601" lon="4.00642">
        <ele>479.695</ele>
        <time>2016-06-08T13:13:13Z</time>
      </trkpt>
      <trkpt lat="44.13606" lon="4.00695">
        <ele>468.497</ele>
        <time>2016-06-08T13:13:33Z</time>
      </trkpt>
      <trkpt lat="44.13583" lon="4.00767">
        <ele>473.417</ele>
        <time>2016-06-08T13:13:53Z</time>
      </trkpt>
      <trkpt lat="44.13529" lon="4.00836">
        <ele>467.638</ele>
        <time>2016-06-08T13:14:13Z</time>
      </trkpt>
      <trkpt lat="44.13532" lon="4.00888">
        <ele>464.663</ele>
        <time>2016-06-08T13:14:33Z</time>
      </trkpt>
      <trkpt lat="44.13524" lon="4.00891">
        <ele>464.744</ele>
        <time>2016-06-08T13:14:53Z</time>
      </trkpt>
      <trkpt lat="44.13531" lon="4.00952">
        <ele>472.818</ele>
        <time>2016-06-08T13:15:13Z</time>
      </trkpt>
      <trkpt lat="44.13553" lon="4.01002">
        <ele>477.808</ele>
        <time>2016-06-08T13:15:33Z</time>
      </trkpt>
      <trkpt lat="44.13569" lon="4.01055">
        <ele>486.629</ele>
        <time>2016-06-08T13:15:53Z</time>
      </trkpt>
      <trkpt lat="44.13602" lon="4.01108">
        <ele>487.14</ele>
        <time>2016-06-08T13:16:13Z</time>
      </trkpt>
      <trkpt lat="44.13602" lon="4.01148">
        <ele>492.531</ele>
        <time>2016-06-08T13:16:33Z</time>
      </trkpt>
      <trkpt lat="44.1358" lon="4.01192">
        <ele>503.339</ele>
        <time>2016-06-08T13:16:53Z</time>
      </trkpt>
      <trkpt lat="44.13572" lon="4.01222">
        <ele>504.067</ele>
        <time>2016-06-08T13:17:13Z</time>
      </trkpt>
      <trkpt lat="44.13538" lon="4.01237">
        <ele>510.059</ele>
        <time>2016-06-08T13:17:33Z</time>
      </trkpt>
      <trkpt lat="44.13473" lon="4.01337">
        <ele>520.249</ele>
        <time>2016-06-08T13:17:53Z</time>
      </trkpt>
      <trkpt lat="44.13436" lon="4.01381">
        <ele>528.19</ele>
        <time>2016-06-08T13:18:13Z</time>
      </trkpt>
      <trkpt lat="44.13407" lon="4.01388">
        <ele>527.171</ele>
        <time>2016-06-08T13:18:33Z</time>
      </trkpt>
      <trkpt lat="44.13346" lon="4.01442">
        <ele>526.141</ele>
        <time>2016-06-08T13:18:53Z</time>
      </trkpt>
      <trkpt lat="44.13385" lon="4.01494">
        <ele>534.515</ele>
        <time>2016-06-08T13:19:13Z</time>
      </trkpt>
      <trkpt lat="44.13444" lon="4.0155">
        <ele>535.908</ele>
        <time>2016-06-08T13:19:33Z</time>
      </trkpt>
      <trkpt lat="44.13465" lon="4.01719">
        <ele>519.31</ele>
        <time>2016-06-08T13:19:53Z</time>
      </trkpt>
      <trkpt lat="44.13436" lon="4.01821">
        <ele>529.921</ele>
        <time>2016-06-08T13:20:13Z</time>
      </trkpt>
      <trkpt lat="44.13434" lon="4.01923">
        <ele>532.722</ele>
        <time>2016-06-08T13:20:33Z</time>
      </trkpt>
      <trkpt lat="44.13399" lon="4.02051">
        <ele>543.82</ele>
        <time>2016-06-08T13:20:53Z</time>
      </trkpt>
      <trkpt lat="44.13355" lon="4.0209">
        <ele>553.598</ele>
        <time>2019-03-26T09:59:11Z</time>
      </trkpt>
      <trkpt lat="44.13344" lon="4.0212">
        <ele>556.26</ele>
        <time>2019-03-26T09:59:31Z</time>
      </trkpt>
      <trkpt lat="44.13356" lon="4.02146">
        <ele>557.83</ele>
        <time>2019-03-26T09:59:51Z</time>
      </trkpt>
      <trkpt lat="44.13327" lon="4.02203">
        <ele>555.611</ele>
        <time>2016-06-08T13:21:33Z</time>
      </trkpt>
      <trkpt lat="44.13335" lon="4.02227">
        <ele>553.478</ele>
        <time>2016-06-08T13:21:53Z</time>
      </trkpt>
      <trkpt lat="44.13385" lon="4.02276">
        <ele>553.033</ele>
        <time>2016-06-08T13:22:13Z</time>
      </trkpt>
      <trkpt lat="44.13434" lon="4.02396">
        <ele>546.226</ele>
        <time>2019-03-26T10:01:11Z</time>
      </trkpt>
      <trkpt lat="44.13422" lon="4.02475">
        <ele>529.008</ele>
        <time>2019-03-26T10:01:31Z</time>
      </trkpt>
      <trkpt lat="44.13445" lon="4.02537">
        <ele>520.72</ele>
        <time>2019-03-26T10:01:51Z</time>
      </trkpt>
      <trkpt lat="44.13451" lon="4.02606">
        <ele>512.641</ele>
        <time>2019-03-26T10:02:11Z</time>
      </trkpt>
      <trkpt lat="44.13442" lon="4.02733">
        <ele>504.242</ele>
        <time>2019-03-26T10:02:31Z</time>
      </trkpt>
      <trkpt lat="44.13463" lon="4.0285">
        <ele>501.49</ele>
        <time>2019-03-26T10:02:51Z</time>
      </trkpt>
      <trkpt lat="44.13469" lon="4.02948">
        <ele>495.718</ele>
        <time>2019-03-26T10:03:11Z</time>
      </trkpt>
      <trkpt lat="44.13495" lon="4.02993">
        <ele>483.78</ele>
        <time>2019-03-26T10:03:31Z</time>
      </trkpt>
      <trkpt lat="44.13506" lon="4.03067">
        <ele>478.74</ele>
        <time>2019-03-26T10:03:51Z</time>
      </trkpt>
      <trkpt lat="44.13532" lon="4.03138">
        <ele>483.021</ele>
        <time>2016-06-08T13:23:33Z</time>
      </trkpt>
      <trkpt lat="44.13559" lon="4.03188">
        <ele>486.058</ele>
        <time>2016-06-08T13:23:53Z</time>
      </trkpt>
      <trkpt lat="44.13564" lon="4.03251">
        <ele>487.852</ele>
        <time>2016-06-08T13:24:13Z</time>
      </trkpt>
      <trkpt lat="44.13551" lon="4.03316">
        <ele>484.617</ele>
        <time>2019-03-26T10:05:11Z</time>
      </trkpt>
      <trkpt lat="44.13561" lon="4.034">
        <ele>475.508</ele>
        <time>2019-03-26T10:05:31Z</time>
      </trkpt>
      <trkpt lat="44.13552" lon="4.03456">
        <ele>470.118</ele>
        <time>2019-03-26T10:05:51Z</time>
      </trkpt>
      <trkpt lat="44.13562" lon="4.03519">
        <ele>465.979</ele>
        <time>2019-03-26T10:06:11Z</time>
      </trkpt>
      <trkpt lat="44.13554" lon="4.03581">
        <ele>477.19</ele>
        <time>2019-03-26T10:06:31Z</time>
      </trkpt>
      <trkpt lat="44.13558" lon="4.03628">
        <ele>480.878</ele>
        <time>2019-03-26T10:06:51Z</time>
      </trkpt>
      <trkpt lat="44.13539" lon="4.03665">
        <ele>476.216</ele>
        <time>2019-03-26T10:07:11Z</time>
      </trkpt>
      <trkpt lat="44.13502" lon="4.03709">
        <ele>466.148</ele>
        <time>2019-03-26T10:07:31Z</time>
      </trkpt>
      <trkpt lat="44.13491" lon="4.03767">
        <ele>455.018</ele>
        <time>2019-03-26T10:07:51Z</time>
      </trkpt>
      <trkpt lat="44.1347" lon="4.03793">
        <ele>449.189</ele>
        <time>2016-06-08T13:25:53Z</time>
      </trkpt>
      <trkpt lat="44.1348" lon="4.03879">
        <ele>425.967</ele>
        <time>2019-03-26T10:08:31Z</time>
      </trkpt>
      <trkpt lat="44.1346" lon="4.03909">
        <ele>419.481</ele>
        <time>2019-03-26T10:08:51Z</time>
      </trkpt>
      <trkpt lat="44.13417" lon="4.03927">
        <ele>413.219</ele>
        <time>2019-03-26T10:09:11Z</time>
      </trkpt>
      <trkpt lat="44.13372" lon="4.03981">
        <ele>396.708</ele>
        <time>2019-03-26T10:09:31Z</time>
      </trkpt>
      <trkpt lat="44.13256" lon="4.04056">
        <ele>371.859</ele>
        <time>2016-06-08T13:27:13Z</time>
      </trkpt>
      <trkpt lat="44.1322" lon="4.0407">
        <ele>363.64</ele>
        <time>2016-06-08T13:27:33Z</time>
      </trkpt>
      <trkpt lat="44.1314" lon="4.04154">
        <ele>342.761</ele>
        <time>2016-06-08T13:27:53Z</time>
      </trkpt>
      <trkpt lat="44.13171" lon="4.04177">
        <ele>343.889</ele>
        <time>2016-06-08T13:28:13Z</time>
      </trkpt>
      <trkpt lat="44.13268" lon="4.04189">
        <ele>335.827</ele>
        <time>2016-06-08T13:28:33Z</time>
      </trkpt>
      <trkpt lat="44.13307" lon="4.0418">
        <ele>337.879</ele>
        <time>2016-06-08T13:28:53Z</time>
      </trkpt>
      <trkpt lat="44.13419" lon="4.04209">
        <ele>334.489</ele>
        <time>2016-06-08T13:29:13Z</time>
      </trkpt>
      <trkpt lat="44.13459" lon="4.04283">
        <ele>320.56</ele>
        <time>2016-06-08T13:29:33Z</time>
      </trkpt>
      <trkpt lat="44.13499" lon="4.04297">
        <ele>323.125</ele>
        <time>2016-06-08T13:29:53Z</time>
      </trkpt>
      <trkpt lat="44.1351" lon="4.04338">
        <ele>315.326</ele>
        <time>2016-06-08T13:30:13Z</time>
      </trkpt>
      <trkpt lat="44.13533" lon="4.04385">
        <ele>308.908</ele>
        <time>2016-06-08T13:30:33Z</time>
      </trkpt>
      <trkpt lat="44.1353" lon="4.04439">
        <ele>305.208</ele>
        <time>2016-06-08T13:30:53Z</time>
      </trkpt>
      <trkpt lat="44.13549" lon="4.04478">
        <ele>305.975</ele>
        <time>2016-06-08T13:31:13Z</time>
      </trkpt>
      <trkpt lat="44.13518" lon="4.04554">
        <ele>308.936</ele>
        <time>2016-06-08T13:31:33Z</time>
      </trkpt>
      <trkpt lat="44.13443" lon="4.04668">
        <ele>307.937</ele>
        <time>2016-06-08T13:31:53Z</time>
      </trkpt>
      <trkpt lat="44.13335" lon="4.04809">
        <ele>311.075</ele>
        <time>2016-06-08T13:32:13Z</time>
      </trkpt>
      <trkpt lat="44.13285" lon="4.04862">
        <ele>298.363</ele>
        <time>2016-06-08T13:32:33Z</time>
      </trkpt>
      <trkpt lat="44.13264" lon="4.04939">
        <ele>297.915</ele>
        <time>2016-06-08T13:32:53Z</time>
      </trkpt>
      <trkpt lat="44.13281" lon="4.05017">
        <ele>298.545</ele>
        <time>2016-06-08T13:33:13Z</time>
      </trkpt>
      <trkpt lat="44.13328" lon="4.05073">
        <ele>292.366</ele>
        <time>2016-06-08T13:33:33Z</time>
      </trkpt>
      <trkpt lat="44.13368" lon="4.05103">
        <ele>286.329</ele>
        <time>2016-06-08T13:33:53Z</time>
      </trkpt>
      <trkpt lat="44.13416" lon="4.05125">
        <ele>286.4</ele>
        <time>2016-06-08T13:34:13Z</time>
      </trkpt>
      <trkpt lat="44.13424" lon="4.05184">
        <ele>280.52</ele>
        <time>2016-06-08T13:34:33Z</time>
      </trkpt>
      <trkpt lat="44.13395" lon="4.05249">
        <ele>272.808</ele>
        <time>2016-06-08T13:34:53Z</time>
      </trkpt>
      <trkpt lat="44.13316" lon="4.05364">
        <ele>256.445</ele>
        <time>2016-06-08T13:35:13Z</time>
      </trkpt>
      <trkpt lat="44.13254" lon="4.05424">
        <ele>253.846</ele>
        <time>2016-06-08T13:35:33Z</time>
      </trkpt>
      <trkpt lat="44.13244" lon="4.05472">
        <ele>254.577</ele>
        <time>2019-03-26T10:18:31Z</time>
      </trkpt>
      <trkpt lat="44.1328" lon="4.05445">
        <ele>254.945</ele>
        <time>2016-06-08T13:36:13Z</time>
      </trkpt>
      <trkpt lat="44.13331" lon="4.05481">
        <ele>250.823</ele>
        <time>2019-03-26T10:19:11Z</time>
      </trkpt>
      <trkpt lat="44.13405" lon="4.05474">
        <ele>254.845</ele>
        <time>2019-03-26T10:19:31Z</time>
      </trkpt>
      <trkpt lat="44.13425" lon="4.05489">
        <ele>254.175</ele>
        <time>2016-06-08T13:37:13Z</time>
      </trkpt>
      <trkpt lat="44.1343" lon="4.05548">
        <ele>249.896</ele>
        <time>2019-03-26T10:20:11Z</time>
      </trkpt>
      <trkpt lat="44.13446" lon="4.05566">
        <ele>252.738</ele>
        <time>2019-03-26T10:20:31Z</time>
      </trkpt>
      <trkpt lat="44.13462" lon="4.0555">
        <ele>255.37</ele>
        <time>2019-03-26T10:20:51Z</time>
      </trkpt>
      <trkpt lat="44.1349" lon="4.05557">
        <ele>259.017</ele>
        <time>2016-06-08T13:37:53Z</time>
      </trkpt>
      <trkpt lat="44.13504" lon="4.05583">
        <ele>262.008</ele>
        <time>2016-06-08T13:38:13Z</time>
      </trkpt>
      <trkpt lat="44.13519" lon="4.05674">
        <ele>268.346</ele>
        <time>2016-06-08T13:38:33Z</time>
      </trkpt>
      <trkpt lat="44.1354" lon="4.05739">
        <ele>269.897</ele>
        <time>2019-03-26T10:22:11Z</time>
      </trkpt>
      <trkpt lat="44.13581" lon="4.05769">
        <ele>269.958</ele>
        <time>2019-03-26T10:22:31Z</time>
      </trkpt>
      <trkpt lat="44.13569" lon="4.05831">
        <ele>274.916</ele>
        <time>2019-03-26T10:22:51Z</time>
      </trkpt>
      <trkpt lat="44.13568" lon="4.05861">
        <ele>276.374</ele>
        <time>2019-03-26T10:23:11Z</time>
      </trkpt>
      <trkpt lat="44.13554" lon="4.05941">
        <ele>272.776</ele>
        <time>2019-03-26T10:23:31Z</time>
      </trkpt>
      <trkpt lat="44.13571" lon="4.06007">
        <ele>267.636</ele>
        <time>2016-06-08T13:39:53Z</time>
      </trkpt>
      <trkpt lat="44.13519" lon="4.06035">
        <ele>260.387</ele>
        <time>2016-06-08T13:40:13Z</time>
      </trkpt>
      <trkpt lat="44.13509" lon="4.06054">
        <ele>260.925</ele>
        <time>2016-06-08T13:40:33Z</time>
      </trkpt>
      <trkpt lat="44.13507" lon="4.06065">
        <ele>261.226</ele>
        <time>2019-03-26T10:24:51Z</time>
      </trkpt>
      <trkpt lat="44.13493" lon="4.06116">
        <ele>258.508</ele>
        <time>2019-03-26T10:25:11Z</time>
      </trkpt>
      <trkpt lat="44.13476" lon="4.06126">
        <ele>255.808</ele>
        <time>2019-03-26T10:25:31Z</time>
      </trkpt>
      <trkpt lat="44.1346" lon="4.06147">
        <ele>248.415</ele>
        <time>2019-03-26T10:25:51Z</time>
      </trkpt>
      <trkpt lat="44.13407" lon="4.06184">
        <ele>238.936</ele>
        <time>2019-03-26T10:26:11Z</time>
      </trkpt>
      <trkpt lat="44.13364" lon="4.06261">
        <ele>218.627</ele>
        <time>2016-06-08T13:42:13Z</time>
      </trkpt>
      <trkpt lat="44.13329" lon="4.06282">
        <ele>216.735</ele>
        <time>2019-03-26T10:26:51Z</time>
      </trkpt>
      <trkpt lat="44.13312" lon="4.06325">
        <ele>212.563</ele>
        <time>2019-03-26T10:27:11Z</time>
      </trkpt>
      <trkpt lat="44.1329" lon="4.06367">
        <ele>211.365</ele>
        <time>2019-03-26T10:27:31Z</time>
      </trkpt>
      <trkpt lat="44.13295" lon="4.06452">
        <ele>199.225</ele>
        <time>2019-03-26T10:27:51Z</time>
      </trkpt>
      <trkpt lat="44.13268" lon="4.06482">
        <ele>198.276</ele>
        <time>2019-03-26T10:28:11Z</time>
      </trkpt>
      <trkpt lat="44.13227" lon="4.06514">
        <ele>197.745</ele>
        <time>2019-03-26T10:28:31Z</time>
      </trkpt>
      <trkpt lat="44.13209" lon="4.06551">
        <ele>192.747</ele>
        <time>2019-03-26T10:28:51Z</time>
      </trkpt>
      <trkpt lat="44.13197" lon="4.06594">
        <ele>189.011</ele>
        <time>2019-03-26T10:29:11Z</time>
      </trkpt>
      <trkpt lat="44.13148" lon="4.06637">
        <ele>180.408</ele>
        <time>2019-03-26T10:29:31Z</time>
      </trkpt>
      <trkpt lat="44.13101" lon="4.06697">
        <ele>165.237</ele>
        <time>2019-03-26T10:29:51Z</time>
      </trkpt>
      <trkpt lat="44.13113" lon="4.0671">
        <ele>165.928</ele>
        <time>2019-03-26T10:30:11Z</time>
      </trkpt>
      <trkpt lat="44.13116" lon="4.06745">
        <ele>161.719</ele>
        <time>2016-06-08T13:46:33Z</time>
      </trkpt>
      <trkpt lat="44.13099" lon="4.06761">
        <ele>157.347</ele>
        <time>2019-03-26T10:30:51Z</time>
      </trkpt>
      <trkpt lat="44.13078" lon="4.06759">
        <ele>154.155</ele>
        <time>2019-03-26T10:31:11Z</time>
      </trkpt>
      <trkpt lat="44.13056" lon="4.06765">
        <ele>149.667</ele>
        <time>2016-06-08T13:47:13Z</time>
      </trkpt>
      <trkpt lat="44.13038" lon="4.06798">
        <ele>148.097</ele>
        <time>2016-06-08T13:47:33Z</time>
      </trkpt>
      <trkpt lat="44.13042" lon="4.069">
        <ele>144.358</ele>
        <time>2016-06-08T13:47:53Z</time>
      </trkpt>
      <trkpt lat="44.13005" lon="4.06919">
        <ele>143.847</ele>
        <time>2016-06-08T13:48:13Z</time>
      </trkpt>
      <trkpt lat="44.1295" lon="4.06993">
        <ele>141.329</ele>
        <time>2016-06-08T13:48:33Z</time>
      </trkpt>
      <trkpt lat="44.12882" lon="4.07028">
        <ele>140.721</ele>
        <time>2016-06-08T13:48:53Z</time>
      </trkpt>
      <trkpt lat="44.12804" lon="4.0709">
        <ele>138.508</ele>
        <time>2016-06-08T13:49:13Z</time>
      </trkpt>
      <trkpt lat="44.12671" lon="4.07073">
        <ele>139.287</ele>
        <time>2016-06-08T13:49:33Z</time>
      </trkpt>
      <trkpt lat="44.12665" lon="4.07188">
        <ele>131.148</ele>
        <time>2016-06-08T13:49:53Z</time>
      </trkpt>
      <trkpt lat="44.12597" lon="4.0716">
        <ele>128.199</ele>
        <time>2016-06-08T13:50:13Z</time>
      </trkpt>
      <trkpt lat="44.12533" lon="4.07123">
        <ele>131.087</ele>
        <time>2016-06-08T13:50:33Z</time>
      </trkpt>
      <trkpt lat="44.12483" lon="4.07104">
        <ele>132.895</ele>
        <time>2016-06-08T13:50:53Z</time>
      </trkpt>
      <trkpt lat="44.12424" lon="4.07101">
        <ele>133.427</ele>
        <time>2016-06-08T13:51:13Z</time>
      </trkpt>
      <trkpt lat="44.12415" lon="4.07246">
        <ele>130.527</ele>
        <time>2016-06-08T13:51:33Z</time>
      </trkpt>
    </trkseg>
  </trk>
</gpx>